<?xml version="1.0" encoding="UTF-8" standalone="no" ?>
<gpx xmlns="http://www.topografix.com/GPX/1/1" xmlns:xsi="http://www.w3.org/2001/XMLSchema-instance" xsi:schemaLocation="http://www.topografix.com/GPX/1/1 http://www.topografix.com/GPX/1/1/gpx.xsd" version="1.1" creator="VisuGPX - https://www.visugpx.com">
  <metadata>
    <name>Randonnée vtt à Lacaussade 2015</name>
    <desc><![CDATA[Randonnée vtt et pédestre à Lacaussade 2015]]></desc>
  </metadata>
  <trk>
    <name><![CDATA[lacaussade2015]]></name>
    <trkseg>
      <trkpt lat="44.50591" lon="0.82572">
        <ele>122.71</ele>
        <time>2015-05-10T07:36:20Z</time>
      </trkpt>
      <trkpt lat="44.50591" lon="0.82571">
        <ele>124.15</ele>
        <time>2015-05-10T07:36:46Z</time>
      </trkpt>
      <trkpt lat="44.50592" lon="0.82569">
        <ele>123.67</ele>
        <time>2015-05-10T07:36:48Z</time>
      </trkpt>
      <trkpt lat="44.50601" lon="0.82574">
        <ele>124.15</ele>
        <time>2015-05-10T07:37:01Z</time>
      </trkpt>
      <trkpt lat="44.50599" lon="0.8258">
        <ele>125.59</ele>
        <time>2015-05-10T07:37:12Z</time>
      </trkpt>
      <trkpt lat="44.50597" lon="0.82582">
        <ele>125.59</ele>
        <time>2015-05-10T07:37:15Z</time>
      </trkpt>
      <trkpt lat="44.50568" lon="0.8258">
        <ele>125.59</ele>
        <time>2015-05-10T07:37:27Z</time>
      </trkpt>
      <trkpt lat="44.50558" lon="0.82581">
        <ele>125.59</ele>
        <time>2015-05-10T07:37:31Z</time>
      </trkpt>
      <trkpt lat="44.50557" lon="0.82579">
        <ele>125.59</ele>
        <time>2015-05-10T07:37:32Z</time>
      </trkpt>
      <trkpt lat="44.50556" lon="0.82576">
        <ele>125.59</ele>
        <time>2015-05-10T07:37:33Z</time>
      </trkpt>
      <trkpt lat="44.50556" lon="0.82573">
        <ele>125.11</ele>
        <time>2015-05-10T07:37:34Z</time>
      </trkpt>
      <trkpt lat="44.50556" lon="0.82569">
        <ele>125.11</ele>
        <time>2015-05-10T07:37:35Z</time>
      </trkpt>
      <trkpt lat="44.50556" lon="0.82563">
        <ele>125.11</ele>
        <time>2015-05-10T07:37:36Z</time>
      </trkpt>
      <trkpt lat="44.50556" lon="0.82556">
        <ele>124.63</ele>
        <time>2015-05-10T07:37:37Z</time>
      </trkpt>
      <trkpt lat="44.50556" lon="0.82548">
        <ele>124.15</ele>
        <time>2015-05-10T07:37:38Z</time>
      </trkpt>
      <trkpt lat="44.50555" lon="0.82539">
        <ele>123.67</ele>
        <time>2015-05-10T07:37:39Z</time>
      </trkpt>
      <trkpt lat="44.50554" lon="0.8253">
        <ele>123.19</ele>
        <time>2015-05-10T07:37:40Z</time>
      </trkpt>
      <trkpt lat="44.50552" lon="0.82495">
        <ele>121.26</ele>
        <time>2015-05-10T07:37:44Z</time>
      </trkpt>
      <trkpt lat="44.50552" lon="0.82486">
        <ele>120.78</ele>
        <time>2015-05-10T07:37:45Z</time>
      </trkpt>
      <trkpt lat="44.50551" lon="0.82468">
        <ele>120.3</ele>
        <time>2015-05-10T07:37:47Z</time>
      </trkpt>
      <trkpt lat="44.50549" lon="0.8246">
        <ele>119.82</ele>
        <time>2015-05-10T07:37:48Z</time>
      </trkpt>
      <trkpt lat="44.50545" lon="0.82454">
        <ele>119.34</ele>
        <time>2015-05-10T07:37:49Z</time>
      </trkpt>
      <trkpt lat="44.5054" lon="0.82449">
        <ele>119.34</ele>
        <time>2015-05-10T07:37:50Z</time>
      </trkpt>
      <trkpt lat="44.50534" lon="0.82446">
        <ele>118.86</ele>
        <time>2015-05-10T07:37:51Z</time>
      </trkpt>
      <trkpt lat="44.50528" lon="0.82444">
        <ele>118.86</ele>
        <time>2015-05-10T07:37:52Z</time>
      </trkpt>
      <trkpt lat="44.50522" lon="0.82442">
        <ele>118.86</ele>
        <time>2015-05-10T07:37:53Z</time>
      </trkpt>
      <trkpt lat="44.50463" lon="0.82427">
        <ele>118.38</ele>
        <time>2015-05-10T07:38:03Z</time>
      </trkpt>
      <trkpt lat="44.50397" lon="0.82397">
        <ele>119.34</ele>
        <time>2015-05-10T07:38:15Z</time>
      </trkpt>
      <trkpt lat="44.5034" lon="0.82363">
        <ele>117.9</ele>
        <time>2015-05-10T07:38:28Z</time>
      </trkpt>
      <trkpt lat="44.50285" lon="0.82335">
        <ele>116.94</ele>
        <time>2015-05-10T07:38:39Z</time>
      </trkpt>
      <trkpt lat="44.50282" lon="0.8233">
        <ele>116.94</ele>
        <time>2015-05-10T07:38:40Z</time>
      </trkpt>
      <trkpt lat="44.50281" lon="0.82324">
        <ele>116.46</ele>
        <time>2015-05-10T07:38:41Z</time>
      </trkpt>
      <trkpt lat="44.5028" lon="0.82317">
        <ele>116.46</ele>
        <time>2015-05-10T07:38:42Z</time>
      </trkpt>
      <trkpt lat="44.5028" lon="0.8231">
        <ele>115.98</ele>
        <time>2015-05-10T07:38:43Z</time>
      </trkpt>
      <trkpt lat="44.50276" lon="0.82208">
        <ele>112.61</ele>
        <time>2015-05-10T07:38:56Z</time>
      </trkpt>
      <trkpt lat="44.50271" lon="0.82084">
        <ele>111.17</ele>
        <time>2015-05-10T07:39:13Z</time>
      </trkpt>
      <trkpt lat="44.5027" lon="0.82029">
        <ele>108.29</ele>
        <time>2015-05-10T07:39:21Z</time>
      </trkpt>
      <trkpt lat="44.5027" lon="0.82001">
        <ele>106.36</ele>
        <time>2015-05-10T07:39:24Z</time>
      </trkpt>
      <trkpt lat="44.50266" lon="0.81951">
        <ele>103</ele>
        <time>2015-05-10T07:39:29Z</time>
      </trkpt>
      <trkpt lat="44.50261" lon="0.81896">
        <ele>97.71</ele>
        <time>2015-05-10T07:39:35Z</time>
      </trkpt>
      <trkpt lat="44.5026" lon="0.81868">
        <ele>94.83</ele>
        <time>2015-05-10T07:39:39Z</time>
      </trkpt>
      <trkpt lat="44.50256" lon="0.81785">
        <ele>93.39</ele>
        <time>2015-05-10T07:39:53Z</time>
      </trkpt>
      <trkpt lat="44.50256" lon="0.81748">
        <ele>96.75</ele>
        <time>2015-05-10T07:40:03Z</time>
      </trkpt>
      <trkpt lat="44.50256" lon="0.81703">
        <ele>100.6</ele>
        <time>2015-05-10T07:40:16Z</time>
      </trkpt>
      <trkpt lat="44.50258" lon="0.8168">
        <ele>103.48</ele>
        <time>2015-05-10T07:40:23Z</time>
      </trkpt>
      <trkpt lat="44.50266" lon="0.81667">
        <ele>103.96</ele>
        <time>2015-05-10T07:40:27Z</time>
      </trkpt>
      <trkpt lat="44.50286" lon="0.81636">
        <ele>103.96</ele>
        <time>2015-05-10T07:40:39Z</time>
      </trkpt>
      <trkpt lat="44.50314" lon="0.81596">
        <ele>103.96</ele>
        <time>2015-05-10T07:40:52Z</time>
      </trkpt>
      <trkpt lat="44.50331" lon="0.81551">
        <ele>108.77</ele>
        <time>2015-05-10T07:41:04Z</time>
      </trkpt>
      <trkpt lat="44.50346" lon="0.81504">
        <ele>110.21</ele>
        <time>2015-05-10T07:41:16Z</time>
      </trkpt>
      <trkpt lat="44.50367" lon="0.81454">
        <ele>109.73</ele>
        <time>2015-05-10T07:41:30Z</time>
      </trkpt>
      <trkpt lat="44.50401" lon="0.81389">
        <ele>111.17</ele>
        <time>2015-05-10T07:41:47Z</time>
      </trkpt>
      <trkpt lat="44.50404" lon="0.81345">
        <ele>114.05</ele>
        <time>2015-05-10T07:41:58Z</time>
      </trkpt>
      <trkpt lat="44.50379" lon="0.81297">
        <ele>114.53</ele>
        <time>2015-05-10T07:42:11Z</time>
      </trkpt>
      <trkpt lat="44.50369" lon="0.81283">
        <ele>114.05</ele>
        <time>2015-05-10T07:42:16Z</time>
      </trkpt>
      <trkpt lat="44.50366" lon="0.81283">
        <ele>114.05</ele>
        <time>2015-05-10T07:42:17Z</time>
      </trkpt>
      <trkpt lat="44.50362" lon="0.81284">
        <ele>114.05</ele>
        <time>2015-05-10T07:42:18Z</time>
      </trkpt>
      <trkpt lat="44.50359" lon="0.81286">
        <ele>114.53</ele>
        <time>2015-05-10T07:42:19Z</time>
      </trkpt>
      <trkpt lat="44.50355" lon="0.81288">
        <ele>115.01</ele>
        <time>2015-05-10T07:42:20Z</time>
      </trkpt>
      <trkpt lat="44.50351" lon="0.81289">
        <ele>115.5</ele>
        <time>2015-05-10T07:42:21Z</time>
      </trkpt>
      <trkpt lat="44.50282" lon="0.81308">
        <ele>120.78</ele>
        <time>2015-05-10T07:42:37Z</time>
      </trkpt>
      <trkpt lat="44.50215" lon="0.81295">
        <ele>121.26</ele>
        <time>2015-05-10T07:42:52Z</time>
      </trkpt>
      <trkpt lat="44.50158" lon="0.8126">
        <ele>123.67</ele>
        <time>2015-05-10T07:43:06Z</time>
      </trkpt>
      <trkpt lat="44.50109" lon="0.81222">
        <ele>124.63</ele>
        <time>2015-05-10T07:43:20Z</time>
      </trkpt>
      <trkpt lat="44.50039" lon="0.81189">
        <ele>121.74</ele>
        <time>2015-05-10T07:43:33Z</time>
      </trkpt>
      <trkpt lat="44.50009" lon="0.81179">
        <ele>121.74</ele>
        <time>2015-05-10T07:43:39Z</time>
      </trkpt>
      <trkpt lat="44.50006" lon="0.81176">
        <ele>122.71</ele>
        <time>2015-05-10T07:43:40Z</time>
      </trkpt>
      <trkpt lat="44.50005" lon="0.81172">
        <ele>123.19</ele>
        <time>2015-05-10T07:43:41Z</time>
      </trkpt>
      <trkpt lat="44.50006" lon="0.8117">
        <ele>123.67</ele>
        <time>2015-05-10T07:43:42Z</time>
      </trkpt>
      <trkpt lat="44.50007" lon="0.81168">
        <ele>124.15</ele>
        <time>2015-05-10T07:43:43Z</time>
      </trkpt>
      <trkpt lat="44.50008" lon="0.81167">
        <ele>124.15</ele>
        <time>2015-05-10T07:43:44Z</time>
      </trkpt>
      <trkpt lat="44.5001" lon="0.81165">
        <ele>124.15</ele>
        <time>2015-05-10T07:43:45Z</time>
      </trkpt>
      <trkpt lat="44.50012" lon="0.81164">
        <ele>124.15</ele>
        <time>2015-05-10T07:43:46Z</time>
      </trkpt>
      <trkpt lat="44.50015" lon="0.81164">
        <ele>124.63</ele>
        <time>2015-05-10T07:43:47Z</time>
      </trkpt>
      <trkpt lat="44.50017" lon="0.81163">
        <ele>124.63</ele>
        <time>2015-05-10T07:43:48Z</time>
      </trkpt>
      <trkpt lat="44.50049" lon="0.81136">
        <ele>127.03</ele>
        <time>2015-05-10T07:44:04Z</time>
      </trkpt>
      <trkpt lat="44.50082" lon="0.81103">
        <ele>129.43</ele>
        <time>2015-05-10T07:44:20Z</time>
      </trkpt>
      <trkpt lat="44.50106" lon="0.81082">
        <ele>128.47</ele>
        <time>2015-05-10T07:44:29Z</time>
      </trkpt>
      <trkpt lat="44.5011" lon="0.81078">
        <ele>128.47</ele>
        <time>2015-05-10T07:44:30Z</time>
      </trkpt>
      <trkpt lat="44.50113" lon="0.81073">
        <ele>127.99</ele>
        <time>2015-05-10T07:44:31Z</time>
      </trkpt>
      <trkpt lat="44.50116" lon="0.81068">
        <ele>127.99</ele>
        <time>2015-05-10T07:44:32Z</time>
      </trkpt>
      <trkpt lat="44.50119" lon="0.81062">
        <ele>127.51</ele>
        <time>2015-05-10T07:44:33Z</time>
      </trkpt>
      <trkpt lat="44.5017" lon="0.8095">
        <ele>125.59</ele>
        <time>2015-05-10T07:44:49Z</time>
      </trkpt>
      <trkpt lat="44.50174" lon="0.80944">
        <ele>125.59</ele>
        <time>2015-05-10T07:44:50Z</time>
      </trkpt>
      <trkpt lat="44.50178" lon="0.80939">
        <ele>125.59</ele>
        <time>2015-05-10T07:44:51Z</time>
      </trkpt>
      <trkpt lat="44.50191" lon="0.80923">
        <ele>126.07</ele>
        <time>2015-05-10T07:44:54Z</time>
      </trkpt>
      <trkpt lat="44.50195" lon="0.80918">
        <ele>126.07</ele>
        <time>2015-05-10T07:44:55Z</time>
      </trkpt>
      <trkpt lat="44.5026" lon="0.80819">
        <ele>126.07</ele>
        <time>2015-05-10T07:45:12Z</time>
      </trkpt>
      <trkpt lat="44.50293" lon="0.80768">
        <ele>124.63</ele>
        <time>2015-05-10T07:45:20Z</time>
      </trkpt>
      <trkpt lat="44.50295" lon="0.8076">
        <ele>124.63</ele>
        <time>2015-05-10T07:45:21Z</time>
      </trkpt>
      <trkpt lat="44.50296" lon="0.80752">
        <ele>124.15</ele>
        <time>2015-05-10T07:45:22Z</time>
      </trkpt>
      <trkpt lat="44.50296" lon="0.80743">
        <ele>124.63</ele>
        <time>2015-05-10T07:45:23Z</time>
      </trkpt>
      <trkpt lat="44.50295" lon="0.80735">
        <ele>124.63</ele>
        <time>2015-05-10T07:45:24Z</time>
      </trkpt>
      <trkpt lat="44.50292" lon="0.80637">
        <ele>124.63</ele>
        <time>2015-05-10T07:45:35Z</time>
      </trkpt>
      <trkpt lat="44.50291" lon="0.80627">
        <ele>124.15</ele>
        <time>2015-05-10T07:45:36Z</time>
      </trkpt>
      <trkpt lat="44.50289" lon="0.80618">
        <ele>123.67</ele>
        <time>2015-05-10T07:45:37Z</time>
      </trkpt>
      <trkpt lat="44.50264" lon="0.80519">
        <ele>119.34</ele>
        <time>2015-05-10T07:45:46Z</time>
      </trkpt>
      <trkpt lat="44.50262" lon="0.80506">
        <ele>118.86</ele>
        <time>2015-05-10T07:45:47Z</time>
      </trkpt>
      <trkpt lat="44.50261" lon="0.80493">
        <ele>117.9</ele>
        <time>2015-05-10T07:45:48Z</time>
      </trkpt>
      <trkpt lat="44.50262" lon="0.80416">
        <ele>114.05</ele>
        <time>2015-05-10T07:45:54Z</time>
      </trkpt>
      <trkpt lat="44.50259" lon="0.80405">
        <ele>112.61</ele>
        <time>2015-05-10T07:45:55Z</time>
      </trkpt>
      <trkpt lat="44.50256" lon="0.80395">
        <ele>111.65</ele>
        <time>2015-05-10T07:45:56Z</time>
      </trkpt>
      <trkpt lat="44.50251" lon="0.80384">
        <ele>110.69</ele>
        <time>2015-05-10T07:45:57Z</time>
      </trkpt>
      <trkpt lat="44.50245" lon="0.80375">
        <ele>109.73</ele>
        <time>2015-05-10T07:45:58Z</time>
      </trkpt>
      <trkpt lat="44.50238" lon="0.80367">
        <ele>108.77</ele>
        <time>2015-05-10T07:45:59Z</time>
      </trkpt>
      <trkpt lat="44.50229" lon="0.80359">
        <ele>107.81</ele>
        <time>2015-05-10T07:46:00Z</time>
      </trkpt>
      <trkpt lat="44.5022" lon="0.80353">
        <ele>106.84</ele>
        <time>2015-05-10T07:46:01Z</time>
      </trkpt>
      <trkpt lat="44.5021" lon="0.80346">
        <ele>105.88</ele>
        <time>2015-05-10T07:46:02Z</time>
      </trkpt>
      <trkpt lat="44.5013" lon="0.8032">
        <ele>98.67</ele>
        <time>2015-05-10T07:46:11Z</time>
      </trkpt>
      <trkpt lat="44.50105" lon="0.80319">
        <ele>98.67</ele>
        <time>2015-05-10T07:46:15Z</time>
      </trkpt>
      <trkpt lat="44.50088" lon="0.80319">
        <ele>99.15</ele>
        <time>2015-05-10T07:46:18Z</time>
      </trkpt>
      <trkpt lat="44.50082" lon="0.80319">
        <ele>99.15</ele>
        <time>2015-05-10T07:46:19Z</time>
      </trkpt>
      <trkpt lat="44.50029" lon="0.80317">
        <ele>100.6</ele>
        <time>2015-05-10T07:46:29Z</time>
      </trkpt>
      <trkpt lat="44.50024" lon="0.80315">
        <ele>100.6</ele>
        <time>2015-05-10T07:46:30Z</time>
      </trkpt>
      <trkpt lat="44.50015" lon="0.80308">
        <ele>101.08</ele>
        <time>2015-05-10T07:46:32Z</time>
      </trkpt>
      <trkpt lat="44.50011" lon="0.80304">
        <ele>101.56</ele>
        <time>2015-05-10T07:46:33Z</time>
      </trkpt>
      <trkpt lat="44.50007" lon="0.803">
        <ele>102.04</ele>
        <time>2015-05-10T07:46:34Z</time>
      </trkpt>
      <trkpt lat="44.49983" lon="0.80268">
        <ele>103.96</ele>
        <time>2015-05-10T07:46:41Z</time>
      </trkpt>
      <trkpt lat="44.4992" lon="0.80204">
        <ele>104.44</ele>
        <time>2015-05-10T07:46:57Z</time>
      </trkpt>
      <trkpt lat="44.49849" lon="0.80158">
        <ele>107.32</ele>
        <time>2015-05-10T07:47:13Z</time>
      </trkpt>
      <trkpt lat="44.49841" lon="0.80153">
        <ele>107.32</ele>
        <time>2015-05-10T07:47:15Z</time>
      </trkpt>
      <trkpt lat="44.49836" lon="0.80151">
        <ele>106.84</ele>
        <time>2015-05-10T07:47:16Z</time>
      </trkpt>
      <trkpt lat="44.49824" lon="0.80149">
        <ele>106.36</ele>
        <time>2015-05-10T07:47:19Z</time>
      </trkpt>
      <trkpt lat="44.49813" lon="0.80166">
        <ele>105.4</ele>
        <time>2015-05-10T07:47:23Z</time>
      </trkpt>
      <trkpt lat="44.49803" lon="0.80183">
        <ele>104.92</ele>
        <time>2015-05-10T07:47:27Z</time>
      </trkpt>
      <trkpt lat="44.49785" lon="0.80228">
        <ele>103.96</ele>
        <time>2015-05-10T07:47:35Z</time>
      </trkpt>
      <trkpt lat="44.49777" lon="0.80247">
        <ele>102.52</ele>
        <time>2015-05-10T07:47:39Z</time>
      </trkpt>
      <trkpt lat="44.4975" lon="0.80271">
        <ele>100.6</ele>
        <time>2015-05-10T07:47:47Z</time>
      </trkpt>
      <trkpt lat="44.49704" lon="0.80311">
        <ele>104.44</ele>
        <time>2015-05-10T07:48:00Z</time>
      </trkpt>
      <trkpt lat="44.49694" lon="0.80316">
        <ele>104.92</ele>
        <time>2015-05-10T07:48:02Z</time>
      </trkpt>
      <trkpt lat="44.4967" lon="0.80324">
        <ele>106.84</ele>
        <time>2015-05-10T07:48:07Z</time>
      </trkpt>
      <trkpt lat="44.49638" lon="0.80321">
        <ele>108.77</ele>
        <time>2015-05-10T07:48:13Z</time>
      </trkpt>
      <trkpt lat="44.4958" lon="0.80331">
        <ele>108.77</ele>
        <time>2015-05-10T07:48:27Z</time>
      </trkpt>
      <trkpt lat="44.49556" lon="0.80334">
        <ele>108.29</ele>
        <time>2015-05-10T07:48:32Z</time>
      </trkpt>
      <trkpt lat="44.4954" lon="0.80336">
        <ele>108.77</ele>
        <time>2015-05-10T07:48:35Z</time>
      </trkpt>
      <trkpt lat="44.4951" lon="0.80349">
        <ele>108.77</ele>
        <time>2015-05-10T07:48:41Z</time>
      </trkpt>
      <trkpt lat="44.49469" lon="0.80364">
        <ele>109.25</ele>
        <time>2015-05-10T07:48:49Z</time>
      </trkpt>
      <trkpt lat="44.49449" lon="0.80375">
        <ele>109.73</ele>
        <time>2015-05-10T07:48:53Z</time>
      </trkpt>
      <trkpt lat="44.49411" lon="0.80412">
        <ele>111.17</ele>
        <time>2015-05-10T07:49:04Z</time>
      </trkpt>
      <trkpt lat="44.49382" lon="0.8044">
        <ele>109.73</ele>
        <time>2015-05-10T07:49:12Z</time>
      </trkpt>
      <trkpt lat="44.49348" lon="0.80508">
        <ele>109.25</ele>
        <time>2015-05-10T07:49:26Z</time>
      </trkpt>
      <trkpt lat="44.49338" lon="0.80556">
        <ele>110.69</ele>
        <time>2015-05-10T07:49:37Z</time>
      </trkpt>
      <trkpt lat="44.49337" lon="0.80561">
        <ele>110.69</ele>
        <time>2015-05-10T07:49:38Z</time>
      </trkpt>
      <trkpt lat="44.4932" lon="0.80596">
        <ele>110.21</ele>
        <time>2015-05-10T07:49:43Z</time>
      </trkpt>
      <trkpt lat="44.49304" lon="0.80606">
        <ele>109.73</ele>
        <time>2015-05-10T07:49:47Z</time>
      </trkpt>
      <trkpt lat="44.49253" lon="0.80577">
        <ele>108.77</ele>
        <time>2015-05-10T07:49:57Z</time>
      </trkpt>
      <trkpt lat="44.4923" lon="0.80534">
        <ele>106.36</ele>
        <time>2015-05-10T07:50:02Z</time>
      </trkpt>
      <trkpt lat="44.49212" lon="0.80475">
        <ele>102.52</ele>
        <time>2015-05-10T07:50:08Z</time>
      </trkpt>
      <trkpt lat="44.49182" lon="0.80425">
        <ele>95.79</ele>
        <time>2015-05-10T07:50:18Z</time>
      </trkpt>
      <trkpt lat="44.49152" lon="0.80426">
        <ele>91.46</ele>
        <time>2015-05-10T07:50:28Z</time>
      </trkpt>
      <trkpt lat="44.49131" lon="0.8043">
        <ele>88.58</ele>
        <time>2015-05-10T07:50:37Z</time>
      </trkpt>
      <trkpt lat="44.49108" lon="0.80429">
        <ele>86.18</ele>
        <time>2015-05-10T07:50:48Z</time>
      </trkpt>
      <trkpt lat="44.49103" lon="0.80444">
        <ele>86.66</ele>
        <time>2015-05-10T07:50:53Z</time>
      </trkpt>
      <trkpt lat="44.49107" lon="0.80496">
        <ele>86.18</ele>
        <time>2015-05-10T07:51:04Z</time>
      </trkpt>
      <trkpt lat="44.49107" lon="0.80542">
        <ele>87.62</ele>
        <time>2015-05-10T07:51:15Z</time>
      </trkpt>
      <trkpt lat="44.49102" lon="0.80586">
        <ele>90.98</ele>
        <time>2015-05-10T07:51:26Z</time>
      </trkpt>
      <trkpt lat="44.49092" lon="0.80627">
        <ele>93.87</ele>
        <time>2015-05-10T07:51:36Z</time>
      </trkpt>
      <trkpt lat="44.49084" lon="0.80682">
        <ele>92.42</ele>
        <time>2015-05-10T07:51:47Z</time>
      </trkpt>
      <trkpt lat="44.49068" lon="0.80718">
        <ele>90.5</ele>
        <time>2015-05-10T07:51:58Z</time>
      </trkpt>
      <trkpt lat="44.49044" lon="0.80726">
        <ele>92.42</ele>
        <time>2015-05-10T07:52:08Z</time>
      </trkpt>
      <trkpt lat="44.4902" lon="0.8074">
        <ele>93.87</ele>
        <time>2015-05-10T07:52:19Z</time>
      </trkpt>
      <trkpt lat="44.49014" lon="0.80747">
        <ele>94.35</ele>
        <time>2015-05-10T07:52:22Z</time>
      </trkpt>
      <trkpt lat="44.49005" lon="0.8076">
        <ele>95.31</ele>
        <time>2015-05-10T07:52:27Z</time>
      </trkpt>
      <trkpt lat="44.48989" lon="0.80792">
        <ele>96.75</ele>
        <time>2015-05-10T07:52:40Z</time>
      </trkpt>
      <trkpt lat="44.48988" lon="0.80793">
        <ele>96.75</ele>
        <time>2015-05-10T07:52:42Z</time>
      </trkpt>
      <trkpt lat="44.48979" lon="0.8079">
        <ele>98.67</ele>
        <time>2015-05-10T07:52:52Z</time>
      </trkpt>
      <trkpt lat="44.48974" lon="0.80787">
        <ele>99.15</ele>
        <time>2015-05-10T07:52:56Z</time>
      </trkpt>
      <trkpt lat="44.4897" lon="0.80787">
        <ele>99.63</ele>
        <time>2015-05-10T07:53:00Z</time>
      </trkpt>
      <trkpt lat="44.48957" lon="0.8079">
        <ele>101.08</ele>
        <time>2015-05-10T07:53:07Z</time>
      </trkpt>
      <trkpt lat="44.48944" lon="0.80802">
        <ele>101.08</ele>
        <time>2015-05-10T07:53:14Z</time>
      </trkpt>
      <trkpt lat="44.48925" lon="0.80829">
        <ele>101.08</ele>
        <time>2015-05-10T07:53:28Z</time>
      </trkpt>
      <trkpt lat="44.48922" lon="0.80833">
        <ele>100.6</ele>
        <time>2015-05-10T07:53:30Z</time>
      </trkpt>
      <trkpt lat="44.48915" lon="0.80841">
        <ele>99.63</ele>
        <time>2015-05-10T07:53:34Z</time>
      </trkpt>
      <trkpt lat="44.489" lon="0.80865">
        <ele>97.71</ele>
        <time>2015-05-10T07:53:44Z</time>
      </trkpt>
      <trkpt lat="44.48889" lon="0.80907">
        <ele>97.23</ele>
        <time>2015-05-10T07:53:54Z</time>
      </trkpt>
      <trkpt lat="44.48889" lon="0.80911">
        <ele>97.23</ele>
        <time>2015-05-10T07:53:55Z</time>
      </trkpt>
      <trkpt lat="44.48884" lon="0.80934">
        <ele>97.71</ele>
        <time>2015-05-10T07:54:02Z</time>
      </trkpt>
      <trkpt lat="44.48868" lon="0.80959">
        <ele>101.56</ele>
        <time>2015-05-10T07:54:14Z</time>
      </trkpt>
      <trkpt lat="44.48865" lon="0.80967">
        <ele>103.96</ele>
        <time>2015-05-10T07:54:18Z</time>
      </trkpt>
      <trkpt lat="44.48857" lon="0.8101">
        <ele>110.21</ele>
        <time>2015-05-10T07:54:33Z</time>
      </trkpt>
      <trkpt lat="44.48852" lon="0.81028">
        <ele>110.69</ele>
        <time>2015-05-10T07:54:38Z</time>
      </trkpt>
      <trkpt lat="44.48817" lon="0.81067">
        <ele>110.21</ele>
        <time>2015-05-10T07:54:51Z</time>
      </trkpt>
      <trkpt lat="44.48761" lon="0.81062">
        <ele>109.25</ele>
        <time>2015-05-10T07:55:06Z</time>
      </trkpt>
      <trkpt lat="44.48758" lon="0.8106">
        <ele>109.25</ele>
        <time>2015-05-10T07:55:07Z</time>
      </trkpt>
      <trkpt lat="44.48757" lon="0.81055">
        <ele>109.25</ele>
        <time>2015-05-10T07:55:08Z</time>
      </trkpt>
      <trkpt lat="44.48756" lon="0.8105">
        <ele>109.25</ele>
        <time>2015-05-10T07:55:09Z</time>
      </trkpt>
      <trkpt lat="44.48756" lon="0.81044">
        <ele>109.25</ele>
        <time>2015-05-10T07:55:10Z</time>
      </trkpt>
      <trkpt lat="44.48754" lon="0.81025">
        <ele>108.77</ele>
        <time>2015-05-10T07:55:13Z</time>
      </trkpt>
      <trkpt lat="44.48754" lon="0.81018">
        <ele>108.29</ele>
        <time>2015-05-10T07:55:14Z</time>
      </trkpt>
      <trkpt lat="44.48753" lon="0.81011">
        <ele>108.29</ele>
        <time>2015-05-10T07:55:15Z</time>
      </trkpt>
      <trkpt lat="44.48744" lon="0.80918">
        <ele>107.81</ele>
        <time>2015-05-10T07:55:28Z</time>
      </trkpt>
      <trkpt lat="44.48744" lon="0.80852">
        <ele>106.84</ele>
        <time>2015-05-10T07:55:37Z</time>
      </trkpt>
      <trkpt lat="44.48745" lon="0.80844">
        <ele>106.84</ele>
        <time>2015-05-10T07:55:38Z</time>
      </trkpt>
      <trkpt lat="44.48746" lon="0.80837">
        <ele>106.36</ele>
        <time>2015-05-10T07:55:39Z</time>
      </trkpt>
      <trkpt lat="44.4875" lon="0.80801">
        <ele>106.36</ele>
        <time>2015-05-10T07:55:44Z</time>
      </trkpt>
      <trkpt lat="44.48753" lon="0.80788">
        <ele>105.88</ele>
        <time>2015-05-10T07:55:46Z</time>
      </trkpt>
      <trkpt lat="44.48753" lon="0.80781">
        <ele>106.36</ele>
        <time>2015-05-10T07:55:47Z</time>
      </trkpt>
      <trkpt lat="44.48752" lon="0.80766">
        <ele>106.36</ele>
        <time>2015-05-10T07:55:49Z</time>
      </trkpt>
      <trkpt lat="44.48736" lon="0.80752">
        <ele>105.88</ele>
        <time>2015-05-10T07:55:53Z</time>
      </trkpt>
      <trkpt lat="44.48642" lon="0.80719">
        <ele>98.67</ele>
        <time>2015-05-10T07:56:09Z</time>
      </trkpt>
      <trkpt lat="44.48553" lon="0.80685">
        <ele>90.5</ele>
        <time>2015-05-10T07:56:21Z</time>
      </trkpt>
      <trkpt lat="44.4854" lon="0.80682">
        <ele>89.54</ele>
        <time>2015-05-10T07:56:23Z</time>
      </trkpt>
      <trkpt lat="44.48503" lon="0.80695">
        <ele>87.14</ele>
        <time>2015-05-10T07:56:29Z</time>
      </trkpt>
      <trkpt lat="44.48478" lon="0.80696">
        <ele>84.25</ele>
        <time>2015-05-10T07:56:33Z</time>
      </trkpt>
      <trkpt lat="44.48444" lon="0.80685">
        <ele>79.93</ele>
        <time>2015-05-10T07:56:42Z</time>
      </trkpt>
      <trkpt lat="44.4843" lon="0.80686">
        <ele>80.89</ele>
        <time>2015-05-10T07:56:50Z</time>
      </trkpt>
      <trkpt lat="44.48399" lon="0.80682">
        <ele>82.81</ele>
        <time>2015-05-10T07:57:01Z</time>
      </trkpt>
      <trkpt lat="44.48338" lon="0.80668">
        <ele>82.33</ele>
        <time>2015-05-10T07:57:20Z</time>
      </trkpt>
      <trkpt lat="44.48298" lon="0.80667">
        <ele>85.21</ele>
        <time>2015-05-10T07:57:34Z</time>
      </trkpt>
      <trkpt lat="44.48266" lon="0.80665">
        <ele>90.98</ele>
        <time>2015-05-10T07:57:50Z</time>
      </trkpt>
      <trkpt lat="44.48242" lon="0.80663">
        <ele>95.31</ele>
        <time>2015-05-10T07:58:02Z</time>
      </trkpt>
      <trkpt lat="44.48213" lon="0.80663">
        <ele>98.67</ele>
        <time>2015-05-10T07:58:17Z</time>
      </trkpt>
      <trkpt lat="44.48185" lon="0.80664">
        <ele>100.6</ele>
        <time>2015-05-10T07:58:29Z</time>
      </trkpt>
      <trkpt lat="44.48148" lon="0.80653">
        <ele>100.11</ele>
        <time>2015-05-10T07:58:39Z</time>
      </trkpt>
      <trkpt lat="44.48144" lon="0.80652">
        <ele>99.63</ele>
        <time>2015-05-10T07:58:40Z</time>
      </trkpt>
      <trkpt lat="44.48066" lon="0.80632">
        <ele>100.6</ele>
        <time>2015-05-10T07:59:00Z</time>
      </trkpt>
      <trkpt lat="44.47989" lon="0.80613">
        <ele>101.08</ele>
        <time>2015-05-10T07:59:20Z</time>
      </trkpt>
      <trkpt lat="44.47917" lon="0.80599">
        <ele>103.96</ele>
        <time>2015-05-10T07:59:40Z</time>
      </trkpt>
      <trkpt lat="44.47861" lon="0.80578">
        <ele>107.32</ele>
        <time>2015-05-10T07:59:56Z</time>
      </trkpt>
      <trkpt lat="44.47804" lon="0.80541">
        <ele>110.21</ele>
        <time>2015-05-10T08:00:13Z</time>
      </trkpt>
      <trkpt lat="44.47765" lon="0.80508">
        <ele>113.09</ele>
        <time>2015-05-10T08:00:27Z</time>
      </trkpt>
      <trkpt lat="44.47755" lon="0.80417">
        <ele>116.46</ele>
        <time>2015-05-10T08:00:45Z</time>
      </trkpt>
      <trkpt lat="44.47735" lon="0.80371">
        <ele>119.34</ele>
        <time>2015-05-10T08:00:58Z</time>
      </trkpt>
      <trkpt lat="44.47728" lon="0.80371">
        <ele>119.82</ele>
        <time>2015-05-10T08:01:00Z</time>
      </trkpt>
      <trkpt lat="44.47695" lon="0.80373">
        <ele>121.26</ele>
        <time>2015-05-10T08:01:11Z</time>
      </trkpt>
      <trkpt lat="44.47661" lon="0.80369">
        <ele>119.82</ele>
        <time>2015-05-10T08:01:21Z</time>
      </trkpt>
      <trkpt lat="44.47584" lon="0.80327">
        <ele>115.98</ele>
        <time>2015-05-10T08:01:38Z</time>
      </trkpt>
      <trkpt lat="44.47549" lon="0.80307">
        <ele>115.5</ele>
        <time>2015-05-10T08:01:45Z</time>
      </trkpt>
      <trkpt lat="44.47522" lon="0.80263">
        <ele>117.42</ele>
        <time>2015-05-10T08:01:54Z</time>
      </trkpt>
      <trkpt lat="44.47513" lon="0.80247">
        <ele>117.42</ele>
        <time>2015-05-10T08:01:57Z</time>
      </trkpt>
      <trkpt lat="44.47458" lon="0.80164">
        <ele>117.42</ele>
        <time>2015-05-10T08:02:13Z</time>
      </trkpt>
      <trkpt lat="44.47451" lon="0.80153">
        <ele>116.94</ele>
        <time>2015-05-10T08:02:15Z</time>
      </trkpt>
      <trkpt lat="44.47444" lon="0.80142">
        <ele>116.94</ele>
        <time>2015-05-10T08:02:17Z</time>
      </trkpt>
      <trkpt lat="44.47402" lon="0.80091">
        <ele>118.38</ele>
        <time>2015-05-10T08:02:30Z</time>
      </trkpt>
      <trkpt lat="44.47403" lon="0.80072">
        <ele>119.34</ele>
        <time>2015-05-10T08:02:34Z</time>
      </trkpt>
      <trkpt lat="44.47404" lon="0.80058">
        <ele>120.3</ele>
        <time>2015-05-10T08:02:37Z</time>
      </trkpt>
      <trkpt lat="44.47361" lon="0.80022">
        <ele>122.71</ele>
        <time>2015-05-10T08:02:53Z</time>
      </trkpt>
      <trkpt lat="44.47329" lon="0.79993">
        <ele>125.59</ele>
        <time>2015-05-10T08:03:07Z</time>
      </trkpt>
      <trkpt lat="44.47285" lon="0.79955">
        <ele>127.99</ele>
        <time>2015-05-10T08:03:26Z</time>
      </trkpt>
      <trkpt lat="44.47272" lon="0.79944">
        <ele>128.47</ele>
        <time>2015-05-10T08:03:32Z</time>
      </trkpt>
      <trkpt lat="44.47282" lon="0.79924">
        <ele>127.03</ele>
        <time>2015-05-10T08:03:38Z</time>
      </trkpt>
      <trkpt lat="44.47344" lon="0.7986">
        <ele>118.86</ele>
        <time>2015-05-10T08:03:51Z</time>
      </trkpt>
      <trkpt lat="44.47348" lon="0.79856">
        <ele>118.86</ele>
        <time>2015-05-10T08:03:52Z</time>
      </trkpt>
      <trkpt lat="44.47351" lon="0.79852">
        <ele>118.86</ele>
        <time>2015-05-10T08:03:53Z</time>
      </trkpt>
      <trkpt lat="44.47352" lon="0.79848">
        <ele>118.38</ele>
        <time>2015-05-10T08:03:54Z</time>
      </trkpt>
      <trkpt lat="44.47352" lon="0.79844">
        <ele>118.38</ele>
        <time>2015-05-10T08:03:55Z</time>
      </trkpt>
      <trkpt lat="44.47349" lon="0.79842">
        <ele>118.38</ele>
        <time>2015-05-10T08:03:56Z</time>
      </trkpt>
      <trkpt lat="44.47346" lon="0.79842">
        <ele>118.38</ele>
        <time>2015-05-10T08:03:57Z</time>
      </trkpt>
      <trkpt lat="44.47343" lon="0.79843">
        <ele>118.38</ele>
        <time>2015-05-10T08:03:58Z</time>
      </trkpt>
      <trkpt lat="44.47339" lon="0.79844">
        <ele>118.86</ele>
        <time>2015-05-10T08:03:59Z</time>
      </trkpt>
      <trkpt lat="44.47335" lon="0.79845">
        <ele>118.86</ele>
        <time>2015-05-10T08:04:00Z</time>
      </trkpt>
      <trkpt lat="44.47331" lon="0.79846">
        <ele>118.86</ele>
        <time>2015-05-10T08:04:01Z</time>
      </trkpt>
      <trkpt lat="44.47327" lon="0.79847">
        <ele>119.34</ele>
        <time>2015-05-10T08:04:02Z</time>
      </trkpt>
      <trkpt lat="44.47323" lon="0.79847">
        <ele>119.34</ele>
        <time>2015-05-10T08:04:03Z</time>
      </trkpt>
      <trkpt lat="44.47302" lon="0.79848">
        <ele>120.3</ele>
        <time>2015-05-10T08:04:08Z</time>
      </trkpt>
      <trkpt lat="44.47238" lon="0.79842">
        <ele>123.19</ele>
        <time>2015-05-10T08:04:24Z</time>
      </trkpt>
      <trkpt lat="44.47197" lon="0.79841">
        <ele>125.11</ele>
        <time>2015-05-10T08:04:34Z</time>
      </trkpt>
      <trkpt lat="44.47146" lon="0.79857">
        <ele>127.99</ele>
        <time>2015-05-10T08:04:48Z</time>
      </trkpt>
      <trkpt lat="44.47143" lon="0.79857">
        <ele>127.99</ele>
        <time>2015-05-10T08:04:49Z</time>
      </trkpt>
      <trkpt lat="44.47141" lon="0.79856">
        <ele>127.99</ele>
        <time>2015-05-10T08:04:50Z</time>
      </trkpt>
      <trkpt lat="44.47139" lon="0.79854">
        <ele>127.99</ele>
        <time>2015-05-10T08:04:51Z</time>
      </trkpt>
      <trkpt lat="44.47136" lon="0.79852">
        <ele>127.99</ele>
        <time>2015-05-10T08:04:52Z</time>
      </trkpt>
      <trkpt lat="44.47097" lon="0.79811">
        <ele>128.47</ele>
        <time>2015-05-10T08:05:05Z</time>
      </trkpt>
      <trkpt lat="44.47081" lon="0.79789">
        <ele>131.84</ele>
        <time>2015-05-10T08:05:12Z</time>
      </trkpt>
      <trkpt lat="44.4709" lon="0.79763">
        <ele>132.8</ele>
        <time>2015-05-10T08:05:21Z</time>
      </trkpt>
      <trkpt lat="44.4709" lon="0.79761">
        <ele>132.8</ele>
        <time>2015-05-10T08:05:22Z</time>
      </trkpt>
      <trkpt lat="44.47082" lon="0.79747">
        <ele>138.57</ele>
        <time>2015-05-10T08:05:29Z</time>
      </trkpt>
      <trkpt lat="44.47079" lon="0.7973">
        <ele>145.78</ele>
        <time>2015-05-10T08:05:36Z</time>
      </trkpt>
      <trkpt lat="44.47056" lon="0.79704">
        <ele>156.35</ele>
        <time>2015-05-10T08:05:48Z</time>
      </trkpt>
      <trkpt lat="44.47049" lon="0.79697">
        <ele>158.27</ele>
        <time>2015-05-10T08:05:51Z</time>
      </trkpt>
      <trkpt lat="44.47036" lon="0.79686">
        <ele>161.64</ele>
        <time>2015-05-10T08:05:58Z</time>
      </trkpt>
      <trkpt lat="44.4703" lon="0.79671">
        <ele>165</ele>
        <time>2015-05-10T08:06:05Z</time>
      </trkpt>
      <trkpt lat="44.47006" lon="0.79644">
        <ele>165.48</ele>
        <time>2015-05-10T08:06:17Z</time>
      </trkpt>
      <trkpt lat="44.46985" lon="0.79623">
        <ele>164.52</ele>
        <time>2015-05-10T08:06:27Z</time>
      </trkpt>
      <trkpt lat="44.46955" lon="0.79593">
        <ele>157.79</ele>
        <time>2015-05-10T08:06:40Z</time>
      </trkpt>
      <trkpt lat="44.46949" lon="0.79586">
        <ele>153.95</ele>
        <time>2015-05-10T08:06:43Z</time>
      </trkpt>
      <trkpt lat="44.46943" lon="0.79581">
        <ele>153.47</ele>
        <time>2015-05-10T08:06:46Z</time>
      </trkpt>
      <trkpt lat="44.46944" lon="0.79572">
        <ele>152.99</ele>
        <time>2015-05-10T08:06:50Z</time>
      </trkpt>
      <trkpt lat="44.46965" lon="0.79554">
        <ele>147.22</ele>
        <time>2015-05-10T08:07:01Z</time>
      </trkpt>
      <trkpt lat="44.47001" lon="0.79536">
        <ele>145.3</ele>
        <time>2015-05-10T08:07:14Z</time>
      </trkpt>
      <trkpt lat="44.47031" lon="0.79513">
        <ele>144.82</ele>
        <time>2015-05-10T08:07:25Z</time>
      </trkpt>
      <trkpt lat="44.47064" lon="0.79461">
        <ele>147.22</ele>
        <time>2015-05-10T08:07:39Z</time>
      </trkpt>
      <trkpt lat="44.47091" lon="0.79413">
        <ele>146.26</ele>
        <time>2015-05-10T08:07:50Z</time>
      </trkpt>
      <trkpt lat="44.47102" lon="0.79398">
        <ele>145.3</ele>
        <time>2015-05-10T08:07:53Z</time>
      </trkpt>
      <trkpt lat="44.47172" lon="0.79294">
        <ele>142.41</ele>
        <time>2015-05-10T08:08:09Z</time>
      </trkpt>
      <trkpt lat="44.47184" lon="0.79276">
        <ele>142.41</ele>
        <time>2015-05-10T08:08:12Z</time>
      </trkpt>
      <trkpt lat="44.47188" lon="0.7927">
        <ele>141.93</ele>
        <time>2015-05-10T08:08:13Z</time>
      </trkpt>
      <trkpt lat="44.47212" lon="0.79232">
        <ele>141.93</ele>
        <time>2015-05-10T08:08:19Z</time>
      </trkpt>
      <trkpt lat="44.47282" lon="0.7912">
        <ele>145.3</ele>
        <time>2015-05-10T08:08:38Z</time>
      </trkpt>
      <trkpt lat="44.47347" lon="0.7902">
        <ele>145.3</ele>
        <time>2015-05-10T08:08:56Z</time>
      </trkpt>
      <trkpt lat="44.4741" lon="0.78944">
        <ele>145.78</ele>
        <time>2015-05-10T08:09:12Z</time>
      </trkpt>
      <trkpt lat="44.47448" lon="0.78876">
        <ele>143.85</ele>
        <time>2015-05-10T08:09:22Z</time>
      </trkpt>
      <trkpt lat="44.47453" lon="0.7886">
        <ele>143.37</ele>
        <time>2015-05-10T08:09:24Z</time>
      </trkpt>
      <trkpt lat="44.47468" lon="0.78745">
        <ele>141.93</ele>
        <time>2015-05-10T08:09:36Z</time>
      </trkpt>
      <trkpt lat="44.47482" lon="0.7861">
        <ele>135.2</ele>
        <time>2015-05-10T08:09:47Z</time>
      </trkpt>
      <trkpt lat="44.47495" lon="0.78523">
        <ele>130.88</ele>
        <time>2015-05-10T08:09:53Z</time>
      </trkpt>
      <trkpt lat="44.475" lon="0.7851">
        <ele>130.4</ele>
        <time>2015-05-10T08:09:54Z</time>
      </trkpt>
      <trkpt lat="44.47506" lon="0.78497">
        <ele>129.92</ele>
        <time>2015-05-10T08:09:55Z</time>
      </trkpt>
      <trkpt lat="44.47585" lon="0.78406">
        <ele>124.15</ele>
        <time>2015-05-10T08:10:05Z</time>
      </trkpt>
      <trkpt lat="44.47658" lon="0.78339">
        <ele>121.26</ele>
        <time>2015-05-10T08:10:14Z</time>
      </trkpt>
      <trkpt lat="44.47666" lon="0.78333">
        <ele>120.78</ele>
        <time>2015-05-10T08:10:15Z</time>
      </trkpt>
      <trkpt lat="44.47675" lon="0.78329">
        <ele>120.3</ele>
        <time>2015-05-10T08:10:16Z</time>
      </trkpt>
      <trkpt lat="44.47692" lon="0.7832">
        <ele>119.34</ele>
        <time>2015-05-10T08:10:18Z</time>
      </trkpt>
      <trkpt lat="44.47698" lon="0.78315">
        <ele>119.34</ele>
        <time>2015-05-10T08:10:19Z</time>
      </trkpt>
      <trkpt lat="44.47703" lon="0.78308">
        <ele>119.34</ele>
        <time>2015-05-10T08:10:20Z</time>
      </trkpt>
      <trkpt lat="44.47707" lon="0.78299">
        <ele>118.86</ele>
        <time>2015-05-10T08:10:21Z</time>
      </trkpt>
      <trkpt lat="44.47708" lon="0.78289">
        <ele>118.38</ele>
        <time>2015-05-10T08:10:22Z</time>
      </trkpt>
      <trkpt lat="44.47709" lon="0.78279">
        <ele>117.9</ele>
        <time>2015-05-10T08:10:23Z</time>
      </trkpt>
      <trkpt lat="44.4771" lon="0.78269">
        <ele>117.9</ele>
        <time>2015-05-10T08:10:24Z</time>
      </trkpt>
      <trkpt lat="44.47712" lon="0.7826">
        <ele>117.9</ele>
        <time>2015-05-10T08:10:25Z</time>
      </trkpt>
      <trkpt lat="44.47715" lon="0.78253">
        <ele>117.42</ele>
        <time>2015-05-10T08:10:26Z</time>
      </trkpt>
      <trkpt lat="44.47721" lon="0.78226">
        <ele>115.98</ele>
        <time>2015-05-10T08:10:30Z</time>
      </trkpt>
      <trkpt lat="44.47734" lon="0.78176">
        <ele>111.65</ele>
        <time>2015-05-10T08:10:41Z</time>
      </trkpt>
      <trkpt lat="44.47747" lon="0.78114">
        <ele>110.69</ele>
        <time>2015-05-10T08:10:53Z</time>
      </trkpt>
      <trkpt lat="44.47749" lon="0.78103">
        <ele>110.69</ele>
        <time>2015-05-10T08:10:55Z</time>
      </trkpt>
      <trkpt lat="44.4776" lon="0.78044">
        <ele>108.77</ele>
        <time>2015-05-10T08:11:07Z</time>
      </trkpt>
      <trkpt lat="44.47762" lon="0.78024">
        <ele>107.81</ele>
        <time>2015-05-10T08:11:12Z</time>
      </trkpt>
      <trkpt lat="44.47763" lon="0.78013">
        <ele>107.32</ele>
        <time>2015-05-10T08:11:14Z</time>
      </trkpt>
      <trkpt lat="44.47767" lon="0.77981">
        <ele>106.36</ele>
        <time>2015-05-10T08:11:19Z</time>
      </trkpt>
      <trkpt lat="44.47776" lon="0.77938">
        <ele>105.88</ele>
        <time>2015-05-10T08:11:27Z</time>
      </trkpt>
      <trkpt lat="44.47778" lon="0.77935">
        <ele>105.4</ele>
        <time>2015-05-10T08:11:28Z</time>
      </trkpt>
      <trkpt lat="44.47781" lon="0.77931">
        <ele>105.4</ele>
        <time>2015-05-10T08:11:29Z</time>
      </trkpt>
      <trkpt lat="44.47784" lon="0.77927">
        <ele>104.92</ele>
        <time>2015-05-10T08:11:30Z</time>
      </trkpt>
      <trkpt lat="44.47786" lon="0.77922">
        <ele>104.92</ele>
        <time>2015-05-10T08:11:31Z</time>
      </trkpt>
      <trkpt lat="44.47789" lon="0.77917">
        <ele>104.44</ele>
        <time>2015-05-10T08:11:32Z</time>
      </trkpt>
      <trkpt lat="44.47791" lon="0.77912">
        <ele>104.44</ele>
        <time>2015-05-10T08:11:33Z</time>
      </trkpt>
      <trkpt lat="44.47793" lon="0.77906">
        <ele>103.96</ele>
        <time>2015-05-10T08:11:34Z</time>
      </trkpt>
      <trkpt lat="44.47804" lon="0.77871">
        <ele>101.56</ele>
        <time>2015-05-10T08:11:40Z</time>
      </trkpt>
      <trkpt lat="44.47816" lon="0.77826">
        <ele>100.6</ele>
        <time>2015-05-10T08:11:47Z</time>
      </trkpt>
      <trkpt lat="44.47828" lon="0.77797">
        <ele>99.15</ele>
        <time>2015-05-10T08:11:52Z</time>
      </trkpt>
      <trkpt lat="44.47841" lon="0.77772">
        <ele>97.71</ele>
        <time>2015-05-10T08:11:57Z</time>
      </trkpt>
      <trkpt lat="44.47876" lon="0.77691">
        <ele>96.27</ele>
        <time>2015-05-10T08:12:12Z</time>
      </trkpt>
      <trkpt lat="44.47913" lon="0.77613">
        <ele>94.83</ele>
        <time>2015-05-10T08:12:26Z</time>
      </trkpt>
      <trkpt lat="44.47955" lon="0.77522">
        <ele>94.35</ele>
        <time>2015-05-10T08:12:43Z</time>
      </trkpt>
      <trkpt lat="44.47961" lon="0.77502">
        <ele>94.83</ele>
        <time>2015-05-10T08:12:47Z</time>
      </trkpt>
      <trkpt lat="44.47961" lon="0.77496">
        <ele>94.83</ele>
        <time>2015-05-10T08:12:48Z</time>
      </trkpt>
      <trkpt lat="44.47963" lon="0.77382">
        <ele>94.35</ele>
        <time>2015-05-10T08:13:03Z</time>
      </trkpt>
      <trkpt lat="44.47964" lon="0.77342">
        <ele>95.31</ele>
        <time>2015-05-10T08:13:08Z</time>
      </trkpt>
      <trkpt lat="44.47975" lon="0.77305">
        <ele>95.31</ele>
        <time>2015-05-10T08:13:13Z</time>
      </trkpt>
      <trkpt lat="44.47982" lon="0.77283">
        <ele>95.31</ele>
        <time>2015-05-10T08:13:16Z</time>
      </trkpt>
      <trkpt lat="44.47985" lon="0.77269">
        <ele>95.79</ele>
        <time>2015-05-10T08:13:18Z</time>
      </trkpt>
      <trkpt lat="44.48009" lon="0.7722">
        <ele>93.87</ele>
        <time>2015-05-10T08:13:27Z</time>
      </trkpt>
      <trkpt lat="44.48051" lon="0.77203">
        <ele>88.1</ele>
        <time>2015-05-10T08:13:34Z</time>
      </trkpt>
      <trkpt lat="44.48059" lon="0.77192">
        <ele>87.14</ele>
        <time>2015-05-10T08:13:36Z</time>
      </trkpt>
      <trkpt lat="44.48065" lon="0.77181">
        <ele>87.14</ele>
        <time>2015-05-10T08:13:38Z</time>
      </trkpt>
      <trkpt lat="44.48078" lon="0.77156">
        <ele>87.62</ele>
        <time>2015-05-10T08:13:43Z</time>
      </trkpt>
      <trkpt lat="44.48084" lon="0.77148">
        <ele>88.1</ele>
        <time>2015-05-10T08:13:45Z</time>
      </trkpt>
      <trkpt lat="44.48106" lon="0.77123">
        <ele>86.18</ele>
        <time>2015-05-10T08:13:50Z</time>
      </trkpt>
      <trkpt lat="44.48132" lon="0.77082">
        <ele>89.54</ele>
        <time>2015-05-10T08:13:59Z</time>
      </trkpt>
      <trkpt lat="44.48162" lon="0.7704">
        <ele>90.98</ele>
        <time>2015-05-10T08:14:11Z</time>
      </trkpt>
      <trkpt lat="44.48185" lon="0.76983">
        <ele>88.58</ele>
        <time>2015-05-10T08:14:21Z</time>
      </trkpt>
      <trkpt lat="44.48198" lon="0.76967">
        <ele>87.14</ele>
        <time>2015-05-10T08:14:24Z</time>
      </trkpt>
      <trkpt lat="44.48207" lon="0.7696">
        <ele>85.69</ele>
        <time>2015-05-10T08:14:26Z</time>
      </trkpt>
      <trkpt lat="44.48211" lon="0.7696">
        <ele>85.21</ele>
        <time>2015-05-10T08:14:27Z</time>
      </trkpt>
      <trkpt lat="44.48217" lon="0.76962">
        <ele>84.73</ele>
        <time>2015-05-10T08:14:28Z</time>
      </trkpt>
      <trkpt lat="44.48222" lon="0.76966">
        <ele>83.77</ele>
        <time>2015-05-10T08:14:29Z</time>
      </trkpt>
      <trkpt lat="44.48227" lon="0.7697">
        <ele>83.29</ele>
        <time>2015-05-10T08:14:30Z</time>
      </trkpt>
      <trkpt lat="44.48233" lon="0.76975">
        <ele>82.33</ele>
        <time>2015-05-10T08:14:31Z</time>
      </trkpt>
      <trkpt lat="44.48238" lon="0.76982">
        <ele>81.85</ele>
        <time>2015-05-10T08:14:32Z</time>
      </trkpt>
      <trkpt lat="44.48243" lon="0.7699">
        <ele>80.89</ele>
        <time>2015-05-10T08:14:33Z</time>
      </trkpt>
      <trkpt lat="44.48247" lon="0.76999">
        <ele>80.41</ele>
        <time>2015-05-10T08:14:34Z</time>
      </trkpt>
      <trkpt lat="44.48252" lon="0.77006">
        <ele>79.93</ele>
        <time>2015-05-10T08:14:35Z</time>
      </trkpt>
      <trkpt lat="44.48256" lon="0.77014">
        <ele>79.45</ele>
        <time>2015-05-10T08:14:36Z</time>
      </trkpt>
      <trkpt lat="44.48265" lon="0.77029">
        <ele>78.48</ele>
        <time>2015-05-10T08:14:39Z</time>
      </trkpt>
      <trkpt lat="44.48267" lon="0.77028">
        <ele>78</ele>
        <time>2015-05-10T08:14:40Z</time>
      </trkpt>
      <trkpt lat="44.48269" lon="0.77026">
        <ele>77.52</ele>
        <time>2015-05-10T08:14:41Z</time>
      </trkpt>
      <trkpt lat="44.4827" lon="0.77022">
        <ele>77.52</ele>
        <time>2015-05-10T08:14:42Z</time>
      </trkpt>
      <trkpt lat="44.48272" lon="0.77017">
        <ele>78</ele>
        <time>2015-05-10T08:14:43Z</time>
      </trkpt>
      <trkpt lat="44.48273" lon="0.77011">
        <ele>78</ele>
        <time>2015-05-10T08:14:44Z</time>
      </trkpt>
      <trkpt lat="44.48275" lon="0.77005">
        <ele>78</ele>
        <time>2015-05-10T08:14:45Z</time>
      </trkpt>
      <trkpt lat="44.48286" lon="0.76975">
        <ele>78</ele>
        <time>2015-05-10T08:14:50Z</time>
      </trkpt>
      <trkpt lat="44.48298" lon="0.76979">
        <ele>76.56</ele>
        <time>2015-05-10T08:14:53Z</time>
      </trkpt>
      <trkpt lat="44.48344" lon="0.76998">
        <ele>73.68</ele>
        <time>2015-05-10T08:15:02Z</time>
      </trkpt>
      <trkpt lat="44.48359" lon="0.76988">
        <ele>72.72</ele>
        <time>2015-05-10T08:15:06Z</time>
      </trkpt>
      <trkpt lat="44.48388" lon="0.76936">
        <ele>71.76</ele>
        <time>2015-05-10T08:15:14Z</time>
      </trkpt>
      <trkpt lat="44.48429" lon="0.76911">
        <ele>71.76</ele>
        <time>2015-05-10T08:15:21Z</time>
      </trkpt>
      <trkpt lat="44.48449" lon="0.76907">
        <ele>71.27</ele>
        <time>2015-05-10T08:15:24Z</time>
      </trkpt>
      <trkpt lat="44.4847" lon="0.76883">
        <ele>70.79</ele>
        <time>2015-05-10T08:15:29Z</time>
      </trkpt>
      <trkpt lat="44.48478" lon="0.76844">
        <ele>69.83</ele>
        <time>2015-05-10T08:15:34Z</time>
      </trkpt>
      <trkpt lat="44.48522" lon="0.76742">
        <ele>68.87</ele>
        <time>2015-05-10T08:15:48Z</time>
      </trkpt>
      <trkpt lat="44.48525" lon="0.76712">
        <ele>69.35</ele>
        <time>2015-05-10T08:15:52Z</time>
      </trkpt>
      <trkpt lat="44.48521" lon="0.76688">
        <ele>69.83</ele>
        <time>2015-05-10T08:15:56Z</time>
      </trkpt>
      <trkpt lat="44.48515" lon="0.76643">
        <ele>68.87</ele>
        <time>2015-05-10T08:16:04Z</time>
      </trkpt>
      <trkpt lat="44.48509" lon="0.76582">
        <ele>69.35</ele>
        <time>2015-05-10T08:16:14Z</time>
      </trkpt>
      <trkpt lat="44.48506" lon="0.76552">
        <ele>69.35</ele>
        <time>2015-05-10T08:16:20Z</time>
      </trkpt>
      <trkpt lat="44.48513" lon="0.76524">
        <ele>69.35</ele>
        <time>2015-05-10T08:16:25Z</time>
      </trkpt>
      <trkpt lat="44.48523" lon="0.76489">
        <ele>68.87</ele>
        <time>2015-05-10T08:16:31Z</time>
      </trkpt>
      <trkpt lat="44.48525" lon="0.76477">
        <ele>68.87</ele>
        <time>2015-05-10T08:16:33Z</time>
      </trkpt>
      <trkpt lat="44.48529" lon="0.76447">
        <ele>69.83</ele>
        <time>2015-05-10T08:16:38Z</time>
      </trkpt>
      <trkpt lat="44.48526" lon="0.76411">
        <ele>70.31</ele>
        <time>2015-05-10T08:16:44Z</time>
      </trkpt>
      <trkpt lat="44.48521" lon="0.76393">
        <ele>69.83</ele>
        <time>2015-05-10T08:16:47Z</time>
      </trkpt>
      <trkpt lat="44.48519" lon="0.76352">
        <ele>69.83</ele>
        <time>2015-05-10T08:16:54Z</time>
      </trkpt>
      <trkpt lat="44.4852" lon="0.7632">
        <ele>70.31</ele>
        <time>2015-05-10T08:16:59Z</time>
      </trkpt>
      <trkpt lat="44.48533" lon="0.76258">
        <ele>71.27</ele>
        <time>2015-05-10T08:17:08Z</time>
      </trkpt>
      <trkpt lat="44.48542" lon="0.76236">
        <ele>70.79</ele>
        <time>2015-05-10T08:17:12Z</time>
      </trkpt>
      <trkpt lat="44.48535" lon="0.76213">
        <ele>70.79</ele>
        <time>2015-05-10T08:17:17Z</time>
      </trkpt>
      <trkpt lat="44.48527" lon="0.76207">
        <ele>70.31</ele>
        <time>2015-05-10T08:17:19Z</time>
      </trkpt>
      <trkpt lat="44.48513" lon="0.76199">
        <ele>69.83</ele>
        <time>2015-05-10T08:17:22Z</time>
      </trkpt>
      <trkpt lat="44.48488" lon="0.76165">
        <ele>68.39</ele>
        <time>2015-05-10T08:17:29Z</time>
      </trkpt>
      <trkpt lat="44.48484" lon="0.76141">
        <ele>68.39</ele>
        <time>2015-05-10T08:17:34Z</time>
      </trkpt>
      <trkpt lat="44.48487" lon="0.76139">
        <ele>68.39</ele>
        <time>2015-05-10T08:17:35Z</time>
      </trkpt>
      <trkpt lat="44.4849" lon="0.76138">
        <ele>68.39</ele>
        <time>2015-05-10T08:17:36Z</time>
      </trkpt>
      <trkpt lat="44.48494" lon="0.76138">
        <ele>68.39</ele>
        <time>2015-05-10T08:17:37Z</time>
      </trkpt>
      <trkpt lat="44.48498" lon="0.76137">
        <ele>68.39</ele>
        <time>2015-05-10T08:17:38Z</time>
      </trkpt>
      <trkpt lat="44.48554" lon="0.76119">
        <ele>68.39</ele>
        <time>2015-05-10T08:17:50Z</time>
      </trkpt>
      <trkpt lat="44.48575" lon="0.76083">
        <ele>71.27</ele>
        <time>2015-05-10T08:17:59Z</time>
      </trkpt>
      <trkpt lat="44.4859" lon="0.76051">
        <ele>73.2</ele>
        <time>2015-05-10T08:18:06Z</time>
      </trkpt>
      <trkpt lat="44.48591" lon="0.76045">
        <ele>73.68</ele>
        <time>2015-05-10T08:18:07Z</time>
      </trkpt>
      <trkpt lat="44.48597" lon="0.75959">
        <ele>77.52</ele>
        <time>2015-05-10T08:18:23Z</time>
      </trkpt>
      <trkpt lat="44.48598" lon="0.75942">
        <ele>78</ele>
        <time>2015-05-10T08:18:26Z</time>
      </trkpt>
      <trkpt lat="44.48598" lon="0.75936">
        <ele>78.48</ele>
        <time>2015-05-10T08:18:27Z</time>
      </trkpt>
      <trkpt lat="44.486" lon="0.75899">
        <ele>78.97</ele>
        <time>2015-05-10T08:18:33Z</time>
      </trkpt>
      <trkpt lat="44.48601" lon="0.75804">
        <ele>79.93</ele>
        <time>2015-05-10T08:18:49Z</time>
      </trkpt>
      <trkpt lat="44.48586" lon="0.75719">
        <ele>78</ele>
        <time>2015-05-10T08:19:01Z</time>
      </trkpt>
      <trkpt lat="44.48585" lon="0.7571">
        <ele>78</ele>
        <time>2015-05-10T08:19:02Z</time>
      </trkpt>
      <trkpt lat="44.48586" lon="0.75701">
        <ele>78</ele>
        <time>2015-05-10T08:19:03Z</time>
      </trkpt>
      <trkpt lat="44.48587" lon="0.75693">
        <ele>78</ele>
        <time>2015-05-10T08:19:04Z</time>
      </trkpt>
      <trkpt lat="44.4859" lon="0.75685">
        <ele>78.48</ele>
        <time>2015-05-10T08:19:05Z</time>
      </trkpt>
      <trkpt lat="44.48594" lon="0.75679">
        <ele>78.97</ele>
        <time>2015-05-10T08:19:06Z</time>
      </trkpt>
      <trkpt lat="44.48596" lon="0.75674">
        <ele>78.97</ele>
        <time>2015-05-10T08:19:07Z</time>
      </trkpt>
      <trkpt lat="44.48597" lon="0.75671">
        <ele>78.97</ele>
        <time>2015-05-10T08:19:08Z</time>
      </trkpt>
      <trkpt lat="44.48596" lon="0.75668">
        <ele>78.97</ele>
        <time>2015-05-10T08:19:09Z</time>
      </trkpt>
      <trkpt lat="44.48593" lon="0.75667">
        <ele>78.48</ele>
        <time>2015-05-10T08:19:10Z</time>
      </trkpt>
      <trkpt lat="44.4859" lon="0.75668">
        <ele>78.48</ele>
        <time>2015-05-10T08:19:11Z</time>
      </trkpt>
      <trkpt lat="44.48585" lon="0.7567">
        <ele>78</ele>
        <time>2015-05-10T08:19:12Z</time>
      </trkpt>
      <trkpt lat="44.48579" lon="0.75673">
        <ele>77.52</ele>
        <time>2015-05-10T08:19:13Z</time>
      </trkpt>
      <trkpt lat="44.48573" lon="0.75676">
        <ele>76.56</ele>
        <time>2015-05-10T08:19:14Z</time>
      </trkpt>
      <trkpt lat="44.48522" lon="0.75691">
        <ele>73.68</ele>
        <time>2015-05-10T08:19:22Z</time>
      </trkpt>
      <trkpt lat="44.48519" lon="0.75689">
        <ele>73.68</ele>
        <time>2015-05-10T08:19:23Z</time>
      </trkpt>
      <trkpt lat="44.48517" lon="0.75685">
        <ele>73.68</ele>
        <time>2015-05-10T08:19:24Z</time>
      </trkpt>
      <trkpt lat="44.48516" lon="0.75681">
        <ele>73.68</ele>
        <time>2015-05-10T08:19:25Z</time>
      </trkpt>
      <trkpt lat="44.48516" lon="0.75676">
        <ele>73.68</ele>
        <time>2015-05-10T08:19:26Z</time>
      </trkpt>
      <trkpt lat="44.48509" lon="0.75633">
        <ele>72.24</ele>
        <time>2015-05-10T08:19:33Z</time>
      </trkpt>
      <trkpt lat="44.48501" lon="0.75606">
        <ele>71.76</ele>
        <time>2015-05-10T08:19:37Z</time>
      </trkpt>
      <trkpt lat="44.48491" lon="0.75574">
        <ele>70.79</ele>
        <time>2015-05-10T08:19:42Z</time>
      </trkpt>
      <trkpt lat="44.4849" lon="0.75567">
        <ele>70.79</ele>
        <time>2015-05-10T08:19:43Z</time>
      </trkpt>
      <trkpt lat="44.48487" lon="0.75535">
        <ele>69.83</ele>
        <time>2015-05-10T08:19:48Z</time>
      </trkpt>
      <trkpt lat="44.48479" lon="0.75496">
        <ele>68.39</ele>
        <time>2015-05-10T08:19:54Z</time>
      </trkpt>
      <trkpt lat="44.48475" lon="0.75484">
        <ele>67.91</ele>
        <time>2015-05-10T08:19:56Z</time>
      </trkpt>
      <trkpt lat="44.4847" lon="0.75471">
        <ele>67.43</ele>
        <time>2015-05-10T08:19:58Z</time>
      </trkpt>
      <trkpt lat="44.48466" lon="0.75458">
        <ele>66.95</ele>
        <time>2015-05-10T08:20:00Z</time>
      </trkpt>
      <trkpt lat="44.48454" lon="0.75429">
        <ele>67.43</ele>
        <time>2015-05-10T08:20:05Z</time>
      </trkpt>
      <trkpt lat="44.48446" lon="0.75406">
        <ele>67.43</ele>
        <time>2015-05-10T08:20:09Z</time>
      </trkpt>
      <trkpt lat="44.48424" lon="0.75339">
        <ele>67.43</ele>
        <time>2015-05-10T08:20:22Z</time>
      </trkpt>
      <trkpt lat="44.4841" lon="0.75275">
        <ele>68.39</ele>
        <time>2015-05-10T08:20:34Z</time>
      </trkpt>
      <trkpt lat="44.48413" lon="0.75227">
        <ele>75.12</ele>
        <time>2015-05-10T08:20:48Z</time>
      </trkpt>
      <trkpt lat="44.48414" lon="0.75206">
        <ele>78</ele>
        <time>2015-05-10T08:20:57Z</time>
      </trkpt>
      <trkpt lat="44.48415" lon="0.75183">
        <ele>81.85</ele>
        <time>2015-05-10T08:21:11Z</time>
      </trkpt>
      <trkpt lat="44.48416" lon="0.75173">
        <ele>83.77</ele>
        <time>2015-05-10T08:21:17Z</time>
      </trkpt>
      <trkpt lat="44.48416" lon="0.75169">
        <ele>84.25</ele>
        <time>2015-05-10T08:21:19Z</time>
      </trkpt>
      <trkpt lat="44.48416" lon="0.75166">
        <ele>84.73</ele>
        <time>2015-05-10T08:21:21Z</time>
      </trkpt>
      <trkpt lat="44.48414" lon="0.75156">
        <ele>86.18</ele>
        <time>2015-05-10T08:21:27Z</time>
      </trkpt>
      <trkpt lat="44.48409" lon="0.7513">
        <ele>91.46</ele>
        <time>2015-05-10T08:21:43Z</time>
      </trkpt>
      <trkpt lat="44.48408" lon="0.75103">
        <ele>92.9</ele>
        <time>2015-05-10T08:21:57Z</time>
      </trkpt>
      <trkpt lat="44.48407" lon="0.75069">
        <ele>94.35</ele>
        <time>2015-05-10T08:22:12Z</time>
      </trkpt>
      <trkpt lat="44.48411" lon="0.75032">
        <ele>97.23</ele>
        <time>2015-05-10T08:22:29Z</time>
      </trkpt>
      <trkpt lat="44.48413" lon="0.75007">
        <ele>98.67</ele>
        <time>2015-05-10T08:22:43Z</time>
      </trkpt>
      <trkpt lat="44.48412" lon="0.75008">
        <ele>100.11</ele>
        <time>2015-05-10T08:22:53Z</time>
      </trkpt>
      <trkpt lat="44.48413" lon="0.75008">
        <ele>101.08</ele>
        <time>2015-05-10T08:23:31Z</time>
      </trkpt>
      <trkpt lat="44.48413" lon="0.75008">
        <ele>100.11</ele>
        <time>2015-05-10T08:24:08Z</time>
      </trkpt>
      <trkpt lat="44.48413" lon="0.75008">
        <ele>100.11</ele>
        <time>2015-05-10T08:24:53Z</time>
      </trkpt>
      <trkpt lat="44.48413" lon="0.75008">
        <ele>101.08</ele>
        <time>2015-05-10T08:25:26Z</time>
      </trkpt>
      <trkpt lat="44.48412" lon="0.75008">
        <ele>102.04</ele>
        <time>2015-05-10T08:26:03Z</time>
      </trkpt>
      <trkpt lat="44.48413" lon="0.75006">
        <ele>102.04</ele>
        <time>2015-05-10T08:26:11Z</time>
      </trkpt>
      <trkpt lat="44.4841" lon="0.74992">
        <ele>100.6</ele>
        <time>2015-05-10T08:26:18Z</time>
      </trkpt>
      <trkpt lat="44.48374" lon="0.74962">
        <ele>97.23</ele>
        <time>2015-05-10T08:26:31Z</time>
      </trkpt>
      <trkpt lat="44.48341" lon="0.74935">
        <ele>96.27</ele>
        <time>2015-05-10T08:26:39Z</time>
      </trkpt>
      <trkpt lat="44.48338" lon="0.74931">
        <ele>96.27</ele>
        <time>2015-05-10T08:26:40Z</time>
      </trkpt>
      <trkpt lat="44.48336" lon="0.74925">
        <ele>96.27</ele>
        <time>2015-05-10T08:26:41Z</time>
      </trkpt>
      <trkpt lat="44.48335" lon="0.74919">
        <ele>95.79</ele>
        <time>2015-05-10T08:26:42Z</time>
      </trkpt>
      <trkpt lat="44.48336" lon="0.74912">
        <ele>95.31</ele>
        <time>2015-05-10T08:26:43Z</time>
      </trkpt>
      <trkpt lat="44.48337" lon="0.74906">
        <ele>95.31</ele>
        <time>2015-05-10T08:26:44Z</time>
      </trkpt>
      <trkpt lat="44.4834" lon="0.74899">
        <ele>94.83</ele>
        <time>2015-05-10T08:26:45Z</time>
      </trkpt>
      <trkpt lat="44.48343" lon="0.74893">
        <ele>94.35</ele>
        <time>2015-05-10T08:26:46Z</time>
      </trkpt>
      <trkpt lat="44.48346" lon="0.74886">
        <ele>93.87</ele>
        <time>2015-05-10T08:26:47Z</time>
      </trkpt>
      <trkpt lat="44.48353" lon="0.74871">
        <ele>92.9</ele>
        <time>2015-05-10T08:26:49Z</time>
      </trkpt>
      <trkpt lat="44.48355" lon="0.74862">
        <ele>92.42</ele>
        <time>2015-05-10T08:26:50Z</time>
      </trkpt>
      <trkpt lat="44.48357" lon="0.74853">
        <ele>92.42</ele>
        <time>2015-05-10T08:26:51Z</time>
      </trkpt>
      <trkpt lat="44.48356" lon="0.74844">
        <ele>91.94</ele>
        <time>2015-05-10T08:26:52Z</time>
      </trkpt>
      <trkpt lat="44.48353" lon="0.74835">
        <ele>91.94</ele>
        <time>2015-05-10T08:26:53Z</time>
      </trkpt>
      <trkpt lat="44.48348" lon="0.74828">
        <ele>91.46</ele>
        <time>2015-05-10T08:26:54Z</time>
      </trkpt>
      <trkpt lat="44.48344" lon="0.74822">
        <ele>91.46</ele>
        <time>2015-05-10T08:26:55Z</time>
      </trkpt>
      <trkpt lat="44.48341" lon="0.74816">
        <ele>91.46</ele>
        <time>2015-05-10T08:26:56Z</time>
      </trkpt>
      <trkpt lat="44.48339" lon="0.7481">
        <ele>91.46</ele>
        <time>2015-05-10T08:26:57Z</time>
      </trkpt>
      <trkpt lat="44.48339" lon="0.74805">
        <ele>91.46</ele>
        <time>2015-05-10T08:26:58Z</time>
      </trkpt>
      <trkpt lat="44.48341" lon="0.74802">
        <ele>91.46</ele>
        <time>2015-05-10T08:26:59Z</time>
      </trkpt>
      <trkpt lat="44.48344" lon="0.74801">
        <ele>91.94</ele>
        <time>2015-05-10T08:27:00Z</time>
      </trkpt>
      <trkpt lat="44.48347" lon="0.74802">
        <ele>91.94</ele>
        <time>2015-05-10T08:27:01Z</time>
      </trkpt>
      <trkpt lat="44.4835" lon="0.74804">
        <ele>91.94</ele>
        <time>2015-05-10T08:27:02Z</time>
      </trkpt>
      <trkpt lat="44.48383" lon="0.74807">
        <ele>92.9</ele>
        <time>2015-05-10T08:27:11Z</time>
      </trkpt>
      <trkpt lat="44.48386" lon="0.74804">
        <ele>92.9</ele>
        <time>2015-05-10T08:27:12Z</time>
      </trkpt>
      <trkpt lat="44.48388" lon="0.748">
        <ele>93.39</ele>
        <time>2015-05-10T08:27:13Z</time>
      </trkpt>
      <trkpt lat="44.4839" lon="0.74797">
        <ele>93.87</ele>
        <time>2015-05-10T08:27:14Z</time>
      </trkpt>
      <trkpt lat="44.48391" lon="0.74793">
        <ele>94.35</ele>
        <time>2015-05-10T08:27:15Z</time>
      </trkpt>
      <trkpt lat="44.48392" lon="0.7479">
        <ele>94.83</ele>
        <time>2015-05-10T08:27:16Z</time>
      </trkpt>
      <trkpt lat="44.48405" lon="0.74728">
        <ele>99.63</ele>
        <time>2015-05-10T08:27:33Z</time>
      </trkpt>
      <trkpt lat="44.48413" lon="0.74684">
        <ele>103</ele>
        <time>2015-05-10T08:27:47Z</time>
      </trkpt>
      <trkpt lat="44.4842" lon="0.74647">
        <ele>107.32</ele>
        <time>2015-05-10T08:28:02Z</time>
      </trkpt>
      <trkpt lat="44.48437" lon="0.74607">
        <ele>108.29</ele>
        <time>2015-05-10T08:28:16Z</time>
      </trkpt>
      <trkpt lat="44.48459" lon="0.74526">
        <ele>110.69</ele>
        <time>2015-05-10T08:28:34Z</time>
      </trkpt>
      <trkpt lat="44.48482" lon="0.74438">
        <ele>112.13</ele>
        <time>2015-05-10T08:28:52Z</time>
      </trkpt>
      <trkpt lat="44.48503" lon="0.74342">
        <ele>115.5</ele>
        <time>2015-05-10T08:29:13Z</time>
      </trkpt>
      <trkpt lat="44.48511" lon="0.7431">
        <ele>115.98</ele>
        <time>2015-05-10T08:29:25Z</time>
      </trkpt>
      <trkpt lat="44.48518" lon="0.74278">
        <ele>118.38</ele>
        <time>2015-05-10T08:29:39Z</time>
      </trkpt>
      <trkpt lat="44.48521" lon="0.74258">
        <ele>119.82</ele>
        <time>2015-05-10T08:29:47Z</time>
      </trkpt>
      <trkpt lat="44.48521" lon="0.74256">
        <ele>119.82</ele>
        <time>2015-05-10T08:29:48Z</time>
      </trkpt>
      <trkpt lat="44.48521" lon="0.74254">
        <ele>119.82</ele>
        <time>2015-05-10T08:29:49Z</time>
      </trkpt>
      <trkpt lat="44.48521" lon="0.74252">
        <ele>119.82</ele>
        <time>2015-05-10T08:29:50Z</time>
      </trkpt>
      <trkpt lat="44.48525" lon="0.74221">
        <ele>123.67</ele>
        <time>2015-05-10T08:30:04Z</time>
      </trkpt>
      <trkpt lat="44.48528" lon="0.74212">
        <ele>124.63</ele>
        <time>2015-05-10T08:30:09Z</time>
      </trkpt>
      <trkpt lat="44.48535" lon="0.74186">
        <ele>128.47</ele>
        <time>2015-05-10T08:30:24Z</time>
      </trkpt>
      <trkpt lat="44.48537" lon="0.74176">
        <ele>131.36</ele>
        <time>2015-05-10T08:30:29Z</time>
      </trkpt>
      <trkpt lat="44.48554" lon="0.7416">
        <ele>134.24</ele>
        <time>2015-05-10T08:30:43Z</time>
      </trkpt>
      <trkpt lat="44.48562" lon="0.74152">
        <ele>137.13</ele>
        <time>2015-05-10T08:30:50Z</time>
      </trkpt>
      <trkpt lat="44.48572" lon="0.74115">
        <ele>140.97</ele>
        <time>2015-05-10T08:31:07Z</time>
      </trkpt>
      <trkpt lat="44.48578" lon="0.74089">
        <ele>141.93</ele>
        <time>2015-05-10T08:31:18Z</time>
      </trkpt>
      <trkpt lat="44.4858" lon="0.7408">
        <ele>142.41</ele>
        <time>2015-05-10T08:31:22Z</time>
      </trkpt>
      <trkpt lat="44.48589" lon="0.74046">
        <ele>144.82</ele>
        <time>2015-05-10T08:31:37Z</time>
      </trkpt>
      <trkpt lat="44.48602" lon="0.74014">
        <ele>144.82</ele>
        <time>2015-05-10T08:31:50Z</time>
      </trkpt>
      <trkpt lat="44.48618" lon="0.73976">
        <ele>144.82</ele>
        <time>2015-05-10T08:32:02Z</time>
      </trkpt>
      <trkpt lat="44.48633" lon="0.73944">
        <ele>147.22</ele>
        <time>2015-05-10T08:32:13Z</time>
      </trkpt>
      <trkpt lat="44.48636" lon="0.73936">
        <ele>148.18</ele>
        <time>2015-05-10T08:32:16Z</time>
      </trkpt>
      <trkpt lat="44.48636" lon="0.7392">
        <ele>148.66</ele>
        <time>2015-05-10T08:32:22Z</time>
      </trkpt>
      <trkpt lat="44.48635" lon="0.73901">
        <ele>148.18</ele>
        <time>2015-05-10T08:32:30Z</time>
      </trkpt>
      <trkpt lat="44.48635" lon="0.73892">
        <ele>148.66</ele>
        <time>2015-05-10T08:32:34Z</time>
      </trkpt>
      <trkpt lat="44.48636" lon="0.73887">
        <ele>148.66</ele>
        <time>2015-05-10T08:32:37Z</time>
      </trkpt>
      <trkpt lat="44.4863" lon="0.73859">
        <ele>151.06</ele>
        <time>2015-05-10T08:32:51Z</time>
      </trkpt>
      <trkpt lat="44.48628" lon="0.73837">
        <ele>155.87</ele>
        <time>2015-05-10T08:33:04Z</time>
      </trkpt>
      <trkpt lat="44.48625" lon="0.73797">
        <ele>157.31</ele>
        <time>2015-05-10T08:33:17Z</time>
      </trkpt>
      <trkpt lat="44.48626" lon="0.73739">
        <ele>156.83</ele>
        <time>2015-05-10T08:33:28Z</time>
      </trkpt>
      <trkpt lat="44.48624" lon="0.73728">
        <ele>156.35</ele>
        <time>2015-05-10T08:33:32Z</time>
      </trkpt>
      <trkpt lat="44.48605" lon="0.73709">
        <ele>155.87</ele>
        <time>2015-05-10T08:33:43Z</time>
      </trkpt>
      <trkpt lat="44.48586" lon="0.73667">
        <ele>155.39</ele>
        <time>2015-05-10T08:33:53Z</time>
      </trkpt>
      <trkpt lat="44.48576" lon="0.7363">
        <ele>156.83</ele>
        <time>2015-05-10T08:34:03Z</time>
      </trkpt>
      <trkpt lat="44.48574" lon="0.73627">
        <ele>157.31</ele>
        <time>2015-05-10T08:34:04Z</time>
      </trkpt>
      <trkpt lat="44.48566" lon="0.73621">
        <ele>158.75</ele>
        <time>2015-05-10T08:34:08Z</time>
      </trkpt>
      <trkpt lat="44.48548" lon="0.73614">
        <ele>160.68</ele>
        <time>2015-05-10T08:34:16Z</time>
      </trkpt>
      <trkpt lat="44.48536" lon="0.73586">
        <ele>162.12</ele>
        <time>2015-05-10T08:34:28Z</time>
      </trkpt>
      <trkpt lat="44.48533" lon="0.73554">
        <ele>163.08</ele>
        <time>2015-05-10T08:34:41Z</time>
      </trkpt>
      <trkpt lat="44.48533" lon="0.73539">
        <ele>161.64</ele>
        <time>2015-05-10T08:34:47Z</time>
      </trkpt>
      <trkpt lat="44.48535" lon="0.73533">
        <ele>161.64</ele>
        <time>2015-05-10T08:35:02Z</time>
      </trkpt>
      <trkpt lat="44.48535" lon="0.73533">
        <ele>161.16</ele>
        <time>2015-05-10T08:35:04Z</time>
      </trkpt>
      <trkpt lat="44.48541" lon="0.7353">
        <ele>161.64</ele>
        <time>2015-05-10T08:35:08Z</time>
      </trkpt>
      <trkpt lat="44.48571" lon="0.735">
        <ele>166.45</ele>
        <time>2015-05-10T08:35:25Z</time>
      </trkpt>
      <trkpt lat="44.48576" lon="0.73488">
        <ele>168.37</ele>
        <time>2015-05-10T08:35:36Z</time>
      </trkpt>
      <trkpt lat="44.48569" lon="0.73438">
        <ele>168.37</ele>
        <time>2015-05-10T08:35:47Z</time>
      </trkpt>
      <trkpt lat="44.48569" lon="0.73431">
        <ele>168.37</ele>
        <time>2015-05-10T08:35:48Z</time>
      </trkpt>
      <trkpt lat="44.48582" lon="0.73414">
        <ele>167.89</ele>
        <time>2015-05-10T08:35:54Z</time>
      </trkpt>
      <trkpt lat="44.48625" lon="0.73413">
        <ele>169.33</ele>
        <time>2015-05-10T08:36:08Z</time>
      </trkpt>
      <trkpt lat="44.48631" lon="0.73413">
        <ele>169.81</ele>
        <time>2015-05-10T08:36:10Z</time>
      </trkpt>
      <trkpt lat="44.48637" lon="0.73376">
        <ele>171.73</ele>
        <time>2015-05-10T08:36:19Z</time>
      </trkpt>
      <trkpt lat="44.48636" lon="0.73346">
        <ele>171.73</ele>
        <time>2015-05-10T08:36:27Z</time>
      </trkpt>
      <trkpt lat="44.48637" lon="0.73348">
        <ele>169.81</ele>
        <time>2015-05-10T08:36:37Z</time>
      </trkpt>
      <trkpt lat="44.48638" lon="0.73364">
        <ele>170.29</ele>
        <time>2015-05-10T08:36:42Z</time>
      </trkpt>
      <trkpt lat="44.48635" lon="0.73409">
        <ele>173.17</ele>
        <time>2015-05-10T08:36:55Z</time>
      </trkpt>
      <trkpt lat="44.48635" lon="0.7341">
        <ele>173.17</ele>
        <time>2015-05-10T08:36:56Z</time>
      </trkpt>
      <trkpt lat="44.48627" lon="0.73411">
        <ele>173.17</ele>
        <time>2015-05-10T08:37:00Z</time>
      </trkpt>
      <trkpt lat="44.48621" lon="0.73412">
        <ele>172.69</ele>
        <time>2015-05-10T08:37:02Z</time>
      </trkpt>
      <trkpt lat="44.48593" lon="0.73411">
        <ele>170.77</ele>
        <time>2015-05-10T08:37:08Z</time>
      </trkpt>
      <trkpt lat="44.48572" lon="0.73415">
        <ele>168.37</ele>
        <time>2015-05-10T08:37:13Z</time>
      </trkpt>
      <trkpt lat="44.48568" lon="0.73433">
        <ele>166.93</ele>
        <time>2015-05-10T08:37:17Z</time>
      </trkpt>
      <trkpt lat="44.48573" lon="0.73484">
        <ele>167.89</ele>
        <time>2015-05-10T08:37:29Z</time>
      </trkpt>
      <trkpt lat="44.48541" lon="0.73524">
        <ele>167.41</ele>
        <time>2015-05-10T08:37:39Z</time>
      </trkpt>
      <trkpt lat="44.48519" lon="0.73539">
        <ele>165</ele>
        <time>2015-05-10T08:37:44Z</time>
      </trkpt>
      <trkpt lat="44.48502" lon="0.73556">
        <ele>160.68</ele>
        <time>2015-05-10T08:37:53Z</time>
      </trkpt>
      <trkpt lat="44.48518" lon="0.73542">
        <ele>160.68</ele>
        <time>2015-05-10T08:38:03Z</time>
      </trkpt>
      <trkpt lat="44.4853" lon="0.73534">
        <ele>162.12</ele>
        <time>2015-05-10T08:38:09Z</time>
      </trkpt>
      <trkpt lat="44.48528" lon="0.73564">
        <ele>163.56</ele>
        <time>2015-05-10T08:38:20Z</time>
      </trkpt>
      <trkpt lat="44.4853" lon="0.73579">
        <ele>162.6</ele>
        <time>2015-05-10T08:38:23Z</time>
      </trkpt>
      <trkpt lat="44.48536" lon="0.736">
        <ele>161.64</ele>
        <time>2015-05-10T08:38:30Z</time>
      </trkpt>
      <trkpt lat="44.4855" lon="0.73608">
        <ele>161.16</ele>
        <time>2015-05-10T08:38:38Z</time>
      </trkpt>
      <trkpt lat="44.48559" lon="0.73611">
        <ele>160.2</ele>
        <time>2015-05-10T08:38:42Z</time>
      </trkpt>
      <trkpt lat="44.48565" lon="0.73641">
        <ele>161.16</ele>
        <time>2015-05-10T08:38:51Z</time>
      </trkpt>
      <trkpt lat="44.48572" lon="0.73657">
        <ele>162.12</ele>
        <time>2015-05-10T08:38:55Z</time>
      </trkpt>
      <trkpt lat="44.48596" lon="0.73702">
        <ele>165.48</ele>
        <time>2015-05-10T08:39:07Z</time>
      </trkpt>
      <trkpt lat="44.48599" lon="0.73705">
        <ele>165.96</ele>
        <time>2015-05-10T08:39:09Z</time>
      </trkpt>
      <trkpt lat="44.4861" lon="0.7371">
        <ele>167.89</ele>
        <time>2015-05-10T08:39:23Z</time>
      </trkpt>
      <trkpt lat="44.48611" lon="0.73706">
        <ele>168.37</ele>
        <time>2015-05-10T08:39:28Z</time>
      </trkpt>
      <trkpt lat="44.48612" lon="0.73692">
        <ele>167.89</ele>
        <time>2015-05-10T08:39:34Z</time>
      </trkpt>
      <trkpt lat="44.48612" lon="0.73685">
        <ele>167.89</ele>
        <time>2015-05-10T08:39:36Z</time>
      </trkpt>
      <trkpt lat="44.48618" lon="0.73648">
        <ele>165</ele>
        <time>2015-05-10T08:39:47Z</time>
      </trkpt>
      <trkpt lat="44.4862" lon="0.73613">
        <ele>163.56</ele>
        <time>2015-05-10T08:39:57Z</time>
      </trkpt>
      <trkpt lat="44.4862" lon="0.7361">
        <ele>163.56</ele>
        <time>2015-05-10T08:39:58Z</time>
      </trkpt>
      <trkpt lat="44.48628" lon="0.73595">
        <ele>160.2</ele>
        <time>2015-05-10T08:40:09Z</time>
      </trkpt>
      <trkpt lat="44.48628" lon="0.73595">
        <ele>160.2</ele>
        <time>2015-05-10T08:40:10Z</time>
      </trkpt>
      <trkpt lat="44.48637" lon="0.73568">
        <ele>164.52</ele>
        <time>2015-05-10T08:40:23Z</time>
      </trkpt>
      <trkpt lat="44.48638" lon="0.73555">
        <ele>166.45</ele>
        <time>2015-05-10T08:40:29Z</time>
      </trkpt>
      <trkpt lat="44.48645" lon="0.7355">
        <ele>166.45</ele>
        <time>2015-05-10T08:40:33Z</time>
      </trkpt>
      <trkpt lat="44.48653" lon="0.73549">
        <ele>163.56</ele>
        <time>2015-05-10T08:40:37Z</time>
      </trkpt>
      <trkpt lat="44.48659" lon="0.73536">
        <ele>161.64</ele>
        <time>2015-05-10T08:40:42Z</time>
      </trkpt>
      <trkpt lat="44.48674" lon="0.73499">
        <ele>160.68</ele>
        <time>2015-05-10T08:40:56Z</time>
      </trkpt>
      <trkpt lat="44.4869" lon="0.73467">
        <ele>161.64</ele>
        <time>2015-05-10T08:41:09Z</time>
      </trkpt>
      <trkpt lat="44.48711" lon="0.73439">
        <ele>163.08</ele>
        <time>2015-05-10T08:41:22Z</time>
      </trkpt>
      <trkpt lat="44.48733" lon="0.73418">
        <ele>165.48</ele>
        <time>2015-05-10T08:41:33Z</time>
      </trkpt>
      <trkpt lat="44.48764" lon="0.73408">
        <ele>164.04</ele>
        <time>2015-05-10T08:41:41Z</time>
      </trkpt>
      <trkpt lat="44.48788" lon="0.73398">
        <ele>162.6</ele>
        <time>2015-05-10T08:41:48Z</time>
      </trkpt>
      <trkpt lat="44.48821" lon="0.73378">
        <ele>160.2</ele>
        <time>2015-05-10T08:41:59Z</time>
      </trkpt>
      <trkpt lat="44.48856" lon="0.73366">
        <ele>160.2</ele>
        <time>2015-05-10T08:42:08Z</time>
      </trkpt>
      <trkpt lat="44.48903" lon="0.73348">
        <ele>160.68</ele>
        <time>2015-05-10T08:42:19Z</time>
      </trkpt>
      <trkpt lat="44.48911" lon="0.73341">
        <ele>161.16</ele>
        <time>2015-05-10T08:42:21Z</time>
      </trkpt>
      <trkpt lat="44.48941" lon="0.73297">
        <ele>162.12</ele>
        <time>2015-05-10T08:42:32Z</time>
      </trkpt>
      <trkpt lat="44.4895" lon="0.73287">
        <ele>162.12</ele>
        <time>2015-05-10T08:42:35Z</time>
      </trkpt>
      <trkpt lat="44.48965" lon="0.73278">
        <ele>161.64</ele>
        <time>2015-05-10T08:42:39Z</time>
      </trkpt>
      <trkpt lat="44.49013" lon="0.73249">
        <ele>161.64</ele>
        <time>2015-05-10T08:42:49Z</time>
      </trkpt>
      <trkpt lat="44.49041" lon="0.73233">
        <ele>163.56</ele>
        <time>2015-05-10T08:42:55Z</time>
      </trkpt>
      <trkpt lat="44.4909" lon="0.73184">
        <ele>167.41</ele>
        <time>2015-05-10T08:43:07Z</time>
      </trkpt>
      <trkpt lat="44.49108" lon="0.73164">
        <ele>169.33</ele>
        <time>2015-05-10T08:43:12Z</time>
      </trkpt>
      <trkpt lat="44.49135" lon="0.73149">
        <ele>168.85</ele>
        <time>2015-05-10T08:43:18Z</time>
      </trkpt>
      <trkpt lat="44.49163" lon="0.73141">
        <ele>166.45</ele>
        <time>2015-05-10T08:43:27Z</time>
      </trkpt>
      <trkpt lat="44.49175" lon="0.73139">
        <ele>163.56</ele>
        <time>2015-05-10T08:43:33Z</time>
      </trkpt>
      <trkpt lat="44.49184" lon="0.73138">
        <ele>161.16</ele>
        <time>2015-05-10T08:43:42Z</time>
      </trkpt>
      <trkpt lat="44.49195" lon="0.73136">
        <ele>159.24</ele>
        <time>2015-05-10T08:43:55Z</time>
      </trkpt>
      <trkpt lat="44.4921" lon="0.73135">
        <ele>159.72</ele>
        <time>2015-05-10T08:44:07Z</time>
      </trkpt>
      <trkpt lat="44.49227" lon="0.73127">
        <ele>160.2</ele>
        <time>2015-05-10T08:44:20Z</time>
      </trkpt>
      <trkpt lat="44.49239" lon="0.73121">
        <ele>160.68</ele>
        <time>2015-05-10T08:44:31Z</time>
      </trkpt>
      <trkpt lat="44.49255" lon="0.73112">
        <ele>159.24</ele>
        <time>2015-05-10T08:44:42Z</time>
      </trkpt>
      <trkpt lat="44.49273" lon="0.73101">
        <ele>157.31</ele>
        <time>2015-05-10T08:44:55Z</time>
      </trkpt>
      <trkpt lat="44.49275" lon="0.73101">
        <ele>156.83</ele>
        <time>2015-05-10T08:44:57Z</time>
      </trkpt>
      <trkpt lat="44.49284" lon="0.73094">
        <ele>154.91</ele>
        <time>2015-05-10T08:45:06Z</time>
      </trkpt>
      <trkpt lat="44.49306" lon="0.73076">
        <ele>154.91</ele>
        <time>2015-05-10T08:45:18Z</time>
      </trkpt>
      <trkpt lat="44.49309" lon="0.73076">
        <ele>154.91</ele>
        <time>2015-05-10T08:45:20Z</time>
      </trkpt>
      <trkpt lat="44.49343" lon="0.73052">
        <ele>157.31</ele>
        <time>2015-05-10T08:45:31Z</time>
      </trkpt>
      <trkpt lat="44.49375" lon="0.73029">
        <ele>157.79</ele>
        <time>2015-05-10T08:45:42Z</time>
      </trkpt>
      <trkpt lat="44.49402" lon="0.73003">
        <ele>159.24</ele>
        <time>2015-05-10T08:45:51Z</time>
      </trkpt>
      <trkpt lat="44.49427" lon="0.72984">
        <ele>162.12</ele>
        <time>2015-05-10T08:46:00Z</time>
      </trkpt>
      <trkpt lat="44.49452" lon="0.72964">
        <ele>165.48</ele>
        <time>2015-05-10T08:46:09Z</time>
      </trkpt>
      <trkpt lat="44.49491" lon="0.72938">
        <ele>168.85</ele>
        <time>2015-05-10T08:46:21Z</time>
      </trkpt>
      <trkpt lat="44.49535" lon="0.72912">
        <ele>168.37</ele>
        <time>2015-05-10T08:46:32Z</time>
      </trkpt>
      <trkpt lat="44.49587" lon="0.7288">
        <ele>166.45</ele>
        <time>2015-05-10T08:46:45Z</time>
      </trkpt>
      <trkpt lat="44.49595" lon="0.72874">
        <ele>165.96</ele>
        <time>2015-05-10T08:46:47Z</time>
      </trkpt>
      <trkpt lat="44.49616" lon="0.7287">
        <ele>163.08</ele>
        <time>2015-05-10T08:46:51Z</time>
      </trkpt>
      <trkpt lat="44.49649" lon="0.72863">
        <ele>160.2</ele>
        <time>2015-05-10T08:46:57Z</time>
      </trkpt>
      <trkpt lat="44.49685" lon="0.72857">
        <ele>159.24</ele>
        <time>2015-05-10T08:47:04Z</time>
      </trkpt>
      <trkpt lat="44.4971" lon="0.72851">
        <ele>159.72</ele>
        <time>2015-05-10T08:47:09Z</time>
      </trkpt>
      <trkpt lat="44.49761" lon="0.72847">
        <ele>158.75</ele>
        <time>2015-05-10T08:47:21Z</time>
      </trkpt>
      <trkpt lat="44.49808" lon="0.72843">
        <ele>160.2</ele>
        <time>2015-05-10T08:47:32Z</time>
      </trkpt>
      <trkpt lat="44.49844" lon="0.72831">
        <ele>161.64</ele>
        <time>2015-05-10T08:47:42Z</time>
      </trkpt>
      <trkpt lat="44.49876" lon="0.72826">
        <ele>164.04</ele>
        <time>2015-05-10T08:47:53Z</time>
      </trkpt>
      <trkpt lat="44.49905" lon="0.72824">
        <ele>166.45</ele>
        <time>2015-05-10T08:48:05Z</time>
      </trkpt>
      <trkpt lat="44.4991" lon="0.72825">
        <ele>166.93</ele>
        <time>2015-05-10T08:48:07Z</time>
      </trkpt>
      <trkpt lat="44.4993" lon="0.72847">
        <ele>168.37</ele>
        <time>2015-05-10T08:48:19Z</time>
      </trkpt>
      <trkpt lat="44.49936" lon="0.72859">
        <ele>168.85</ele>
        <time>2015-05-10T08:48:24Z</time>
      </trkpt>
      <trkpt lat="44.49944" lon="0.72859">
        <ele>168.37</ele>
        <time>2015-05-10T08:48:29Z</time>
      </trkpt>
      <trkpt lat="44.49948" lon="0.72859">
        <ele>168.37</ele>
        <time>2015-05-10T08:48:31Z</time>
      </trkpt>
      <trkpt lat="44.49955" lon="0.72861">
        <ele>168.37</ele>
        <time>2015-05-10T08:48:35Z</time>
      </trkpt>
      <trkpt lat="44.49969" lon="0.72878">
        <ele>175.1</ele>
        <time>2015-05-10T08:48:47Z</time>
      </trkpt>
      <trkpt lat="44.49983" lon="0.72896">
        <ele>179.9</ele>
        <time>2015-05-10T08:49:00Z</time>
      </trkpt>
      <trkpt lat="44.49988" lon="0.72902">
        <ele>180.87</ele>
        <time>2015-05-10T08:49:04Z</time>
      </trkpt>
      <trkpt lat="44.49997" lon="0.72921">
        <ele>181.35</ele>
        <time>2015-05-10T08:49:12Z</time>
      </trkpt>
      <trkpt lat="44.50017" lon="0.7293">
        <ele>182.31</ele>
        <time>2015-05-10T08:49:19Z</time>
      </trkpt>
      <trkpt lat="44.50045" lon="0.72933">
        <ele>181.35</ele>
        <time>2015-05-10T08:49:23Z</time>
      </trkpt>
      <trkpt lat="44.50065" lon="0.72936">
        <ele>179.9</ele>
        <time>2015-05-10T08:49:26Z</time>
      </trkpt>
      <trkpt lat="44.50096" lon="0.72946">
        <ele>176.54</ele>
        <time>2015-05-10T08:49:34Z</time>
      </trkpt>
      <trkpt lat="44.50116" lon="0.72933">
        <ele>172.21</ele>
        <time>2015-05-10T08:49:44Z</time>
      </trkpt>
      <trkpt lat="44.50119" lon="0.72931">
        <ele>171.73</ele>
        <time>2015-05-10T08:49:46Z</time>
      </trkpt>
      <trkpt lat="44.50134" lon="0.7293">
        <ele>167.89</ele>
        <time>2015-05-10T08:49:52Z</time>
      </trkpt>
      <trkpt lat="44.5014" lon="0.72929">
        <ele>166.45</ele>
        <time>2015-05-10T08:49:54Z</time>
      </trkpt>
      <trkpt lat="44.50158" lon="0.72924">
        <ele>162.6</ele>
        <time>2015-05-10T08:50:01Z</time>
      </trkpt>
      <trkpt lat="44.5016" lon="0.72924">
        <ele>162.12</ele>
        <time>2015-05-10T08:50:02Z</time>
      </trkpt>
      <trkpt lat="44.50163" lon="0.72923">
        <ele>161.64</ele>
        <time>2015-05-10T08:50:03Z</time>
      </trkpt>
      <trkpt lat="44.50166" lon="0.72923">
        <ele>161.16</ele>
        <time>2015-05-10T08:50:04Z</time>
      </trkpt>
      <trkpt lat="44.50169" lon="0.72923">
        <ele>160.2</ele>
        <time>2015-05-10T08:50:05Z</time>
      </trkpt>
      <trkpt lat="44.50171" lon="0.72923">
        <ele>160.2</ele>
        <time>2015-05-10T08:50:06Z</time>
      </trkpt>
      <trkpt lat="44.50174" lon="0.72922">
        <ele>160.68</ele>
        <time>2015-05-10T08:50:07Z</time>
      </trkpt>
      <trkpt lat="44.50178" lon="0.72921">
        <ele>161.16</ele>
        <time>2015-05-10T08:50:08Z</time>
      </trkpt>
      <trkpt lat="44.5018" lon="0.7292">
        <ele>161.64</ele>
        <time>2015-05-10T08:50:09Z</time>
      </trkpt>
      <trkpt lat="44.50183" lon="0.72918">
        <ele>162.12</ele>
        <time>2015-05-10T08:50:10Z</time>
      </trkpt>
      <trkpt lat="44.50216" lon="0.72907">
        <ele>161.16</ele>
        <time>2015-05-10T08:50:20Z</time>
      </trkpt>
      <trkpt lat="44.50233" lon="0.72903">
        <ele>159.72</ele>
        <time>2015-05-10T08:50:24Z</time>
      </trkpt>
      <trkpt lat="44.50275" lon="0.72894">
        <ele>155.39</ele>
        <time>2015-05-10T08:50:34Z</time>
      </trkpt>
      <trkpt lat="44.50295" lon="0.7289">
        <ele>152.99</ele>
        <time>2015-05-10T08:50:45Z</time>
      </trkpt>
      <trkpt lat="44.50308" lon="0.72886">
        <ele>153.47</ele>
        <time>2015-05-10T08:50:57Z</time>
      </trkpt>
      <trkpt lat="44.50324" lon="0.72886">
        <ele>152.03</ele>
        <time>2015-05-10T08:51:07Z</time>
      </trkpt>
      <trkpt lat="44.50351" lon="0.72895">
        <ele>153.95</ele>
        <time>2015-05-10T08:51:16Z</time>
      </trkpt>
      <trkpt lat="44.50386" lon="0.72905">
        <ele>157.31</ele>
        <time>2015-05-10T08:51:28Z</time>
      </trkpt>
      <trkpt lat="44.50417" lon="0.72921">
        <ele>156.83</ele>
        <time>2015-05-10T08:51:38Z</time>
      </trkpt>
      <trkpt lat="44.50437" lon="0.72895">
        <ele>157.79</ele>
        <time>2015-05-10T08:51:46Z</time>
      </trkpt>
      <trkpt lat="44.50447" lon="0.72823">
        <ele>159.72</ele>
        <time>2015-05-10T08:52:03Z</time>
      </trkpt>
      <trkpt lat="44.5045" lon="0.7276">
        <ele>162.6</ele>
        <time>2015-05-10T08:52:19Z</time>
      </trkpt>
      <trkpt lat="44.50453" lon="0.72697">
        <ele>164.04</ele>
        <time>2015-05-10T08:52:33Z</time>
      </trkpt>
      <trkpt lat="44.50455" lon="0.72618">
        <ele>165.48</ele>
        <time>2015-05-10T08:52:51Z</time>
      </trkpt>
      <trkpt lat="44.50459" lon="0.72547">
        <ele>168.85</ele>
        <time>2015-05-10T08:53:08Z</time>
      </trkpt>
      <trkpt lat="44.50462" lon="0.72499">
        <ele>170.29</ele>
        <time>2015-05-10T08:53:20Z</time>
      </trkpt>
      <trkpt lat="44.50475" lon="0.72454">
        <ele>174.14</ele>
        <time>2015-05-10T08:53:33Z</time>
      </trkpt>
      <trkpt lat="44.50499" lon="0.72414">
        <ele>179.42</ele>
        <time>2015-05-10T08:53:48Z</time>
      </trkpt>
      <trkpt lat="44.50521" lon="0.72373">
        <ele>185.19</ele>
        <time>2015-05-10T08:54:03Z</time>
      </trkpt>
      <trkpt lat="44.50535" lon="0.7234">
        <ele>184.71</ele>
        <time>2015-05-10T08:54:14Z</time>
      </trkpt>
      <trkpt lat="44.50537" lon="0.72338">
        <ele>184.23</ele>
        <time>2015-05-10T08:54:15Z</time>
      </trkpt>
      <trkpt lat="44.50545" lon="0.72333">
        <ele>183.27</ele>
        <time>2015-05-10T08:54:18Z</time>
      </trkpt>
      <trkpt lat="44.50548" lon="0.72333">
        <ele>182.79</ele>
        <time>2015-05-10T08:54:19Z</time>
      </trkpt>
      <trkpt lat="44.50552" lon="0.72334">
        <ele>182.31</ele>
        <time>2015-05-10T08:54:20Z</time>
      </trkpt>
      <trkpt lat="44.5056" lon="0.7234">
        <ele>180.87</ele>
        <time>2015-05-10T08:54:22Z</time>
      </trkpt>
      <trkpt lat="44.50618" lon="0.72387">
        <ele>171.73</ele>
        <time>2015-05-10T08:54:32Z</time>
      </trkpt>
      <trkpt lat="44.50635" lon="0.72395">
        <ele>167.41</ele>
        <time>2015-05-10T08:54:39Z</time>
      </trkpt>
      <trkpt lat="44.50635" lon="0.72397">
        <ele>167.41</ele>
        <time>2015-05-10T08:54:40Z</time>
      </trkpt>
      <trkpt lat="44.50636" lon="0.72398">
        <ele>166.93</ele>
        <time>2015-05-10T08:54:41Z</time>
      </trkpt>
      <trkpt lat="44.50638" lon="0.72399">
        <ele>166.93</ele>
        <time>2015-05-10T08:54:42Z</time>
      </trkpt>
      <trkpt lat="44.50638" lon="0.72401">
        <ele>166.45</ele>
        <time>2015-05-10T08:54:43Z</time>
      </trkpt>
      <trkpt lat="44.50639" lon="0.72403">
        <ele>166.45</ele>
        <time>2015-05-10T08:54:44Z</time>
      </trkpt>
      <trkpt lat="44.50642" lon="0.72405">
        <ele>165.96</ele>
        <time>2015-05-10T08:54:45Z</time>
      </trkpt>
      <trkpt lat="44.50645" lon="0.72408">
        <ele>165.96</ele>
        <time>2015-05-10T08:54:46Z</time>
      </trkpt>
      <trkpt lat="44.50651" lon="0.72415">
        <ele>165.96</ele>
        <time>2015-05-10T08:54:48Z</time>
      </trkpt>
      <trkpt lat="44.50667" lon="0.72435">
        <ele>164.52</ele>
        <time>2015-05-10T08:54:52Z</time>
      </trkpt>
      <trkpt lat="44.50721" lon="0.7251">
        <ele>155.87</ele>
        <time>2015-05-10T08:55:05Z</time>
      </trkpt>
      <trkpt lat="44.50728" lon="0.72519">
        <ele>154.43</ele>
        <time>2015-05-10T08:55:07Z</time>
      </trkpt>
      <trkpt lat="44.50761" lon="0.72567">
        <ele>148.66</ele>
        <time>2015-05-10T08:55:16Z</time>
      </trkpt>
      <trkpt lat="44.50799" lon="0.72629">
        <ele>140.49</ele>
        <time>2015-05-10T08:55:28Z</time>
      </trkpt>
      <trkpt lat="44.5081" lon="0.72653">
        <ele>137.61</ele>
        <time>2015-05-10T08:55:33Z</time>
      </trkpt>
      <trkpt lat="44.50839" lon="0.72719">
        <ele>128.47</ele>
        <time>2015-05-10T08:55:46Z</time>
      </trkpt>
      <trkpt lat="44.50847" lon="0.72735">
        <ele>127.03</ele>
        <time>2015-05-10T08:55:52Z</time>
      </trkpt>
      <trkpt lat="44.50863" lon="0.72771">
        <ele>122.22</ele>
        <time>2015-05-10T08:55:59Z</time>
      </trkpt>
      <trkpt lat="44.5089" lon="0.72836">
        <ele>115.98</ele>
        <time>2015-05-10T08:56:12Z</time>
      </trkpt>
      <trkpt lat="44.50896" lon="0.72858">
        <ele>115.5</ele>
        <time>2015-05-10T08:56:17Z</time>
      </trkpt>
      <trkpt lat="44.50932" lon="0.72915">
        <ele>114.53</ele>
        <time>2015-05-10T08:56:32Z</time>
      </trkpt>
      <trkpt lat="44.5097" lon="0.72976">
        <ele>114.53</ele>
        <time>2015-05-10T08:56:47Z</time>
      </trkpt>
      <trkpt lat="44.5101" lon="0.73035">
        <ele>115.5</ele>
        <time>2015-05-10T08:57:03Z</time>
      </trkpt>
      <trkpt lat="44.51025" lon="0.73066">
        <ele>115.98</ele>
        <time>2015-05-10T08:57:11Z</time>
      </trkpt>
      <trkpt lat="44.51041" lon="0.73107">
        <ele>114.53</ele>
        <time>2015-05-10T08:57:19Z</time>
      </trkpt>
      <trkpt lat="44.51049" lon="0.73127">
        <ele>114.53</ele>
        <time>2015-05-10T08:57:23Z</time>
      </trkpt>
      <trkpt lat="44.51064" lon="0.73161">
        <ele>114.05</ele>
        <time>2015-05-10T08:57:30Z</time>
      </trkpt>
      <trkpt lat="44.5108" lon="0.73204">
        <ele>113.09</ele>
        <time>2015-05-10T08:57:39Z</time>
      </trkpt>
      <trkpt lat="44.51086" lon="0.7322">
        <ele>113.09</ele>
        <time>2015-05-10T08:57:42Z</time>
      </trkpt>
      <trkpt lat="44.51099" lon="0.73258">
        <ele>113.09</ele>
        <time>2015-05-10T08:57:53Z</time>
      </trkpt>
      <trkpt lat="44.51112" lon="0.73295">
        <ele>114.53</ele>
        <time>2015-05-10T08:58:04Z</time>
      </trkpt>
      <trkpt lat="44.51127" lon="0.73322">
        <ele>117.42</ele>
        <time>2015-05-10T08:58:13Z</time>
      </trkpt>
      <trkpt lat="44.5113" lon="0.73321">
        <ele>117.42</ele>
        <time>2015-05-10T08:58:14Z</time>
      </trkpt>
      <trkpt lat="44.51133" lon="0.73319">
        <ele>117.9</ele>
        <time>2015-05-10T08:58:15Z</time>
      </trkpt>
      <trkpt lat="44.51137" lon="0.73315">
        <ele>117.9</ele>
        <time>2015-05-10T08:58:16Z</time>
      </trkpt>
      <trkpt lat="44.5114" lon="0.73312">
        <ele>118.38</ele>
        <time>2015-05-10T08:58:17Z</time>
      </trkpt>
      <trkpt lat="44.51148" lon="0.73304">
        <ele>118.86</ele>
        <time>2015-05-10T08:58:19Z</time>
      </trkpt>
      <trkpt lat="44.51152" lon="0.73301">
        <ele>118.86</ele>
        <time>2015-05-10T08:58:20Z</time>
      </trkpt>
      <trkpt lat="44.51161" lon="0.73295">
        <ele>118.38</ele>
        <time>2015-05-10T08:58:22Z</time>
      </trkpt>
      <trkpt lat="44.51165" lon="0.73293">
        <ele>118.38</ele>
        <time>2015-05-10T08:58:23Z</time>
      </trkpt>
      <trkpt lat="44.51181" lon="0.73288">
        <ele>117.42</ele>
        <time>2015-05-10T08:58:26Z</time>
      </trkpt>
      <trkpt lat="44.51187" lon="0.73288">
        <ele>116.94</ele>
        <time>2015-05-10T08:58:27Z</time>
      </trkpt>
      <trkpt lat="44.51198" lon="0.73291">
        <ele>115.5</ele>
        <time>2015-05-10T08:58:33Z</time>
      </trkpt>
      <trkpt lat="44.51208" lon="0.73292">
        <ele>114.53</ele>
        <time>2015-05-10T08:58:45Z</time>
      </trkpt>
      <trkpt lat="44.51213" lon="0.73293">
        <ele>114.05</ele>
        <time>2015-05-10T08:58:46Z</time>
      </trkpt>
      <trkpt lat="44.51277" lon="0.73325">
        <ele>111.17</ele>
        <time>2015-05-10T08:58:57Z</time>
      </trkpt>
      <trkpt lat="44.51345" lon="0.73372">
        <ele>108.29</ele>
        <time>2015-05-10T08:59:07Z</time>
      </trkpt>
      <trkpt lat="44.51351" lon="0.7338">
        <ele>108.29</ele>
        <time>2015-05-10T08:59:08Z</time>
      </trkpt>
      <trkpt lat="44.51356" lon="0.7339">
        <ele>108.29</ele>
        <time>2015-05-10T08:59:09Z</time>
      </trkpt>
      <trkpt lat="44.51418" lon="0.73525">
        <ele>101.08</ele>
        <time>2015-05-10T08:59:22Z</time>
      </trkpt>
      <trkpt lat="44.5145" lon="0.73632">
        <ele>96.27</ele>
        <time>2015-05-10T08:59:31Z</time>
      </trkpt>
      <trkpt lat="44.51485" lon="0.73793">
        <ele>87.62</ele>
        <time>2015-05-10T08:59:44Z</time>
      </trkpt>
      <trkpt lat="44.51568" lon="0.73941">
        <ele>80.41</ele>
        <time>2015-05-10T08:59:58Z</time>
      </trkpt>
      <trkpt lat="44.51649" lon="0.7403">
        <ele>77.04</ele>
        <time>2015-05-10T09:00:10Z</time>
      </trkpt>
      <trkpt lat="44.51724" lon="0.74078">
        <ele>75.12</ele>
        <time>2015-05-10T09:00:21Z</time>
      </trkpt>
      <trkpt lat="44.51825" lon="0.74138">
        <ele>73.68</ele>
        <time>2015-05-10T09:00:36Z</time>
      </trkpt>
      <trkpt lat="44.51904" lon="0.74209">
        <ele>74.16</ele>
        <time>2015-05-10T09:00:50Z</time>
      </trkpt>
      <trkpt lat="44.5197" lon="0.7428">
        <ele>75.12</ele>
        <time>2015-05-10T09:01:04Z</time>
      </trkpt>
      <trkpt lat="44.51973" lon="0.74285">
        <ele>75.6</ele>
        <time>2015-05-10T09:01:05Z</time>
      </trkpt>
      <trkpt lat="44.5198" lon="0.74294">
        <ele>75.6</ele>
        <time>2015-05-10T09:01:07Z</time>
      </trkpt>
      <trkpt lat="44.51985" lon="0.74297">
        <ele>75.6</ele>
        <time>2015-05-10T09:01:08Z</time>
      </trkpt>
      <trkpt lat="44.5199" lon="0.74298">
        <ele>76.08</ele>
        <time>2015-05-10T09:01:09Z</time>
      </trkpt>
      <trkpt lat="44.51996" lon="0.74297">
        <ele>76.08</ele>
        <time>2015-05-10T09:01:10Z</time>
      </trkpt>
      <trkpt lat="44.52001" lon="0.74294">
        <ele>76.08</ele>
        <time>2015-05-10T09:01:11Z</time>
      </trkpt>
      <trkpt lat="44.52006" lon="0.74291">
        <ele>76.08</ele>
        <time>2015-05-10T09:01:12Z</time>
      </trkpt>
      <trkpt lat="44.52047" lon="0.74267">
        <ele>78.97</ele>
        <time>2015-05-10T09:01:24Z</time>
      </trkpt>
      <trkpt lat="44.52076" lon="0.74247">
        <ele>87.14</ele>
        <time>2015-05-10T09:01:36Z</time>
      </trkpt>
      <trkpt lat="44.52116" lon="0.74217">
        <ele>92.42</ele>
        <time>2015-05-10T09:01:54Z</time>
      </trkpt>
      <trkpt lat="44.52125" lon="0.74214">
        <ele>92.9</ele>
        <time>2015-05-10T09:01:58Z</time>
      </trkpt>
      <trkpt lat="44.52126" lon="0.74213">
        <ele>92.9</ele>
        <time>2015-05-10T09:01:59Z</time>
      </trkpt>
      <trkpt lat="44.52129" lon="0.7421">
        <ele>92.9</ele>
        <time>2015-05-10T09:02:01Z</time>
      </trkpt>
      <trkpt lat="44.5213" lon="0.74208">
        <ele>92.9</ele>
        <time>2015-05-10T09:02:02Z</time>
      </trkpt>
      <trkpt lat="44.52131" lon="0.74206">
        <ele>92.9</ele>
        <time>2015-05-10T09:02:03Z</time>
      </trkpt>
      <trkpt lat="44.52142" lon="0.74185">
        <ele>96.75</ele>
        <time>2015-05-10T09:02:14Z</time>
      </trkpt>
      <trkpt lat="44.5216" lon="0.74156">
        <ele>101.08</ele>
        <time>2015-05-10T09:02:25Z</time>
      </trkpt>
      <trkpt lat="44.52198" lon="0.74119">
        <ele>101.08</ele>
        <time>2015-05-10T09:02:37Z</time>
      </trkpt>
      <trkpt lat="44.52206" lon="0.74114">
        <ele>99.63</ele>
        <time>2015-05-10T09:02:39Z</time>
      </trkpt>
      <trkpt lat="44.52225" lon="0.74106">
        <ele>97.71</ele>
        <time>2015-05-10T09:02:43Z</time>
      </trkpt>
      <trkpt lat="44.52234" lon="0.74103">
        <ele>96.75</ele>
        <time>2015-05-10T09:02:45Z</time>
      </trkpt>
      <trkpt lat="44.52244" lon="0.74101">
        <ele>95.79</ele>
        <time>2015-05-10T09:02:47Z</time>
      </trkpt>
      <trkpt lat="44.52277" lon="0.74084">
        <ele>92.9</ele>
        <time>2015-05-10T09:02:57Z</time>
      </trkpt>
      <trkpt lat="44.52323" lon="0.74073">
        <ele>87.14</ele>
        <time>2015-05-10T09:03:08Z</time>
      </trkpt>
      <trkpt lat="44.52329" lon="0.74072">
        <ele>86.66</ele>
        <time>2015-05-10T09:03:09Z</time>
      </trkpt>
      <trkpt lat="44.52339" lon="0.74075">
        <ele>85.21</ele>
        <time>2015-05-10T09:03:11Z</time>
      </trkpt>
      <trkpt lat="44.52405" lon="0.74112">
        <ele>79.93</ele>
        <time>2015-05-10T09:03:25Z</time>
      </trkpt>
      <trkpt lat="44.52448" lon="0.74142">
        <ele>79.93</ele>
        <time>2015-05-10T09:03:37Z</time>
      </trkpt>
      <trkpt lat="44.52502" lon="0.74186">
        <ele>78.97</ele>
        <time>2015-05-10T09:03:52Z</time>
      </trkpt>
      <trkpt lat="44.52552" lon="0.74197">
        <ele>77.04</ele>
        <time>2015-05-10T09:04:05Z</time>
      </trkpt>
      <trkpt lat="44.52596" lon="0.74197">
        <ele>75.6</ele>
        <time>2015-05-10T09:04:15Z</time>
      </trkpt>
      <trkpt lat="44.52612" lon="0.74195">
        <ele>75.6</ele>
        <time>2015-05-10T09:04:19Z</time>
      </trkpt>
      <trkpt lat="44.52633" lon="0.74199">
        <ele>75.12</ele>
        <time>2015-05-10T09:04:24Z</time>
      </trkpt>
      <trkpt lat="44.52693" lon="0.74222">
        <ele>76.08</ele>
        <time>2015-05-10T09:04:40Z</time>
      </trkpt>
      <trkpt lat="44.52719" lon="0.74218">
        <ele>77.04</ele>
        <time>2015-05-10T09:04:50Z</time>
      </trkpt>
      <trkpt lat="44.52723" lon="0.74216">
        <ele>78</ele>
        <time>2015-05-10T09:04:54Z</time>
      </trkpt>
      <trkpt lat="44.52725" lon="0.74215">
        <ele>78.48</ele>
        <time>2015-05-10T09:04:55Z</time>
      </trkpt>
      <trkpt lat="44.52726" lon="0.74213">
        <ele>78.97</ele>
        <time>2015-05-10T09:04:56Z</time>
      </trkpt>
      <trkpt lat="44.52727" lon="0.7421">
        <ele>79.45</ele>
        <time>2015-05-10T09:04:57Z</time>
      </trkpt>
      <trkpt lat="44.52728" lon="0.74206">
        <ele>79.93</ele>
        <time>2015-05-10T09:04:58Z</time>
      </trkpt>
      <trkpt lat="44.52734" lon="0.74181">
        <ele>80.89</ele>
        <time>2015-05-10T09:05:03Z</time>
      </trkpt>
      <trkpt lat="44.52738" lon="0.74118">
        <ele>81.85</ele>
        <time>2015-05-10T09:05:13Z</time>
      </trkpt>
      <trkpt lat="44.52738" lon="0.74105">
        <ele>81.85</ele>
        <time>2015-05-10T09:05:15Z</time>
      </trkpt>
      <trkpt lat="44.52737" lon="0.74099">
        <ele>81.85</ele>
        <time>2015-05-10T09:05:16Z</time>
      </trkpt>
      <trkpt lat="44.52737" lon="0.74093">
        <ele>81.85</ele>
        <time>2015-05-10T09:05:17Z</time>
      </trkpt>
      <trkpt lat="44.52737" lon="0.74087">
        <ele>81.85</ele>
        <time>2015-05-10T09:05:18Z</time>
      </trkpt>
      <trkpt lat="44.52736" lon="0.7408">
        <ele>81.85</ele>
        <time>2015-05-10T09:05:19Z</time>
      </trkpt>
      <trkpt lat="44.52735" lon="0.74074">
        <ele>81.85</ele>
        <time>2015-05-10T09:05:20Z</time>
      </trkpt>
      <trkpt lat="44.52733" lon="0.74067">
        <ele>81.37</ele>
        <time>2015-05-10T09:05:21Z</time>
      </trkpt>
      <trkpt lat="44.52709" lon="0.7401">
        <ele>79.93</ele>
        <time>2015-05-10T09:05:29Z</time>
      </trkpt>
      <trkpt lat="44.52691" lon="0.73988">
        <ele>79.93</ele>
        <time>2015-05-10T09:05:33Z</time>
      </trkpt>
      <trkpt lat="44.52666" lon="0.73965">
        <ele>78.97</ele>
        <time>2015-05-10T09:05:38Z</time>
      </trkpt>
      <trkpt lat="44.52661" lon="0.7396">
        <ele>79.45</ele>
        <time>2015-05-10T09:05:39Z</time>
      </trkpt>
      <trkpt lat="44.52656" lon="0.73955">
        <ele>79.45</ele>
        <time>2015-05-10T09:05:40Z</time>
      </trkpt>
      <trkpt lat="44.52651" lon="0.73949">
        <ele>79.45</ele>
        <time>2015-05-10T09:05:41Z</time>
      </trkpt>
      <trkpt lat="44.52647" lon="0.73944">
        <ele>79.45</ele>
        <time>2015-05-10T09:05:42Z</time>
      </trkpt>
      <trkpt lat="44.52635" lon="0.73926">
        <ele>79.45</ele>
        <time>2015-05-10T09:05:45Z</time>
      </trkpt>
      <trkpt lat="44.52621" lon="0.739">
        <ele>78.97</ele>
        <time>2015-05-10T09:05:49Z</time>
      </trkpt>
      <trkpt lat="44.52614" lon="0.7388">
        <ele>78.48</ele>
        <time>2015-05-10T09:05:52Z</time>
      </trkpt>
      <trkpt lat="44.52613" lon="0.73873">
        <ele>78.48</ele>
        <time>2015-05-10T09:05:53Z</time>
      </trkpt>
      <trkpt lat="44.52608" lon="0.73848">
        <ele>78.97</ele>
        <time>2015-05-10T09:05:57Z</time>
      </trkpt>
      <trkpt lat="44.52609" lon="0.73843">
        <ele>79.45</ele>
        <time>2015-05-10T09:05:58Z</time>
      </trkpt>
      <trkpt lat="44.52611" lon="0.73839">
        <ele>79.93</ele>
        <time>2015-05-10T09:05:59Z</time>
      </trkpt>
      <trkpt lat="44.52614" lon="0.73837">
        <ele>79.93</ele>
        <time>2015-05-10T09:06:00Z</time>
      </trkpt>
      <trkpt lat="44.52616" lon="0.73836">
        <ele>80.41</ele>
        <time>2015-05-10T09:06:01Z</time>
      </trkpt>
      <trkpt lat="44.5266" lon="0.7382">
        <ele>84.73</ele>
        <time>2015-05-10T09:06:19Z</time>
      </trkpt>
      <trkpt lat="44.52683" lon="0.73809">
        <ele>91.46</ele>
        <time>2015-05-10T09:06:34Z</time>
      </trkpt>
      <trkpt lat="44.52706" lon="0.73793">
        <ele>93.39</ele>
        <time>2015-05-10T09:06:48Z</time>
      </trkpt>
      <trkpt lat="44.52729" lon="0.73775">
        <ele>96.27</ele>
        <time>2015-05-10T09:07:02Z</time>
      </trkpt>
      <trkpt lat="44.52746" lon="0.73761">
        <ele>102.04</ele>
        <time>2015-05-10T09:07:16Z</time>
      </trkpt>
      <trkpt lat="44.52762" lon="0.73738">
        <ele>107.32</ele>
        <time>2015-05-10T09:07:29Z</time>
      </trkpt>
      <trkpt lat="44.52762" lon="0.73736">
        <ele>107.81</ele>
        <time>2015-05-10T09:07:30Z</time>
      </trkpt>
      <trkpt lat="44.52764" lon="0.73734">
        <ele>107.81</ele>
        <time>2015-05-10T09:07:31Z</time>
      </trkpt>
      <trkpt lat="44.52765" lon="0.73731">
        <ele>107.32</ele>
        <time>2015-05-10T09:07:32Z</time>
      </trkpt>
      <trkpt lat="44.52766" lon="0.73728">
        <ele>106.84</ele>
        <time>2015-05-10T09:07:33Z</time>
      </trkpt>
      <trkpt lat="44.52767" lon="0.73725">
        <ele>106.84</ele>
        <time>2015-05-10T09:07:34Z</time>
      </trkpt>
      <trkpt lat="44.52767" lon="0.73722">
        <ele>106.36</ele>
        <time>2015-05-10T09:07:35Z</time>
      </trkpt>
      <trkpt lat="44.52768" lon="0.73719">
        <ele>106.36</ele>
        <time>2015-05-10T09:07:36Z</time>
      </trkpt>
      <trkpt lat="44.52784" lon="0.73688">
        <ele>104.92</ele>
        <time>2015-05-10T09:07:50Z</time>
      </trkpt>
      <trkpt lat="44.52813" lon="0.73655">
        <ele>104.92</ele>
        <time>2015-05-10T09:08:07Z</time>
      </trkpt>
      <trkpt lat="44.52839" lon="0.73623">
        <ele>106.84</ele>
        <time>2015-05-10T09:08:23Z</time>
      </trkpt>
      <trkpt lat="44.52861" lon="0.73598">
        <ele>107.32</ele>
        <time>2015-05-10T09:08:38Z</time>
      </trkpt>
      <trkpt lat="44.52883" lon="0.73572">
        <ele>108.77</ele>
        <time>2015-05-10T09:08:54Z</time>
      </trkpt>
      <trkpt lat="44.52906" lon="0.73547">
        <ele>110.21</ele>
        <time>2015-05-10T09:09:11Z</time>
      </trkpt>
      <trkpt lat="44.52925" lon="0.73526">
        <ele>111.17</ele>
        <time>2015-05-10T09:09:25Z</time>
      </trkpt>
      <trkpt lat="44.52951" lon="0.73509">
        <ele>113.09</ele>
        <time>2015-05-10T09:09:40Z</time>
      </trkpt>
      <trkpt lat="44.5299" lon="0.73513">
        <ele>113.57</ele>
        <time>2015-05-10T09:09:58Z</time>
      </trkpt>
      <trkpt lat="44.53027" lon="0.7352">
        <ele>115.5</ele>
        <time>2015-05-10T09:10:15Z</time>
      </trkpt>
      <trkpt lat="44.53057" lon="0.73512">
        <ele>117.42</ele>
        <time>2015-05-10T09:10:29Z</time>
      </trkpt>
      <trkpt lat="44.53088" lon="0.7347">
        <ele>115.5</ele>
        <time>2015-05-10T09:10:41Z</time>
      </trkpt>
      <trkpt lat="44.5313" lon="0.73414">
        <ele>114.53</ele>
        <time>2015-05-10T09:10:55Z</time>
      </trkpt>
      <trkpt lat="44.53185" lon="0.73359">
        <ele>111.17</ele>
        <time>2015-05-10T09:11:07Z</time>
      </trkpt>
      <trkpt lat="44.53198" lon="0.73347">
        <ele>111.17</ele>
        <time>2015-05-10T09:11:10Z</time>
      </trkpt>
      <trkpt lat="44.53239" lon="0.73302">
        <ele>113.09</ele>
        <time>2015-05-10T09:11:22Z</time>
      </trkpt>
      <trkpt lat="44.53297" lon="0.73262">
        <ele>112.13</ele>
        <time>2015-05-10T09:11:36Z</time>
      </trkpt>
      <trkpt lat="44.53373" lon="0.73237">
        <ele>113.09</ele>
        <time>2015-05-10T09:11:55Z</time>
      </trkpt>
      <trkpt lat="44.5342" lon="0.73207">
        <ele>114.53</ele>
        <time>2015-05-10T09:12:09Z</time>
      </trkpt>
      <trkpt lat="44.53465" lon="0.73138">
        <ele>113.57</ele>
        <time>2015-05-10T09:12:24Z</time>
      </trkpt>
      <trkpt lat="44.53509" lon="0.73069">
        <ele>113.09</ele>
        <time>2015-05-10T09:12:39Z</time>
      </trkpt>
      <trkpt lat="44.53514" lon="0.73058">
        <ele>113.09</ele>
        <time>2015-05-10T09:12:41Z</time>
      </trkpt>
      <trkpt lat="44.53512" lon="0.73031">
        <ele>111.17</ele>
        <time>2015-05-10T09:12:45Z</time>
      </trkpt>
      <trkpt lat="44.53499" lon="0.72987">
        <ele>109.73</ele>
        <time>2015-05-10T09:12:51Z</time>
      </trkpt>
      <trkpt lat="44.53497" lon="0.72939">
        <ele>108.29</ele>
        <time>2015-05-10T09:12:57Z</time>
      </trkpt>
      <trkpt lat="44.53498" lon="0.72931">
        <ele>108.29</ele>
        <time>2015-05-10T09:12:58Z</time>
      </trkpt>
      <trkpt lat="44.53499" lon="0.72923">
        <ele>108.29</ele>
        <time>2015-05-10T09:12:59Z</time>
      </trkpt>
      <trkpt lat="44.53514" lon="0.72879">
        <ele>109.25</ele>
        <time>2015-05-10T09:13:06Z</time>
      </trkpt>
      <trkpt lat="44.53515" lon="0.72872">
        <ele>109.25</ele>
        <time>2015-05-10T09:13:07Z</time>
      </trkpt>
      <trkpt lat="44.53516" lon="0.72837">
        <ele>108.77</ele>
        <time>2015-05-10T09:13:11Z</time>
      </trkpt>
      <trkpt lat="44.53514" lon="0.72797">
        <ele>109.25</ele>
        <time>2015-05-10T09:13:16Z</time>
      </trkpt>
      <trkpt lat="44.53515" lon="0.72789">
        <ele>109.25</ele>
        <time>2015-05-10T09:13:17Z</time>
      </trkpt>
      <trkpt lat="44.53517" lon="0.72782">
        <ele>109.73</ele>
        <time>2015-05-10T09:13:18Z</time>
      </trkpt>
      <trkpt lat="44.53519" lon="0.72777">
        <ele>109.73</ele>
        <time>2015-05-10T09:13:19Z</time>
      </trkpt>
      <trkpt lat="44.53522" lon="0.72772">
        <ele>110.21</ele>
        <time>2015-05-10T09:13:20Z</time>
      </trkpt>
      <trkpt lat="44.53525" lon="0.72768">
        <ele>110.69</ele>
        <time>2015-05-10T09:13:21Z</time>
      </trkpt>
      <trkpt lat="44.53553" lon="0.72738">
        <ele>115.5</ele>
        <time>2015-05-10T09:13:34Z</time>
      </trkpt>
      <trkpt lat="44.53588" lon="0.72705">
        <ele>118.86</ele>
        <time>2015-05-10T09:13:51Z</time>
      </trkpt>
      <trkpt lat="44.536" lon="0.72658">
        <ele>119.82</ele>
        <time>2015-05-10T09:14:04Z</time>
      </trkpt>
      <trkpt lat="44.53615" lon="0.72593">
        <ele>118.86</ele>
        <time>2015-05-10T09:14:18Z</time>
      </trkpt>
      <trkpt lat="44.53618" lon="0.72581">
        <ele>118.38</ele>
        <time>2015-05-10T09:14:20Z</time>
      </trkpt>
      <trkpt lat="44.53621" lon="0.72574">
        <ele>118.38</ele>
        <time>2015-05-10T09:14:21Z</time>
      </trkpt>
      <trkpt lat="44.53654" lon="0.72465">
        <ele>116.46</ele>
        <time>2015-05-10T09:14:35Z</time>
      </trkpt>
      <trkpt lat="44.53668" lon="0.72421">
        <ele>116.94</ele>
        <time>2015-05-10T09:14:42Z</time>
      </trkpt>
      <trkpt lat="44.53679" lon="0.72392">
        <ele>117.42</ele>
        <time>2015-05-10T09:14:48Z</time>
      </trkpt>
      <trkpt lat="44.53703" lon="0.72398">
        <ele>120.78</ele>
        <time>2015-05-10T09:14:59Z</time>
      </trkpt>
      <trkpt lat="44.53739" lon="0.72402">
        <ele>125.11</ele>
        <time>2015-05-10T09:15:14Z</time>
      </trkpt>
      <trkpt lat="44.53772" lon="0.72405">
        <ele>126.55</ele>
        <time>2015-05-10T09:15:26Z</time>
      </trkpt>
      <trkpt lat="44.5382" lon="0.72416">
        <ele>128.47</ele>
        <time>2015-05-10T09:15:43Z</time>
      </trkpt>
      <trkpt lat="44.53858" lon="0.72426">
        <ele>128.47</ele>
        <time>2015-05-10T09:15:56Z</time>
      </trkpt>
      <trkpt lat="44.53894" lon="0.72441">
        <ele>128.95</ele>
        <time>2015-05-10T09:16:10Z</time>
      </trkpt>
      <trkpt lat="44.53888" lon="0.72486">
        <ele>127.99</ele>
        <time>2015-05-10T09:16:23Z</time>
      </trkpt>
      <trkpt lat="44.53876" lon="0.72543">
        <ele>130.4</ele>
        <time>2015-05-10T09:16:38Z</time>
      </trkpt>
      <trkpt lat="44.53866" lon="0.72584">
        <ele>131.36</ele>
        <time>2015-05-10T09:16:50Z</time>
      </trkpt>
      <trkpt lat="44.53859" lon="0.7263">
        <ele>132.32</ele>
        <time>2015-05-10T09:17:03Z</time>
      </trkpt>
      <trkpt lat="44.53859" lon="0.72647">
        <ele>133.76</ele>
        <time>2015-05-10T09:17:08Z</time>
      </trkpt>
      <trkpt lat="44.53865" lon="0.72653">
        <ele>134.72</ele>
        <time>2015-05-10T09:17:12Z</time>
      </trkpt>
      <trkpt lat="44.5389" lon="0.72667">
        <ele>135.2</ele>
        <time>2015-05-10T09:17:25Z</time>
      </trkpt>
      <trkpt lat="44.53912" lon="0.72679">
        <ele>134.72</ele>
        <time>2015-05-10T09:17:37Z</time>
      </trkpt>
      <trkpt lat="44.53923" lon="0.72683">
        <ele>135.68</ele>
        <time>2015-05-10T09:17:45Z</time>
      </trkpt>
      <trkpt lat="44.53944" lon="0.72694">
        <ele>139.05</ele>
        <time>2015-05-10T09:17:57Z</time>
      </trkpt>
      <trkpt lat="44.53977" lon="0.72716">
        <ele>140.97</ele>
        <time>2015-05-10T09:18:09Z</time>
      </trkpt>
      <trkpt lat="44.54007" lon="0.72734">
        <ele>143.37</ele>
        <time>2015-05-10T09:18:21Z</time>
      </trkpt>
      <trkpt lat="44.54037" lon="0.72772">
        <ele>143.85</ele>
        <time>2015-05-10T09:18:35Z</time>
      </trkpt>
      <trkpt lat="44.54045" lon="0.72787">
        <ele>143.85</ele>
        <time>2015-05-10T09:18:40Z</time>
      </trkpt>
      <trkpt lat="44.54056" lon="0.72816">
        <ele>145.3</ele>
        <time>2015-05-10T09:18:51Z</time>
      </trkpt>
      <trkpt lat="44.54058" lon="0.72821">
        <ele>145.78</ele>
        <time>2015-05-10T09:18:52Z</time>
      </trkpt>
      <trkpt lat="44.54068" lon="0.72841">
        <ele>145.78</ele>
        <time>2015-05-10T09:18:57Z</time>
      </trkpt>
      <trkpt lat="44.54065" lon="0.72851">
        <ele>145.3</ele>
        <time>2015-05-10T09:19:01Z</time>
      </trkpt>
      <trkpt lat="44.54051" lon="0.72862">
        <ele>146.26</ele>
        <time>2015-05-10T09:19:09Z</time>
      </trkpt>
      <trkpt lat="44.54043" lon="0.72872">
        <ele>147.22</ele>
        <time>2015-05-10T09:19:16Z</time>
      </trkpt>
      <trkpt lat="44.54036" lon="0.7288">
        <ele>147.7</ele>
        <time>2015-05-10T09:19:21Z</time>
      </trkpt>
      <trkpt lat="44.54013" lon="0.72894">
        <ele>151.54</ele>
        <time>2015-05-10T09:19:33Z</time>
      </trkpt>
      <trkpt lat="44.53985" lon="0.72907">
        <ele>156.35</ele>
        <time>2015-05-10T09:19:46Z</time>
      </trkpt>
      <trkpt lat="44.53955" lon="0.72927">
        <ele>160.2</ele>
        <time>2015-05-10T09:19:57Z</time>
      </trkpt>
      <trkpt lat="44.53953" lon="0.72929">
        <ele>160.68</ele>
        <time>2015-05-10T09:19:58Z</time>
      </trkpt>
      <trkpt lat="44.53927" lon="0.7296">
        <ele>163.08</ele>
        <time>2015-05-10T09:20:07Z</time>
      </trkpt>
      <trkpt lat="44.53898" lon="0.72998">
        <ele>163.56</ele>
        <time>2015-05-10T09:20:17Z</time>
      </trkpt>
      <trkpt lat="44.53895" lon="0.73001">
        <ele>164.04</ele>
        <time>2015-05-10T09:20:18Z</time>
      </trkpt>
      <trkpt lat="44.5388" lon="0.73041">
        <ele>168.37</ele>
        <time>2015-05-10T09:20:27Z</time>
      </trkpt>
      <trkpt lat="44.53877" lon="0.73096">
        <ele>167.89</ele>
        <time>2015-05-10T09:20:37Z</time>
      </trkpt>
      <trkpt lat="44.53849" lon="0.73153">
        <ele>166.93</ele>
        <time>2015-05-10T09:20:46Z</time>
      </trkpt>
      <trkpt lat="44.53817" lon="0.73222">
        <ele>164.04</ele>
        <time>2015-05-10T09:20:59Z</time>
      </trkpt>
      <trkpt lat="44.53806" lon="0.73298">
        <ele>143.37</ele>
        <time>2015-05-10T09:21:08Z</time>
      </trkpt>
      <trkpt lat="44.53813" lon="0.73423">
        <ele>128.95</ele>
        <time>2015-05-10T09:21:20Z</time>
      </trkpt>
      <trkpt lat="44.53797" lon="0.73541">
        <ele>122.22</ele>
        <time>2015-05-10T09:21:33Z</time>
      </trkpt>
      <trkpt lat="44.53757" lon="0.7365">
        <ele>120.3</ele>
        <time>2015-05-10T09:21:49Z</time>
      </trkpt>
      <trkpt lat="44.53749" lon="0.73669">
        <ele>120.78</ele>
        <time>2015-05-10T09:21:53Z</time>
      </trkpt>
      <trkpt lat="44.53719" lon="0.73743">
        <ele>115.5</ele>
        <time>2015-05-10T09:22:06Z</time>
      </trkpt>
      <trkpt lat="44.53716" lon="0.73747">
        <ele>115.01</ele>
        <time>2015-05-10T09:22:07Z</time>
      </trkpt>
      <trkpt lat="44.53712" lon="0.73749">
        <ele>115.01</ele>
        <time>2015-05-10T09:22:08Z</time>
      </trkpt>
      <trkpt lat="44.53708" lon="0.73749">
        <ele>115.01</ele>
        <time>2015-05-10T09:22:09Z</time>
      </trkpt>
      <trkpt lat="44.53703" lon="0.7375">
        <ele>114.53</ele>
        <time>2015-05-10T09:22:10Z</time>
      </trkpt>
      <trkpt lat="44.53699" lon="0.73751">
        <ele>114.53</ele>
        <time>2015-05-10T09:22:11Z</time>
      </trkpt>
      <trkpt lat="44.53694" lon="0.73752">
        <ele>114.53</ele>
        <time>2015-05-10T09:22:12Z</time>
      </trkpt>
      <trkpt lat="44.53611" lon="0.73794">
        <ele>109.73</ele>
        <time>2015-05-10T09:22:25Z</time>
      </trkpt>
      <trkpt lat="44.53518" lon="0.73866">
        <ele>105.88</ele>
        <time>2015-05-10T09:22:39Z</time>
      </trkpt>
      <trkpt lat="44.53511" lon="0.73869">
        <ele>105.88</ele>
        <time>2015-05-10T09:22:40Z</time>
      </trkpt>
      <trkpt lat="44.53504" lon="0.7387">
        <ele>105.4</ele>
        <time>2015-05-10T09:22:41Z</time>
      </trkpt>
      <trkpt lat="44.53497" lon="0.7387">
        <ele>105.4</ele>
        <time>2015-05-10T09:22:42Z</time>
      </trkpt>
      <trkpt lat="44.53491" lon="0.73868">
        <ele>105.4</ele>
        <time>2015-05-10T09:22:43Z</time>
      </trkpt>
      <trkpt lat="44.53485" lon="0.73865">
        <ele>105.4</ele>
        <time>2015-05-10T09:22:44Z</time>
      </trkpt>
      <trkpt lat="44.53479" lon="0.73861">
        <ele>105.4</ele>
        <time>2015-05-10T09:22:45Z</time>
      </trkpt>
      <trkpt lat="44.53423" lon="0.73824">
        <ele>105.88</ele>
        <time>2015-05-10T09:22:55Z</time>
      </trkpt>
      <trkpt lat="44.53419" lon="0.73821">
        <ele>105.88</ele>
        <time>2015-05-10T09:22:56Z</time>
      </trkpt>
      <trkpt lat="44.53415" lon="0.73817">
        <ele>106.36</ele>
        <time>2015-05-10T09:22:57Z</time>
      </trkpt>
      <trkpt lat="44.53411" lon="0.73814">
        <ele>106.84</ele>
        <time>2015-05-10T09:22:58Z</time>
      </trkpt>
      <trkpt lat="44.53407" lon="0.7381">
        <ele>107.32</ele>
        <time>2015-05-10T09:22:59Z</time>
      </trkpt>
      <trkpt lat="44.53375" lon="0.73777">
        <ele>109.25</ele>
        <time>2015-05-10T09:23:08Z</time>
      </trkpt>
      <trkpt lat="44.53371" lon="0.73774">
        <ele>109.25</ele>
        <time>2015-05-10T09:23:09Z</time>
      </trkpt>
      <trkpt lat="44.53367" lon="0.73773">
        <ele>108.77</ele>
        <time>2015-05-10T09:23:10Z</time>
      </trkpt>
      <trkpt lat="44.53361" lon="0.73773">
        <ele>108.77</ele>
        <time>2015-05-10T09:23:11Z</time>
      </trkpt>
      <trkpt lat="44.53356" lon="0.73776">
        <ele>108.29</ele>
        <time>2015-05-10T09:23:12Z</time>
      </trkpt>
      <trkpt lat="44.53351" lon="0.73779">
        <ele>107.81</ele>
        <time>2015-05-10T09:23:13Z</time>
      </trkpt>
      <trkpt lat="44.53346" lon="0.73784">
        <ele>107.32</ele>
        <time>2015-05-10T09:23:14Z</time>
      </trkpt>
      <trkpt lat="44.53341" lon="0.73789">
        <ele>107.32</ele>
        <time>2015-05-10T09:23:15Z</time>
      </trkpt>
      <trkpt lat="44.53335" lon="0.73794">
        <ele>106.84</ele>
        <time>2015-05-10T09:23:16Z</time>
      </trkpt>
      <trkpt lat="44.5333" lon="0.73799">
        <ele>106.36</ele>
        <time>2015-05-10T09:23:17Z</time>
      </trkpt>
      <trkpt lat="44.53325" lon="0.73804">
        <ele>105.88</ele>
        <time>2015-05-10T09:23:18Z</time>
      </trkpt>
      <trkpt lat="44.53321" lon="0.7381">
        <ele>105.88</ele>
        <time>2015-05-10T09:23:19Z</time>
      </trkpt>
      <trkpt lat="44.53317" lon="0.73815">
        <ele>105.4</ele>
        <time>2015-05-10T09:23:20Z</time>
      </trkpt>
      <trkpt lat="44.53313" lon="0.7382">
        <ele>104.92</ele>
        <time>2015-05-10T09:23:21Z</time>
      </trkpt>
      <trkpt lat="44.53309" lon="0.73826">
        <ele>104.44</ele>
        <time>2015-05-10T09:23:22Z</time>
      </trkpt>
      <trkpt lat="44.53253" lon="0.73892">
        <ele>95.79</ele>
        <time>2015-05-10T09:23:34Z</time>
      </trkpt>
      <trkpt lat="44.53247" lon="0.73912">
        <ele>92.42</ele>
        <time>2015-05-10T09:23:38Z</time>
      </trkpt>
      <trkpt lat="44.53248" lon="0.73926">
        <ele>90.5</ele>
        <time>2015-05-10T09:23:40Z</time>
      </trkpt>
      <trkpt lat="44.53249" lon="0.73933">
        <ele>90.02</ele>
        <time>2015-05-10T09:23:41Z</time>
      </trkpt>
      <trkpt lat="44.53252" lon="0.73938">
        <ele>89.54</ele>
        <time>2015-05-10T09:23:42Z</time>
      </trkpt>
      <trkpt lat="44.53255" lon="0.73943">
        <ele>88.58</ele>
        <time>2015-05-10T09:23:43Z</time>
      </trkpt>
      <trkpt lat="44.53259" lon="0.73947">
        <ele>88.1</ele>
        <time>2015-05-10T09:23:44Z</time>
      </trkpt>
      <trkpt lat="44.53263" lon="0.73951">
        <ele>87.62</ele>
        <time>2015-05-10T09:23:45Z</time>
      </trkpt>
      <trkpt lat="44.53268" lon="0.73954">
        <ele>87.62</ele>
        <time>2015-05-10T09:23:46Z</time>
      </trkpt>
      <trkpt lat="44.53291" lon="0.7397">
        <ele>85.69</ele>
        <time>2015-05-10T09:23:50Z</time>
      </trkpt>
      <trkpt lat="44.53298" lon="0.73973">
        <ele>85.21</ele>
        <time>2015-05-10T09:23:51Z</time>
      </trkpt>
      <trkpt lat="44.53305" lon="0.73974">
        <ele>84.73</ele>
        <time>2015-05-10T09:23:52Z</time>
      </trkpt>
      <trkpt lat="44.53311" lon="0.73974">
        <ele>84.73</ele>
        <time>2015-05-10T09:23:53Z</time>
      </trkpt>
      <trkpt lat="44.53317" lon="0.73973">
        <ele>84.25</ele>
        <time>2015-05-10T09:23:54Z</time>
      </trkpt>
      <trkpt lat="44.53379" lon="0.73974">
        <ele>79.93</ele>
        <time>2015-05-10T09:24:04Z</time>
      </trkpt>
      <trkpt lat="44.53385" lon="0.73976">
        <ele>79.93</ele>
        <time>2015-05-10T09:24:05Z</time>
      </trkpt>
      <trkpt lat="44.5339" lon="0.7398">
        <ele>79.45</ele>
        <time>2015-05-10T09:24:06Z</time>
      </trkpt>
      <trkpt lat="44.53394" lon="0.73985">
        <ele>78.97</ele>
        <time>2015-05-10T09:24:07Z</time>
      </trkpt>
      <trkpt lat="44.53397" lon="0.73991">
        <ele>78.97</ele>
        <time>2015-05-10T09:24:08Z</time>
      </trkpt>
      <trkpt lat="44.534" lon="0.73997">
        <ele>78.48</ele>
        <time>2015-05-10T09:24:09Z</time>
      </trkpt>
      <trkpt lat="44.53402" lon="0.74004">
        <ele>78</ele>
        <time>2015-05-10T09:24:10Z</time>
      </trkpt>
      <trkpt lat="44.53402" lon="0.74011">
        <ele>77.52</ele>
        <time>2015-05-10T09:24:11Z</time>
      </trkpt>
      <trkpt lat="44.53402" lon="0.74018">
        <ele>77.04</ele>
        <time>2015-05-10T09:24:12Z</time>
      </trkpt>
      <trkpt lat="44.53401" lon="0.74024">
        <ele>76.56</ele>
        <time>2015-05-10T09:24:13Z</time>
      </trkpt>
      <trkpt lat="44.53398" lon="0.74084">
        <ele>74.64</ele>
        <time>2015-05-10T09:24:24Z</time>
      </trkpt>
      <trkpt lat="44.53392" lon="0.74099">
        <ele>75.12</ele>
        <time>2015-05-10T09:24:35Z</time>
      </trkpt>
      <trkpt lat="44.53391" lon="0.74114">
        <ele>76.08</ele>
        <time>2015-05-10T09:24:48Z</time>
      </trkpt>
      <trkpt lat="44.53391" lon="0.74115">
        <ele>76.08</ele>
        <time>2015-05-10T09:24:49Z</time>
      </trkpt>
      <trkpt lat="44.53393" lon="0.74123">
        <ele>76.56</ele>
        <time>2015-05-10T09:24:53Z</time>
      </trkpt>
      <trkpt lat="44.53396" lon="0.74193">
        <ele>75.6</ele>
        <time>2015-05-10T09:25:07Z</time>
      </trkpt>
      <trkpt lat="44.5341" lon="0.74284">
        <ele>74.16</ele>
        <time>2015-05-10T09:25:24Z</time>
      </trkpt>
      <trkpt lat="44.53412" lon="0.74313">
        <ele>73.68</ele>
        <time>2015-05-10T09:25:30Z</time>
      </trkpt>
      <trkpt lat="44.53425" lon="0.74325">
        <ele>74.16</ele>
        <time>2015-05-10T09:25:35Z</time>
      </trkpt>
      <trkpt lat="44.53484" lon="0.74339">
        <ele>75.12</ele>
        <time>2015-05-10T09:25:51Z</time>
      </trkpt>
      <trkpt lat="44.53547" lon="0.74358">
        <ele>75.12</ele>
        <time>2015-05-10T09:26:07Z</time>
      </trkpt>
      <trkpt lat="44.53572" lon="0.74375">
        <ele>75.12</ele>
        <time>2015-05-10T09:26:14Z</time>
      </trkpt>
      <trkpt lat="44.53587" lon="0.74385">
        <ele>75.12</ele>
        <time>2015-05-10T09:26:18Z</time>
      </trkpt>
      <trkpt lat="44.53599" lon="0.74399">
        <ele>75.6</ele>
        <time>2015-05-10T09:26:22Z</time>
      </trkpt>
      <trkpt lat="44.53629" lon="0.7447">
        <ele>75.12</ele>
        <time>2015-05-10T09:26:38Z</time>
      </trkpt>
      <trkpt lat="44.53664" lon="0.74556">
        <ele>75.6</ele>
        <time>2015-05-10T09:26:56Z</time>
      </trkpt>
      <trkpt lat="44.53693" lon="0.74613">
        <ele>75.12</ele>
        <time>2015-05-10T09:27:09Z</time>
      </trkpt>
      <trkpt lat="44.5371" lon="0.74634">
        <ele>74.64</ele>
        <time>2015-05-10T09:27:15Z</time>
      </trkpt>
      <trkpt lat="44.5375" lon="0.74693">
        <ele>75.6</ele>
        <time>2015-05-10T09:27:30Z</time>
      </trkpt>
      <trkpt lat="44.53776" lon="0.74723">
        <ele>76.08</ele>
        <time>2015-05-10T09:27:41Z</time>
      </trkpt>
      <trkpt lat="44.53786" lon="0.74737">
        <ele>75.6</ele>
        <time>2015-05-10T09:27:44Z</time>
      </trkpt>
      <trkpt lat="44.53789" lon="0.74742">
        <ele>75.12</ele>
        <time>2015-05-10T09:27:45Z</time>
      </trkpt>
      <trkpt lat="44.53798" lon="0.74755">
        <ele>74.64</ele>
        <time>2015-05-10T09:27:48Z</time>
      </trkpt>
      <trkpt lat="44.53801" lon="0.74759">
        <ele>74.64</ele>
        <time>2015-05-10T09:27:49Z</time>
      </trkpt>
      <trkpt lat="44.53828" lon="0.7479">
        <ele>75.6</ele>
        <time>2015-05-10T09:27:57Z</time>
      </trkpt>
      <trkpt lat="44.53902" lon="0.7482">
        <ele>77.04</ele>
        <time>2015-05-10T09:28:14Z</time>
      </trkpt>
      <trkpt lat="44.53906" lon="0.74822">
        <ele>77.04</ele>
        <time>2015-05-10T09:28:15Z</time>
      </trkpt>
      <trkpt lat="44.53919" lon="0.74828">
        <ele>77.04</ele>
        <time>2015-05-10T09:28:18Z</time>
      </trkpt>
      <trkpt lat="44.53923" lon="0.74829">
        <ele>77.04</ele>
        <time>2015-05-10T09:28:19Z</time>
      </trkpt>
      <trkpt lat="44.53927" lon="0.7483">
        <ele>77.04</ele>
        <time>2015-05-10T09:28:20Z</time>
      </trkpt>
      <trkpt lat="44.53975" lon="0.74847">
        <ele>76.08</ele>
        <time>2015-05-10T09:28:31Z</time>
      </trkpt>
      <trkpt lat="44.53979" lon="0.74848">
        <ele>76.08</ele>
        <time>2015-05-10T09:28:32Z</time>
      </trkpt>
      <trkpt lat="44.53991" lon="0.74853">
        <ele>76.56</ele>
        <time>2015-05-10T09:28:35Z</time>
      </trkpt>
      <trkpt lat="44.53999" lon="0.74857">
        <ele>77.04</ele>
        <time>2015-05-10T09:28:37Z</time>
      </trkpt>
      <trkpt lat="44.54054" lon="0.74883">
        <ele>77.52</ele>
        <time>2015-05-10T09:28:51Z</time>
      </trkpt>
      <trkpt lat="44.54093" lon="0.74914">
        <ele>78</ele>
        <time>2015-05-10T09:29:03Z</time>
      </trkpt>
      <trkpt lat="44.54136" lon="0.74972">
        <ele>77.04</ele>
        <time>2015-05-10T09:29:18Z</time>
      </trkpt>
      <trkpt lat="44.54156" lon="0.75015">
        <ele>77.04</ele>
        <time>2015-05-10T09:29:28Z</time>
      </trkpt>
      <trkpt lat="44.54176" lon="0.75065">
        <ele>77.04</ele>
        <time>2015-05-10T09:29:40Z</time>
      </trkpt>
      <trkpt lat="44.54212" lon="0.75101">
        <ele>78</ele>
        <time>2015-05-10T09:29:54Z</time>
      </trkpt>
      <trkpt lat="44.54244" lon="0.75131">
        <ele>78</ele>
        <time>2015-05-10T09:30:09Z</time>
      </trkpt>
      <trkpt lat="44.54256" lon="0.75179">
        <ele>76.08</ele>
        <time>2015-05-10T09:30:22Z</time>
      </trkpt>
      <trkpt lat="44.54265" lon="0.75242">
        <ele>77.04</ele>
        <time>2015-05-10T09:30:38Z</time>
      </trkpt>
      <trkpt lat="44.54277" lon="0.7529">
        <ele>78</ele>
        <time>2015-05-10T09:30:52Z</time>
      </trkpt>
      <trkpt lat="44.54278" lon="0.75335">
        <ele>80.89</ele>
        <time>2015-05-10T09:31:07Z</time>
      </trkpt>
      <trkpt lat="44.54302" lon="0.75371">
        <ele>82.33</ele>
        <time>2015-05-10T09:31:20Z</time>
      </trkpt>
      <trkpt lat="44.54333" lon="0.75408">
        <ele>80.89</ele>
        <time>2015-05-10T09:31:32Z</time>
      </trkpt>
      <trkpt lat="44.54363" lon="0.7545">
        <ele>80.89</ele>
        <time>2015-05-10T09:31:44Z</time>
      </trkpt>
      <trkpt lat="44.54383" lon="0.75522">
        <ele>81.85</ele>
        <time>2015-05-10T09:32:01Z</time>
      </trkpt>
      <trkpt lat="44.54392" lon="0.75535">
        <ele>80.89</ele>
        <time>2015-05-10T09:32:04Z</time>
      </trkpt>
      <trkpt lat="44.54401" lon="0.75564">
        <ele>79.45</ele>
        <time>2015-05-10T09:32:09Z</time>
      </trkpt>
      <trkpt lat="44.54417" lon="0.75619">
        <ele>78.48</ele>
        <time>2015-05-10T09:32:20Z</time>
      </trkpt>
      <trkpt lat="44.54438" lon="0.75674">
        <ele>78.48</ele>
        <time>2015-05-10T09:32:32Z</time>
      </trkpt>
      <trkpt lat="44.54473" lon="0.75742">
        <ele>79.93</ele>
        <time>2015-05-10T09:32:47Z</time>
      </trkpt>
      <trkpt lat="44.54503" lon="0.75802">
        <ele>79.45</ele>
        <time>2015-05-10T09:33:01Z</time>
      </trkpt>
      <trkpt lat="44.54516" lon="0.7586">
        <ele>79.45</ele>
        <time>2015-05-10T09:33:13Z</time>
      </trkpt>
      <trkpt lat="44.54533" lon="0.7592">
        <ele>79.45</ele>
        <time>2015-05-10T09:33:26Z</time>
      </trkpt>
      <trkpt lat="44.54556" lon="0.75982">
        <ele>80.89</ele>
        <time>2015-05-10T09:33:41Z</time>
      </trkpt>
      <trkpt lat="44.54559" lon="0.75983">
        <ele>80.89</ele>
        <time>2015-05-10T09:33:42Z</time>
      </trkpt>
      <trkpt lat="44.54561" lon="0.75982">
        <ele>81.37</ele>
        <time>2015-05-10T09:33:43Z</time>
      </trkpt>
      <trkpt lat="44.54592" lon="0.75962">
        <ele>81.85</ele>
        <time>2015-05-10T09:33:54Z</time>
      </trkpt>
      <trkpt lat="44.5463" lon="0.7594">
        <ele>81.85</ele>
        <time>2015-05-10T09:34:07Z</time>
      </trkpt>
      <trkpt lat="44.54662" lon="0.7592">
        <ele>80.41</ele>
        <time>2015-05-10T09:34:18Z</time>
      </trkpt>
      <trkpt lat="44.54689" lon="0.75898">
        <ele>82.81</ele>
        <time>2015-05-10T09:34:28Z</time>
      </trkpt>
      <trkpt lat="44.54717" lon="0.75874">
        <ele>84.25</ele>
        <time>2015-05-10T09:34:39Z</time>
      </trkpt>
      <trkpt lat="44.54752" lon="0.75862">
        <ele>90.02</ele>
        <time>2015-05-10T09:34:50Z</time>
      </trkpt>
      <trkpt lat="44.54758" lon="0.75861">
        <ele>90.5</ele>
        <time>2015-05-10T09:34:52Z</time>
      </trkpt>
      <trkpt lat="44.5476" lon="0.75862">
        <ele>90.02</ele>
        <time>2015-05-10T09:34:53Z</time>
      </trkpt>
      <trkpt lat="44.5476" lon="0.75864">
        <ele>90.02</ele>
        <time>2015-05-10T09:34:54Z</time>
      </trkpt>
      <trkpt lat="44.54763" lon="0.75916">
        <ele>89.54</ele>
        <time>2015-05-10T09:35:04Z</time>
      </trkpt>
      <trkpt lat="44.54763" lon="0.75928">
        <ele>89.54</ele>
        <time>2015-05-10T09:35:06Z</time>
      </trkpt>
      <trkpt lat="44.54764" lon="0.76032">
        <ele>82.33</ele>
        <time>2015-05-10T09:35:22Z</time>
      </trkpt>
      <trkpt lat="44.54764" lon="0.76056">
        <ele>81.37</ele>
        <time>2015-05-10T09:35:31Z</time>
      </trkpt>
      <trkpt lat="44.54764" lon="0.76055">
        <ele>79.93</ele>
        <time>2015-05-10T09:35:44Z</time>
      </trkpt>
      <trkpt lat="44.54763" lon="0.76054">
        <ele>78.97</ele>
        <time>2015-05-10T09:36:05Z</time>
      </trkpt>
      <trkpt lat="44.54761" lon="0.7605">
        <ele>78</ele>
        <time>2015-05-10T09:36:32Z</time>
      </trkpt>
      <trkpt lat="44.54761" lon="0.76052">
        <ele>77.52</ele>
        <time>2015-05-10T09:37:00Z</time>
      </trkpt>
      <trkpt lat="44.54762" lon="0.76053">
        <ele>77.52</ele>
        <time>2015-05-10T09:37:41Z</time>
      </trkpt>
      <trkpt lat="44.54762" lon="0.76053">
        <ele>76.08</ele>
        <time>2015-05-10T09:38:10Z</time>
      </trkpt>
      <trkpt lat="44.54764" lon="0.76054">
        <ele>76.08</ele>
        <time>2015-05-10T09:38:38Z</time>
      </trkpt>
      <trkpt lat="44.54763" lon="0.76055">
        <ele>75.12</ele>
        <time>2015-05-10T09:39:21Z</time>
      </trkpt>
      <trkpt lat="44.54763" lon="0.76055">
        <ele>75.6</ele>
        <time>2015-05-10T09:39:41Z</time>
      </trkpt>
      <trkpt lat="44.54761" lon="0.76054">
        <ele>76.08</ele>
        <time>2015-05-10T09:40:07Z</time>
      </trkpt>
      <trkpt lat="44.5476" lon="0.76051">
        <ele>76.56</ele>
        <time>2015-05-10T09:40:27Z</time>
      </trkpt>
      <trkpt lat="44.5476" lon="0.76052">
        <ele>76.56</ele>
        <time>2015-05-10T09:40:59Z</time>
      </trkpt>
      <trkpt lat="44.5476" lon="0.76052">
        <ele>75.6</ele>
        <time>2015-05-10T09:41:28Z</time>
      </trkpt>
      <trkpt lat="44.5476" lon="0.76052">
        <ele>74.64</ele>
        <time>2015-05-10T09:41:58Z</time>
      </trkpt>
      <trkpt lat="44.5476" lon="0.76051">
        <ele>73.2</ele>
        <time>2015-05-10T09:42:27Z</time>
      </trkpt>
      <trkpt lat="44.54761" lon="0.76052">
        <ele>74.16</ele>
        <time>2015-05-10T09:42:55Z</time>
      </trkpt>
      <trkpt lat="44.5476" lon="0.76052">
        <ele>73.2</ele>
        <time>2015-05-10T09:43:17Z</time>
      </trkpt>
      <trkpt lat="44.54759" lon="0.76052">
        <ele>74.16</ele>
        <time>2015-05-10T09:43:49Z</time>
      </trkpt>
      <trkpt lat="44.5476" lon="0.76049">
        <ele>74.16</ele>
        <time>2015-05-10T09:44:22Z</time>
      </trkpt>
      <trkpt lat="44.5476" lon="0.7605">
        <ele>74.16</ele>
        <time>2015-05-10T09:44:42Z</time>
      </trkpt>
      <trkpt lat="44.5476" lon="0.76053">
        <ele>74.64</ele>
        <time>2015-05-10T09:44:43Z</time>
      </trkpt>
      <trkpt lat="44.54753" lon="0.76095">
        <ele>76.08</ele>
        <time>2015-05-10T09:44:54Z</time>
      </trkpt>
      <trkpt lat="44.54758" lon="0.76157">
        <ele>77.52</ele>
        <time>2015-05-10T09:45:06Z</time>
      </trkpt>
      <trkpt lat="44.54799" lon="0.76209">
        <ele>80.41</ele>
        <time>2015-05-10T09:45:20Z</time>
      </trkpt>
      <trkpt lat="44.5482" lon="0.76259">
        <ele>84.73</ele>
        <time>2015-05-10T09:45:35Z</time>
      </trkpt>
      <trkpt lat="44.54821" lon="0.7626">
        <ele>84.73</ele>
        <time>2015-05-10T09:45:36Z</time>
      </trkpt>
      <trkpt lat="44.54819" lon="0.76264">
        <ele>84.73</ele>
        <time>2015-05-10T09:45:50Z</time>
      </trkpt>
      <trkpt lat="44.54819" lon="0.76264">
        <ele>84.73</ele>
        <time>2015-05-10T09:45:52Z</time>
      </trkpt>
      <trkpt lat="44.5482" lon="0.76266">
        <ele>85.21</ele>
        <time>2015-05-10T09:45:53Z</time>
      </trkpt>
      <trkpt lat="44.5482" lon="0.76268">
        <ele>85.21</ele>
        <time>2015-05-10T09:45:54Z</time>
      </trkpt>
      <trkpt lat="44.54821" lon="0.7627">
        <ele>85.21</ele>
        <time>2015-05-10T09:45:55Z</time>
      </trkpt>
      <trkpt lat="44.54822" lon="0.76273">
        <ele>85.21</ele>
        <time>2015-05-10T09:45:56Z</time>
      </trkpt>
      <trkpt lat="44.54837" lon="0.76314">
        <ele>88.58</ele>
        <time>2015-05-10T09:46:11Z</time>
      </trkpt>
      <trkpt lat="44.54837" lon="0.76323">
        <ele>88.58</ele>
        <time>2015-05-10T09:46:15Z</time>
      </trkpt>
      <trkpt lat="44.5481" lon="0.76364">
        <ele>89.54</ele>
        <time>2015-05-10T09:46:30Z</time>
      </trkpt>
      <trkpt lat="44.54791" lon="0.76409">
        <ele>90.02</ele>
        <time>2015-05-10T09:46:42Z</time>
      </trkpt>
      <trkpt lat="44.54809" lon="0.76461">
        <ele>92.9</ele>
        <time>2015-05-10T09:46:54Z</time>
      </trkpt>
      <trkpt lat="44.54824" lon="0.76503">
        <ele>95.31</ele>
        <time>2015-05-10T09:47:07Z</time>
      </trkpt>
      <trkpt lat="44.5485" lon="0.76549">
        <ele>97.23</ele>
        <time>2015-05-10T09:47:21Z</time>
      </trkpt>
      <trkpt lat="44.54856" lon="0.76564">
        <ele>96.75</ele>
        <time>2015-05-10T09:47:24Z</time>
      </trkpt>
      <trkpt lat="44.54857" lon="0.76571">
        <ele>96.75</ele>
        <time>2015-05-10T09:47:25Z</time>
      </trkpt>
      <trkpt lat="44.54857" lon="0.76578">
        <ele>96.27</ele>
        <time>2015-05-10T09:47:26Z</time>
      </trkpt>
      <trkpt lat="44.54858" lon="0.76586">
        <ele>96.27</ele>
        <time>2015-05-10T09:47:27Z</time>
      </trkpt>
      <trkpt lat="44.54858" lon="0.76594">
        <ele>95.79</ele>
        <time>2015-05-10T09:47:28Z</time>
      </trkpt>
      <trkpt lat="44.54858" lon="0.76602">
        <ele>95.31</ele>
        <time>2015-05-10T09:47:29Z</time>
      </trkpt>
      <trkpt lat="44.54858" lon="0.76609">
        <ele>94.83</ele>
        <time>2015-05-10T09:47:30Z</time>
      </trkpt>
      <trkpt lat="44.54856" lon="0.76631">
        <ele>94.35</ele>
        <time>2015-05-10T09:47:34Z</time>
      </trkpt>
      <trkpt lat="44.54854" lon="0.76634">
        <ele>94.83</ele>
        <time>2015-05-10T09:47:35Z</time>
      </trkpt>
      <trkpt lat="44.54852" lon="0.76637">
        <ele>95.31</ele>
        <time>2015-05-10T09:47:36Z</time>
      </trkpt>
      <trkpt lat="44.5485" lon="0.76639">
        <ele>95.31</ele>
        <time>2015-05-10T09:47:37Z</time>
      </trkpt>
      <trkpt lat="44.54847" lon="0.76641">
        <ele>95.79</ele>
        <time>2015-05-10T09:47:38Z</time>
      </trkpt>
      <trkpt lat="44.54844" lon="0.76643">
        <ele>95.79</ele>
        <time>2015-05-10T09:47:39Z</time>
      </trkpt>
      <trkpt lat="44.54794" lon="0.76677">
        <ele>92.9</ele>
        <time>2015-05-10T09:47:52Z</time>
      </trkpt>
      <trkpt lat="44.54773" lon="0.76694">
        <ele>92.42</ele>
        <time>2015-05-10T09:47:57Z</time>
      </trkpt>
      <trkpt lat="44.54769" lon="0.76698">
        <ele>92.42</ele>
        <time>2015-05-10T09:47:58Z</time>
      </trkpt>
      <trkpt lat="44.54767" lon="0.76702">
        <ele>92.9</ele>
        <time>2015-05-10T09:47:59Z</time>
      </trkpt>
      <trkpt lat="44.54766" lon="0.76707">
        <ele>92.42</ele>
        <time>2015-05-10T09:48:00Z</time>
      </trkpt>
      <trkpt lat="44.54766" lon="0.76713">
        <ele>92.42</ele>
        <time>2015-05-10T09:48:01Z</time>
      </trkpt>
      <trkpt lat="44.54766" lon="0.76719">
        <ele>91.94</ele>
        <time>2015-05-10T09:48:02Z</time>
      </trkpt>
      <trkpt lat="44.54762" lon="0.76792">
        <ele>84.73</ele>
        <time>2015-05-10T09:48:11Z</time>
      </trkpt>
      <trkpt lat="44.54758" lon="0.76856">
        <ele>78.97</ele>
        <time>2015-05-10T09:48:21Z</time>
      </trkpt>
      <trkpt lat="44.54756" lon="0.76871">
        <ele>78.48</ele>
        <time>2015-05-10T09:48:24Z</time>
      </trkpt>
      <trkpt lat="44.54723" lon="0.76886">
        <ele>78</ele>
        <time>2015-05-10T09:48:35Z</time>
      </trkpt>
      <trkpt lat="44.54714" lon="0.76889">
        <ele>78</ele>
        <time>2015-05-10T09:48:38Z</time>
      </trkpt>
      <trkpt lat="44.54719" lon="0.76935">
        <ele>79.45</ele>
        <time>2015-05-10T09:48:50Z</time>
      </trkpt>
      <trkpt lat="44.54717" lon="0.76963">
        <ele>79.93</ele>
        <time>2015-05-10T09:48:57Z</time>
      </trkpt>
      <trkpt lat="44.54715" lon="0.76966">
        <ele>79.93</ele>
        <time>2015-05-10T09:48:58Z</time>
      </trkpt>
      <trkpt lat="44.54688" lon="0.76985">
        <ele>78.48</ele>
        <time>2015-05-10T09:49:07Z</time>
      </trkpt>
      <trkpt lat="44.54679" lon="0.77003">
        <ele>78</ele>
        <time>2015-05-10T09:49:11Z</time>
      </trkpt>
      <trkpt lat="44.54647" lon="0.77046">
        <ele>78.48</ele>
        <time>2015-05-10T09:49:23Z</time>
      </trkpt>
      <trkpt lat="44.54636" lon="0.77061">
        <ele>78.48</ele>
        <time>2015-05-10T09:49:29Z</time>
      </trkpt>
      <trkpt lat="44.5463" lon="0.77071">
        <ele>77.52</ele>
        <time>2015-05-10T09:49:33Z</time>
      </trkpt>
      <trkpt lat="44.54592" lon="0.77104">
        <ele>76.56</ele>
        <time>2015-05-10T09:49:46Z</time>
      </trkpt>
      <trkpt lat="44.54562" lon="0.77122">
        <ele>76.56</ele>
        <time>2015-05-10T09:49:58Z</time>
      </trkpt>
      <trkpt lat="44.54539" lon="0.77138">
        <ele>78.48</ele>
        <time>2015-05-10T09:50:12Z</time>
      </trkpt>
      <trkpt lat="44.54529" lon="0.77142">
        <ele>78.48</ele>
        <time>2015-05-10T09:50:21Z</time>
      </trkpt>
      <trkpt lat="44.54528" lon="0.77143">
        <ele>78.48</ele>
        <time>2015-05-10T09:50:22Z</time>
      </trkpt>
      <trkpt lat="44.54527" lon="0.77144">
        <ele>78.97</ele>
        <time>2015-05-10T09:50:23Z</time>
      </trkpt>
      <trkpt lat="44.54526" lon="0.77144">
        <ele>78.97</ele>
        <time>2015-05-10T09:50:24Z</time>
      </trkpt>
      <trkpt lat="44.54524" lon="0.77144">
        <ele>78.97</ele>
        <time>2015-05-10T09:50:25Z</time>
      </trkpt>
      <trkpt lat="44.54523" lon="0.77145">
        <ele>78.97</ele>
        <time>2015-05-10T09:50:26Z</time>
      </trkpt>
      <trkpt lat="44.54522" lon="0.77146">
        <ele>78.97</ele>
        <time>2015-05-10T09:50:27Z</time>
      </trkpt>
      <trkpt lat="44.54521" lon="0.77146">
        <ele>79.45</ele>
        <time>2015-05-10T09:50:28Z</time>
      </trkpt>
      <trkpt lat="44.54519" lon="0.77147">
        <ele>79.45</ele>
        <time>2015-05-10T09:50:29Z</time>
      </trkpt>
      <trkpt lat="44.54518" lon="0.77148">
        <ele>79.45</ele>
        <time>2015-05-10T09:50:30Z</time>
      </trkpt>
      <trkpt lat="44.54517" lon="0.77149">
        <ele>79.93</ele>
        <time>2015-05-10T09:50:31Z</time>
      </trkpt>
      <trkpt lat="44.54515" lon="0.77149">
        <ele>79.93</ele>
        <time>2015-05-10T09:50:32Z</time>
      </trkpt>
      <trkpt lat="44.54514" lon="0.7715">
        <ele>80.41</ele>
        <time>2015-05-10T09:50:33Z</time>
      </trkpt>
      <trkpt lat="44.54513" lon="0.77151">
        <ele>80.41</ele>
        <time>2015-05-10T09:50:34Z</time>
      </trkpt>
      <trkpt lat="44.54493" lon="0.77158">
        <ele>82.81</ele>
        <time>2015-05-10T09:50:49Z</time>
      </trkpt>
      <trkpt lat="44.54465" lon="0.77166">
        <ele>83.29</ele>
        <time>2015-05-10T09:51:05Z</time>
      </trkpt>
      <trkpt lat="44.54436" lon="0.7718">
        <ele>83.77</ele>
        <time>2015-05-10T09:51:21Z</time>
      </trkpt>
      <trkpt lat="44.54407" lon="0.77195">
        <ele>84.73</ele>
        <time>2015-05-10T09:51:38Z</time>
      </trkpt>
      <trkpt lat="44.54373" lon="0.77202">
        <ele>85.69</ele>
        <time>2015-05-10T09:51:58Z</time>
      </trkpt>
      <trkpt lat="44.54342" lon="0.77206">
        <ele>86.66</ele>
        <time>2015-05-10T09:52:15Z</time>
      </trkpt>
      <trkpt lat="44.54305" lon="0.77217">
        <ele>87.62</ele>
        <time>2015-05-10T09:52:34Z</time>
      </trkpt>
      <trkpt lat="44.54278" lon="0.77224">
        <ele>89.54</ele>
        <time>2015-05-10T09:52:50Z</time>
      </trkpt>
      <trkpt lat="44.54259" lon="0.77216">
        <ele>92.9</ele>
        <time>2015-05-10T09:53:02Z</time>
      </trkpt>
      <trkpt lat="44.54232" lon="0.77204">
        <ele>96.27</ele>
        <time>2015-05-10T09:53:18Z</time>
      </trkpt>
      <trkpt lat="44.5422" lon="0.772">
        <ele>97.71</ele>
        <time>2015-05-10T09:53:26Z</time>
      </trkpt>
      <trkpt lat="44.54218" lon="0.772">
        <ele>97.71</ele>
        <time>2015-05-10T09:53:27Z</time>
      </trkpt>
      <trkpt lat="44.54217" lon="0.772">
        <ele>97.71</ele>
        <time>2015-05-10T09:53:28Z</time>
      </trkpt>
      <trkpt lat="44.54215" lon="0.772">
        <ele>98.19</ele>
        <time>2015-05-10T09:53:29Z</time>
      </trkpt>
      <trkpt lat="44.54214" lon="0.772">
        <ele>98.19</ele>
        <time>2015-05-10T09:53:30Z</time>
      </trkpt>
      <trkpt lat="44.54212" lon="0.77199">
        <ele>98.67</ele>
        <time>2015-05-10T09:53:31Z</time>
      </trkpt>
      <trkpt lat="44.54211" lon="0.77199">
        <ele>99.15</ele>
        <time>2015-05-10T09:53:32Z</time>
      </trkpt>
      <trkpt lat="44.54209" lon="0.772">
        <ele>99.15</ele>
        <time>2015-05-10T09:53:33Z</time>
      </trkpt>
      <trkpt lat="44.54208" lon="0.772">
        <ele>99.15</ele>
        <time>2015-05-10T09:53:34Z</time>
      </trkpt>
      <trkpt lat="44.54206" lon="0.77199">
        <ele>99.15</ele>
        <time>2015-05-10T09:53:35Z</time>
      </trkpt>
      <trkpt lat="44.54205" lon="0.77199">
        <ele>99.15</ele>
        <time>2015-05-10T09:53:36Z</time>
      </trkpt>
      <trkpt lat="44.54188" lon="0.77202">
        <ele>101.56</ele>
        <time>2015-05-10T09:53:48Z</time>
      </trkpt>
      <trkpt lat="44.54186" lon="0.77202">
        <ele>102.04</ele>
        <time>2015-05-10T09:53:49Z</time>
      </trkpt>
      <trkpt lat="44.54185" lon="0.77202">
        <ele>102.04</ele>
        <time>2015-05-10T09:53:50Z</time>
      </trkpt>
      <trkpt lat="44.54183" lon="0.77202">
        <ele>102.52</ele>
        <time>2015-05-10T09:53:51Z</time>
      </trkpt>
      <trkpt lat="44.54181" lon="0.77203">
        <ele>102.52</ele>
        <time>2015-05-10T09:53:52Z</time>
      </trkpt>
      <trkpt lat="44.54155" lon="0.77211">
        <ele>104.44</ele>
        <time>2015-05-10T09:54:08Z</time>
      </trkpt>
      <trkpt lat="44.54126" lon="0.77219">
        <ele>107.32</ele>
        <time>2015-05-10T09:54:24Z</time>
      </trkpt>
      <trkpt lat="44.54103" lon="0.77212">
        <ele>107.32</ele>
        <time>2015-05-10T09:54:38Z</time>
      </trkpt>
      <trkpt lat="44.54074" lon="0.77198">
        <ele>109.25</ele>
        <time>2015-05-10T09:54:54Z</time>
      </trkpt>
      <trkpt lat="44.54037" lon="0.77186">
        <ele>111.17</ele>
        <time>2015-05-10T09:55:09Z</time>
      </trkpt>
      <trkpt lat="44.53981" lon="0.77167">
        <ele>113.09</ele>
        <time>2015-05-10T09:55:28Z</time>
      </trkpt>
      <trkpt lat="44.53934" lon="0.77153">
        <ele>113.57</ele>
        <time>2015-05-10T09:55:42Z</time>
      </trkpt>
      <trkpt lat="44.53882" lon="0.77165">
        <ele>114.05</ele>
        <time>2015-05-10T09:55:57Z</time>
      </trkpt>
      <trkpt lat="44.53831" lon="0.77183">
        <ele>115.5</ele>
        <time>2015-05-10T09:56:12Z</time>
      </trkpt>
      <trkpt lat="44.5378" lon="0.77202">
        <ele>117.42</ele>
        <time>2015-05-10T09:56:28Z</time>
      </trkpt>
      <trkpt lat="44.53731" lon="0.77217">
        <ele>119.34</ele>
        <time>2015-05-10T09:56:45Z</time>
      </trkpt>
      <trkpt lat="44.53672" lon="0.77234">
        <ele>120.3</ele>
        <time>2015-05-10T09:57:04Z</time>
      </trkpt>
      <trkpt lat="44.53617" lon="0.77248">
        <ele>121.26</ele>
        <time>2015-05-10T09:57:20Z</time>
      </trkpt>
      <trkpt lat="44.53559" lon="0.77261">
        <ele>121.74</ele>
        <time>2015-05-10T09:57:36Z</time>
      </trkpt>
      <trkpt lat="44.5355" lon="0.77257">
        <ele>121.74</ele>
        <time>2015-05-10T09:57:39Z</time>
      </trkpt>
      <trkpt lat="44.53548" lon="0.77254">
        <ele>121.74</ele>
        <time>2015-05-10T09:57:40Z</time>
      </trkpt>
      <trkpt lat="44.53545" lon="0.7725">
        <ele>121.74</ele>
        <time>2015-05-10T09:57:41Z</time>
      </trkpt>
      <trkpt lat="44.53543" lon="0.77247">
        <ele>122.22</ele>
        <time>2015-05-10T09:57:42Z</time>
      </trkpt>
      <trkpt lat="44.53541" lon="0.77243">
        <ele>122.22</ele>
        <time>2015-05-10T09:57:43Z</time>
      </trkpt>
      <trkpt lat="44.53539" lon="0.77239">
        <ele>122.71</ele>
        <time>2015-05-10T09:57:44Z</time>
      </trkpt>
      <trkpt lat="44.53515" lon="0.77195">
        <ele>126.55</ele>
        <time>2015-05-10T09:57:59Z</time>
      </trkpt>
      <trkpt lat="44.53498" lon="0.77166">
        <ele>129.92</ele>
        <time>2015-05-10T09:58:13Z</time>
      </trkpt>
      <trkpt lat="44.5348" lon="0.77139">
        <ele>132.8</ele>
        <time>2015-05-10T09:58:28Z</time>
      </trkpt>
      <trkpt lat="44.53462" lon="0.77118">
        <ele>136.16</ele>
        <time>2015-05-10T09:58:42Z</time>
      </trkpt>
      <trkpt lat="44.53437" lon="0.77094">
        <ele>140.01</ele>
        <time>2015-05-10T09:59:00Z</time>
      </trkpt>
      <trkpt lat="44.53411" lon="0.77068">
        <ele>141.45</ele>
        <time>2015-05-10T09:59:15Z</time>
      </trkpt>
      <trkpt lat="44.53384" lon="0.77038">
        <ele>143.85</ele>
        <time>2015-05-10T09:59:31Z</time>
      </trkpt>
      <trkpt lat="44.53355" lon="0.77016">
        <ele>146.74</ele>
        <time>2015-05-10T09:59:47Z</time>
      </trkpt>
      <trkpt lat="44.53352" lon="0.77015">
        <ele>147.22</ele>
        <time>2015-05-10T09:59:49Z</time>
      </trkpt>
      <trkpt lat="44.53339" lon="0.77022">
        <ele>147.22</ele>
        <time>2015-05-10T09:59:54Z</time>
      </trkpt>
      <trkpt lat="44.53336" lon="0.77027">
        <ele>147.22</ele>
        <time>2015-05-10T09:59:55Z</time>
      </trkpt>
      <trkpt lat="44.53333" lon="0.77034">
        <ele>146.74</ele>
        <time>2015-05-10T09:59:56Z</time>
      </trkpt>
      <trkpt lat="44.5333" lon="0.77044">
        <ele>146.26</ele>
        <time>2015-05-10T09:59:57Z</time>
      </trkpt>
      <trkpt lat="44.53329" lon="0.77055">
        <ele>145.3</ele>
        <time>2015-05-10T09:59:58Z</time>
      </trkpt>
      <trkpt lat="44.53328" lon="0.77068">
        <ele>144.34</ele>
        <time>2015-05-10T09:59:59Z</time>
      </trkpt>
      <trkpt lat="44.53317" lon="0.77169">
        <ele>133.76</ele>
        <time>2015-05-10T10:00:08Z</time>
      </trkpt>
      <trkpt lat="44.53314" lon="0.77174">
        <ele>132.8</ele>
        <time>2015-05-10T10:00:09Z</time>
      </trkpt>
      <trkpt lat="44.53309" lon="0.77176">
        <ele>132.32</ele>
        <time>2015-05-10T10:00:10Z</time>
      </trkpt>
      <trkpt lat="44.53305" lon="0.77176">
        <ele>131.84</ele>
        <time>2015-05-10T10:00:11Z</time>
      </trkpt>
      <trkpt lat="44.533" lon="0.77173">
        <ele>131.36</ele>
        <time>2015-05-10T10:00:12Z</time>
      </trkpt>
      <trkpt lat="44.53296" lon="0.77169">
        <ele>131.36</ele>
        <time>2015-05-10T10:00:13Z</time>
      </trkpt>
      <trkpt lat="44.53271" lon="0.7715">
        <ele>130.88</ele>
        <time>2015-05-10T10:00:19Z</time>
      </trkpt>
      <trkpt lat="44.53196" lon="0.77134">
        <ele>133.76</ele>
        <time>2015-05-10T10:00:35Z</time>
      </trkpt>
      <trkpt lat="44.5313" lon="0.77119">
        <ele>134.24</ele>
        <time>2015-05-10T10:00:49Z</time>
      </trkpt>
      <trkpt lat="44.53126" lon="0.77118">
        <ele>133.76</ele>
        <time>2015-05-10T10:00:50Z</time>
      </trkpt>
      <trkpt lat="44.53116" lon="0.77114">
        <ele>132.32</ele>
        <time>2015-05-10T10:00:52Z</time>
      </trkpt>
      <trkpt lat="44.5311" lon="0.77113">
        <ele>132.32</ele>
        <time>2015-05-10T10:00:53Z</time>
      </trkpt>
      <trkpt lat="44.53105" lon="0.77112">
        <ele>132.32</ele>
        <time>2015-05-10T10:00:54Z</time>
      </trkpt>
      <trkpt lat="44.531" lon="0.77113">
        <ele>131.84</ele>
        <time>2015-05-10T10:00:55Z</time>
      </trkpt>
      <trkpt lat="44.53095" lon="0.77114">
        <ele>131.84</ele>
        <time>2015-05-10T10:00:56Z</time>
      </trkpt>
      <trkpt lat="44.5309" lon="0.77114">
        <ele>131.84</ele>
        <time>2015-05-10T10:00:57Z</time>
      </trkpt>
      <trkpt lat="44.53085" lon="0.77111">
        <ele>131.84</ele>
        <time>2015-05-10T10:00:58Z</time>
      </trkpt>
      <trkpt lat="44.53081" lon="0.77106">
        <ele>132.32</ele>
        <time>2015-05-10T10:00:59Z</time>
      </trkpt>
      <trkpt lat="44.53078" lon="0.77101">
        <ele>132.32</ele>
        <time>2015-05-10T10:01:00Z</time>
      </trkpt>
      <trkpt lat="44.53074" lon="0.77096">
        <ele>132.32</ele>
        <time>2015-05-10T10:01:01Z</time>
      </trkpt>
      <trkpt lat="44.53032" lon="0.77039">
        <ele>135.68</ele>
        <time>2015-05-10T10:01:15Z</time>
      </trkpt>
      <trkpt lat="44.53029" lon="0.7704">
        <ele>135.68</ele>
        <time>2015-05-10T10:01:16Z</time>
      </trkpt>
      <trkpt lat="44.53025" lon="0.77042">
        <ele>135.68</ele>
        <time>2015-05-10T10:01:17Z</time>
      </trkpt>
      <trkpt lat="44.53021" lon="0.77045">
        <ele>135.68</ele>
        <time>2015-05-10T10:01:18Z</time>
      </trkpt>
      <trkpt lat="44.53016" lon="0.7705">
        <ele>135.68</ele>
        <time>2015-05-10T10:01:19Z</time>
      </trkpt>
      <trkpt lat="44.53011" lon="0.77055">
        <ele>135.2</ele>
        <time>2015-05-10T10:01:20Z</time>
      </trkpt>
      <trkpt lat="44.52983" lon="0.77082">
        <ele>132.8</ele>
        <time>2015-05-10T10:01:24Z</time>
      </trkpt>
      <trkpt lat="44.52977" lon="0.7709">
        <ele>131.84</ele>
        <time>2015-05-10T10:01:25Z</time>
      </trkpt>
      <trkpt lat="44.52967" lon="0.77105">
        <ele>129.43</ele>
        <time>2015-05-10T10:01:27Z</time>
      </trkpt>
      <trkpt lat="44.52962" lon="0.77119">
        <ele>127.03</ele>
        <time>2015-05-10T10:01:29Z</time>
      </trkpt>
      <trkpt lat="44.52959" lon="0.77127">
        <ele>126.07</ele>
        <time>2015-05-10T10:01:30Z</time>
      </trkpt>
      <trkpt lat="44.52954" lon="0.77145">
        <ele>123.67</ele>
        <time>2015-05-10T10:01:32Z</time>
      </trkpt>
      <trkpt lat="44.5295" lon="0.77155">
        <ele>122.22</ele>
        <time>2015-05-10T10:01:33Z</time>
      </trkpt>
      <trkpt lat="44.52911" lon="0.77237">
        <ele>115.5</ele>
        <time>2015-05-10T10:01:40Z</time>
      </trkpt>
      <trkpt lat="44.52907" lon="0.77251">
        <ele>115.01</ele>
        <time>2015-05-10T10:01:41Z</time>
      </trkpt>
      <trkpt lat="44.52906" lon="0.77264">
        <ele>115.01</ele>
        <time>2015-05-10T10:01:42Z</time>
      </trkpt>
      <trkpt lat="44.52901" lon="0.77311">
        <ele>115.01</ele>
        <time>2015-05-10T10:01:46Z</time>
      </trkpt>
      <trkpt lat="44.52898" lon="0.7732">
        <ele>115.01</ele>
        <time>2015-05-10T10:01:47Z</time>
      </trkpt>
      <trkpt lat="44.52894" lon="0.77327">
        <ele>115.01</ele>
        <time>2015-05-10T10:01:48Z</time>
      </trkpt>
      <trkpt lat="44.52889" lon="0.77333">
        <ele>115.01</ele>
        <time>2015-05-10T10:01:49Z</time>
      </trkpt>
      <trkpt lat="44.52885" lon="0.77339">
        <ele>115.01</ele>
        <time>2015-05-10T10:01:50Z</time>
      </trkpt>
      <trkpt lat="44.52876" lon="0.77349">
        <ele>115.01</ele>
        <time>2015-05-10T10:01:52Z</time>
      </trkpt>
      <trkpt lat="44.52862" lon="0.7736">
        <ele>115.01</ele>
        <time>2015-05-10T10:01:55Z</time>
      </trkpt>
      <trkpt lat="44.52854" lon="0.77365">
        <ele>115.5</ele>
        <time>2015-05-10T10:01:57Z</time>
      </trkpt>
      <trkpt lat="44.52846" lon="0.77369">
        <ele>115.5</ele>
        <time>2015-05-10T10:01:59Z</time>
      </trkpt>
      <trkpt lat="44.52842" lon="0.77371">
        <ele>115.5</ele>
        <time>2015-05-10T10:02:00Z</time>
      </trkpt>
      <trkpt lat="44.52834" lon="0.77374">
        <ele>115.01</ele>
        <time>2015-05-10T10:02:02Z</time>
      </trkpt>
      <trkpt lat="44.52811" lon="0.7738">
        <ele>113.57</ele>
        <time>2015-05-10T10:02:07Z</time>
      </trkpt>
      <trkpt lat="44.52807" lon="0.77383">
        <ele>113.09</ele>
        <time>2015-05-10T10:02:08Z</time>
      </trkpt>
      <trkpt lat="44.52803" lon="0.77387">
        <ele>112.61</ele>
        <time>2015-05-10T10:02:09Z</time>
      </trkpt>
      <trkpt lat="44.528" lon="0.77393">
        <ele>112.13</ele>
        <time>2015-05-10T10:02:10Z</time>
      </trkpt>
      <trkpt lat="44.52796" lon="0.774">
        <ele>111.65</ele>
        <time>2015-05-10T10:02:11Z</time>
      </trkpt>
      <trkpt lat="44.52793" lon="0.77407">
        <ele>110.69</ele>
        <time>2015-05-10T10:02:12Z</time>
      </trkpt>
      <trkpt lat="44.52763" lon="0.77466">
        <ele>105.4</ele>
        <time>2015-05-10T10:02:20Z</time>
      </trkpt>
      <trkpt lat="44.52702" lon="0.77521">
        <ele>99.15</ele>
        <time>2015-05-10T10:02:33Z</time>
      </trkpt>
      <trkpt lat="44.52634" lon="0.77564">
        <ele>95.31</ele>
        <time>2015-05-10T10:02:48Z</time>
      </trkpt>
      <trkpt lat="44.52591" lon="0.77569">
        <ele>94.83</ele>
        <time>2015-05-10T10:02:59Z</time>
      </trkpt>
      <trkpt lat="44.5252" lon="0.7757">
        <ele>94.35</ele>
        <time>2015-05-10T10:03:15Z</time>
      </trkpt>
      <trkpt lat="44.52507" lon="0.77573">
        <ele>93.87</ele>
        <time>2015-05-10T10:03:18Z</time>
      </trkpt>
      <trkpt lat="44.52456" lon="0.77578">
        <ele>92.42</ele>
        <time>2015-05-10T10:03:30Z</time>
      </trkpt>
      <trkpt lat="44.52403" lon="0.7758">
        <ele>91.94</ele>
        <time>2015-05-10T10:03:43Z</time>
      </trkpt>
      <trkpt lat="44.52359" lon="0.7758">
        <ele>95.79</ele>
        <time>2015-05-10T10:03:58Z</time>
      </trkpt>
      <trkpt lat="44.52321" lon="0.7758">
        <ele>99.63</ele>
        <time>2015-05-10T10:04:13Z</time>
      </trkpt>
      <trkpt lat="44.52286" lon="0.7758">
        <ele>100.11</ele>
        <time>2015-05-10T10:04:25Z</time>
      </trkpt>
      <trkpt lat="44.52278" lon="0.7758">
        <ele>99.63</ele>
        <time>2015-05-10T10:04:27Z</time>
      </trkpt>
      <trkpt lat="44.52266" lon="0.7758">
        <ele>98.19</ele>
        <time>2015-05-10T10:04:30Z</time>
      </trkpt>
      <trkpt lat="44.52195" lon="0.7758">
        <ele>93.87</ele>
        <time>2015-05-10T10:04:42Z</time>
      </trkpt>
      <trkpt lat="44.52109" lon="0.77579">
        <ele>91.46</ele>
        <time>2015-05-10T10:04:58Z</time>
      </trkpt>
      <trkpt lat="44.52096" lon="0.7758">
        <ele>91.46</ele>
        <time>2015-05-10T10:05:01Z</time>
      </trkpt>
      <trkpt lat="44.52084" lon="0.77597">
        <ele>90.98</ele>
        <time>2015-05-10T10:05:06Z</time>
      </trkpt>
      <trkpt lat="44.52085" lon="0.77614">
        <ele>90.98</ele>
        <time>2015-05-10T10:05:09Z</time>
      </trkpt>
      <trkpt lat="44.52087" lon="0.77655">
        <ele>92.42</ele>
        <time>2015-05-10T10:05:16Z</time>
      </trkpt>
      <trkpt lat="44.52086" lon="0.77671">
        <ele>93.39</ele>
        <time>2015-05-10T10:05:19Z</time>
      </trkpt>
      <trkpt lat="44.52069" lon="0.77684">
        <ele>92.9</ele>
        <time>2015-05-10T10:05:24Z</time>
      </trkpt>
      <trkpt lat="44.52" lon="0.77679">
        <ele>90.98</ele>
        <time>2015-05-10T10:05:38Z</time>
      </trkpt>
      <trkpt lat="44.51988" lon="0.77676">
        <ele>91.46</ele>
        <time>2015-05-10T10:05:41Z</time>
      </trkpt>
      <trkpt lat="44.51985" lon="0.77673">
        <ele>91.94</ele>
        <time>2015-05-10T10:05:42Z</time>
      </trkpt>
      <trkpt lat="44.51983" lon="0.77668">
        <ele>91.94</ele>
        <time>2015-05-10T10:05:43Z</time>
      </trkpt>
      <trkpt lat="44.51982" lon="0.77661">
        <ele>91.94</ele>
        <time>2015-05-10T10:05:44Z</time>
      </trkpt>
      <trkpt lat="44.51981" lon="0.77654">
        <ele>91.94</ele>
        <time>2015-05-10T10:05:45Z</time>
      </trkpt>
      <trkpt lat="44.51979" lon="0.77645">
        <ele>91.46</ele>
        <time>2015-05-10T10:05:46Z</time>
      </trkpt>
      <trkpt lat="44.51973" lon="0.77621">
        <ele>90.98</ele>
        <time>2015-05-10T10:05:49Z</time>
      </trkpt>
      <trkpt lat="44.5197" lon="0.77616">
        <ele>90.5</ele>
        <time>2015-05-10T10:05:50Z</time>
      </trkpt>
      <trkpt lat="44.51966" lon="0.77612">
        <ele>90.02</ele>
        <time>2015-05-10T10:05:51Z</time>
      </trkpt>
      <trkpt lat="44.51961" lon="0.7761">
        <ele>89.54</ele>
        <time>2015-05-10T10:05:52Z</time>
      </trkpt>
      <trkpt lat="44.51955" lon="0.77609">
        <ele>89.06</ele>
        <time>2015-05-10T10:05:53Z</time>
      </trkpt>
      <trkpt lat="44.5195" lon="0.77609">
        <ele>88.58</ele>
        <time>2015-05-10T10:05:54Z</time>
      </trkpt>
      <trkpt lat="44.51918" lon="0.77606">
        <ele>88.1</ele>
        <time>2015-05-10T10:06:00Z</time>
      </trkpt>
      <trkpt lat="44.51914" lon="0.77603">
        <ele>88.58</ele>
        <time>2015-05-10T10:06:01Z</time>
      </trkpt>
      <trkpt lat="44.51911" lon="0.77597">
        <ele>88.58</ele>
        <time>2015-05-10T10:06:02Z</time>
      </trkpt>
      <trkpt lat="44.5191" lon="0.77591">
        <ele>88.58</ele>
        <time>2015-05-10T10:06:03Z</time>
      </trkpt>
      <trkpt lat="44.51909" lon="0.77584">
        <ele>88.58</ele>
        <time>2015-05-10T10:06:04Z</time>
      </trkpt>
      <trkpt lat="44.51908" lon="0.77578">
        <ele>89.06</ele>
        <time>2015-05-10T10:06:05Z</time>
      </trkpt>
      <trkpt lat="44.51897" lon="0.77525">
        <ele>89.06</ele>
        <time>2015-05-10T10:06:13Z</time>
      </trkpt>
      <trkpt lat="44.51869" lon="0.77431">
        <ele>85.69</ele>
        <time>2015-05-10T10:06:26Z</time>
      </trkpt>
      <trkpt lat="44.51867" lon="0.77427">
        <ele>85.69</ele>
        <time>2015-05-10T10:06:27Z</time>
      </trkpt>
      <trkpt lat="44.51863" lon="0.77425">
        <ele>85.69</ele>
        <time>2015-05-10T10:06:28Z</time>
      </trkpt>
      <trkpt lat="44.51845" lon="0.77445">
        <ele>84.25</ele>
        <time>2015-05-10T10:06:35Z</time>
      </trkpt>
      <trkpt lat="44.51825" lon="0.77482">
        <ele>86.18</ele>
        <time>2015-05-10T10:06:47Z</time>
      </trkpt>
      <trkpt lat="44.51808" lon="0.77519">
        <ele>90.98</ele>
        <time>2015-05-10T10:06:59Z</time>
      </trkpt>
      <trkpt lat="44.51785" lon="0.77559">
        <ele>94.83</ele>
        <time>2015-05-10T10:07:11Z</time>
      </trkpt>
      <trkpt lat="44.51755" lon="0.77595">
        <ele>96.27</ele>
        <time>2015-05-10T10:07:25Z</time>
      </trkpt>
      <trkpt lat="44.51726" lon="0.77634">
        <ele>97.23</ele>
        <time>2015-05-10T10:07:38Z</time>
      </trkpt>
      <trkpt lat="44.51687" lon="0.77677">
        <ele>95.79</ele>
        <time>2015-05-10T10:07:54Z</time>
      </trkpt>
      <trkpt lat="44.51639" lon="0.77713">
        <ele>93.87</ele>
        <time>2015-05-10T10:08:10Z</time>
      </trkpt>
      <trkpt lat="44.51589" lon="0.77734">
        <ele>93.39</ele>
        <time>2015-05-10T10:08:26Z</time>
      </trkpt>
      <trkpt lat="44.5154" lon="0.77748">
        <ele>95.31</ele>
        <time>2015-05-10T10:08:43Z</time>
      </trkpt>
      <trkpt lat="44.51494" lon="0.7776">
        <ele>96.27</ele>
        <time>2015-05-10T10:09:02Z</time>
      </trkpt>
      <trkpt lat="44.51453" lon="0.77778">
        <ele>98.19</ele>
        <time>2015-05-10T10:09:19Z</time>
      </trkpt>
      <trkpt lat="44.51415" lon="0.77796">
        <ele>99.63</ele>
        <time>2015-05-10T10:09:34Z</time>
      </trkpt>
      <trkpt lat="44.51384" lon="0.77809">
        <ele>101.08</ele>
        <time>2015-05-10T10:09:47Z</time>
      </trkpt>
      <trkpt lat="44.5136" lon="0.77857">
        <ele>103</ele>
        <time>2015-05-10T10:10:02Z</time>
      </trkpt>
      <trkpt lat="44.51345" lon="0.77899">
        <ele>103.48</ele>
        <time>2015-05-10T10:10:12Z</time>
      </trkpt>
      <trkpt lat="44.5135" lon="0.77909">
        <ele>103.96</ele>
        <time>2015-05-10T10:10:16Z</time>
      </trkpt>
      <trkpt lat="44.51389" lon="0.77926">
        <ele>102.52</ele>
        <time>2015-05-10T10:10:28Z</time>
      </trkpt>
      <trkpt lat="44.51419" lon="0.77938">
        <ele>101.08</ele>
        <time>2015-05-10T10:10:35Z</time>
      </trkpt>
      <trkpt lat="44.51443" lon="0.77947">
        <ele>99.63</ele>
        <time>2015-05-10T10:10:40Z</time>
      </trkpt>
      <trkpt lat="44.51459" lon="0.77962">
        <ele>98.67</ele>
        <time>2015-05-10T10:10:44Z</time>
      </trkpt>
      <trkpt lat="44.51471" lon="0.77977">
        <ele>98.19</ele>
        <time>2015-05-10T10:10:47Z</time>
      </trkpt>
      <trkpt lat="44.51517" lon="0.78032">
        <ele>100.6</ele>
        <time>2015-05-10T10:11:02Z</time>
      </trkpt>
      <trkpt lat="44.51575" lon="0.78101">
        <ele>99.63</ele>
        <time>2015-05-10T10:11:21Z</time>
      </trkpt>
      <trkpt lat="44.51577" lon="0.78104">
        <ele>99.63</ele>
        <time>2015-05-10T10:11:22Z</time>
      </trkpt>
      <trkpt lat="44.51576" lon="0.78106">
        <ele>99.63</ele>
        <time>2015-05-10T10:11:23Z</time>
      </trkpt>
      <trkpt lat="44.51575" lon="0.78109">
        <ele>100.11</ele>
        <time>2015-05-10T10:11:24Z</time>
      </trkpt>
      <trkpt lat="44.5154" lon="0.78162">
        <ele>101.56</ele>
        <time>2015-05-10T10:11:38Z</time>
      </trkpt>
      <trkpt lat="44.51502" lon="0.7823">
        <ele>103</ele>
        <time>2015-05-10T10:11:55Z</time>
      </trkpt>
      <trkpt lat="44.51469" lon="0.78293">
        <ele>105.4</ele>
        <time>2015-05-10T10:12:10Z</time>
      </trkpt>
      <trkpt lat="44.51449" lon="0.78362">
        <ele>109.25</ele>
        <time>2015-05-10T10:12:27Z</time>
      </trkpt>
      <trkpt lat="44.51426" lon="0.78434">
        <ele>109.25</ele>
        <time>2015-05-10T10:12:42Z</time>
      </trkpt>
      <trkpt lat="44.51418" lon="0.78458">
        <ele>109.73</ele>
        <time>2015-05-10T10:12:47Z</time>
      </trkpt>
      <trkpt lat="44.51416" lon="0.78463">
        <ele>109.25</ele>
        <time>2015-05-10T10:12:48Z</time>
      </trkpt>
      <trkpt lat="44.5139" lon="0.78554">
        <ele>109.25</ele>
        <time>2015-05-10T10:13:04Z</time>
      </trkpt>
      <trkpt lat="44.51352" lon="0.78639">
        <ele>108.29</ele>
        <time>2015-05-10T10:13:20Z</time>
      </trkpt>
      <trkpt lat="44.51343" lon="0.78655">
        <ele>108.29</ele>
        <time>2015-05-10T10:13:23Z</time>
      </trkpt>
      <trkpt lat="44.5134" lon="0.7866">
        <ele>107.81</ele>
        <time>2015-05-10T10:13:24Z</time>
      </trkpt>
      <trkpt lat="44.51337" lon="0.78665">
        <ele>107.81</ele>
        <time>2015-05-10T10:13:25Z</time>
      </trkpt>
      <trkpt lat="44.51316" lon="0.78695">
        <ele>107.81</ele>
        <time>2015-05-10T10:13:32Z</time>
      </trkpt>
      <trkpt lat="44.51283" lon="0.78747">
        <ele>108.29</ele>
        <time>2015-05-10T10:13:45Z</time>
      </trkpt>
      <trkpt lat="44.5125" lon="0.78774">
        <ele>109.25</ele>
        <time>2015-05-10T10:13:57Z</time>
      </trkpt>
      <trkpt lat="44.51209" lon="0.78798">
        <ele>111.17</ele>
        <time>2015-05-10T10:14:13Z</time>
      </trkpt>
      <trkpt lat="44.51175" lon="0.78833">
        <ele>113.09</ele>
        <time>2015-05-10T10:14:28Z</time>
      </trkpt>
      <trkpt lat="44.51151" lon="0.78873">
        <ele>115.5</ele>
        <time>2015-05-10T10:14:43Z</time>
      </trkpt>
      <trkpt lat="44.51133" lon="0.78909">
        <ele>112.61</ele>
        <time>2015-05-10T10:14:56Z</time>
      </trkpt>
      <trkpt lat="44.5111" lon="0.78957">
        <ele>114.05</ele>
        <time>2015-05-10T10:15:10Z</time>
      </trkpt>
      <trkpt lat="44.51085" lon="0.79009">
        <ele>116.94</ele>
        <time>2015-05-10T10:15:25Z</time>
      </trkpt>
      <trkpt lat="44.51063" lon="0.79056">
        <ele>120.78</ele>
        <time>2015-05-10T10:15:39Z</time>
      </trkpt>
      <trkpt lat="44.51044" lon="0.79098">
        <ele>124.63</ele>
        <time>2015-05-10T10:15:53Z</time>
      </trkpt>
      <trkpt lat="44.51026" lon="0.79136">
        <ele>127.51</ele>
        <time>2015-05-10T10:16:08Z</time>
      </trkpt>
      <trkpt lat="44.51026" lon="0.79139">
        <ele>127.51</ele>
        <time>2015-05-10T10:16:09Z</time>
      </trkpt>
      <trkpt lat="44.51026" lon="0.79141">
        <ele>127.99</ele>
        <time>2015-05-10T10:16:10Z</time>
      </trkpt>
      <trkpt lat="44.51038" lon="0.79158">
        <ele>131.36</ele>
        <time>2015-05-10T10:16:18Z</time>
      </trkpt>
      <trkpt lat="44.5108" lon="0.79188">
        <ele>132.8</ele>
        <time>2015-05-10T10:16:33Z</time>
      </trkpt>
      <trkpt lat="44.51114" lon="0.79213">
        <ele>130.4</ele>
        <time>2015-05-10T10:16:45Z</time>
      </trkpt>
      <trkpt lat="44.51155" lon="0.79247">
        <ele>129.92</ele>
        <time>2015-05-10T10:16:59Z</time>
      </trkpt>
      <trkpt lat="44.51202" lon="0.79276">
        <ele>131.36</ele>
        <time>2015-05-10T10:17:16Z</time>
      </trkpt>
      <trkpt lat="44.51233" lon="0.79296">
        <ele>134.72</ele>
        <time>2015-05-10T10:17:30Z</time>
      </trkpt>
      <trkpt lat="44.51256" lon="0.79312">
        <ele>136.16</ele>
        <time>2015-05-10T10:17:40Z</time>
      </trkpt>
      <trkpt lat="44.51261" lon="0.7933">
        <ele>138.09</ele>
        <time>2015-05-10T10:17:47Z</time>
      </trkpt>
      <trkpt lat="44.51262" lon="0.79354">
        <ele>141.45</ele>
        <time>2015-05-10T10:17:57Z</time>
      </trkpt>
      <trkpt lat="44.5127" lon="0.79359">
        <ele>142.41</ele>
        <time>2015-05-10T10:18:02Z</time>
      </trkpt>
      <trkpt lat="44.51302" lon="0.7936">
        <ele>144.82</ele>
        <time>2015-05-10T10:18:18Z</time>
      </trkpt>
      <trkpt lat="44.51336" lon="0.79362">
        <ele>146.26</ele>
        <time>2015-05-10T10:18:31Z</time>
      </trkpt>
      <trkpt lat="44.5134" lon="0.7936">
        <ele>145.78</ele>
        <time>2015-05-10T10:18:32Z</time>
      </trkpt>
      <trkpt lat="44.51411" lon="0.79358">
        <ele>141.45</ele>
        <time>2015-05-10T10:18:45Z</time>
      </trkpt>
      <trkpt lat="44.51476" lon="0.79357">
        <ele>136.16</ele>
        <time>2015-05-10T10:18:56Z</time>
      </trkpt>
      <trkpt lat="44.5154" lon="0.79347">
        <ele>130.88</ele>
        <time>2015-05-10T10:19:06Z</time>
      </trkpt>
      <trkpt lat="44.51552" lon="0.79344">
        <ele>129.92</ele>
        <time>2015-05-10T10:19:08Z</time>
      </trkpt>
      <trkpt lat="44.51582" lon="0.79352">
        <ele>129.43</ele>
        <time>2015-05-10T10:19:15Z</time>
      </trkpt>
      <trkpt lat="44.5163" lon="0.79359">
        <ele>133.76</ele>
        <time>2015-05-10T10:19:31Z</time>
      </trkpt>
      <trkpt lat="44.51651" lon="0.79354">
        <ele>135.68</ele>
        <time>2015-05-10T10:19:37Z</time>
      </trkpt>
      <trkpt lat="44.51705" lon="0.79357">
        <ele>134.72</ele>
        <time>2015-05-10T10:19:48Z</time>
      </trkpt>
      <trkpt lat="44.51725" lon="0.7936">
        <ele>134.24</ele>
        <time>2015-05-10T10:19:52Z</time>
      </trkpt>
      <trkpt lat="44.51732" lon="0.79382">
        <ele>132.8</ele>
        <time>2015-05-10T10:19:59Z</time>
      </trkpt>
      <trkpt lat="44.51731" lon="0.79387">
        <ele>133.28</ele>
        <time>2015-05-10T10:20:01Z</time>
      </trkpt>
      <trkpt lat="44.51722" lon="0.79429">
        <ele>134.72</ele>
        <time>2015-05-10T10:20:16Z</time>
      </trkpt>
      <trkpt lat="44.51719" lon="0.79455">
        <ele>136.16</ele>
        <time>2015-05-10T10:20:25Z</time>
      </trkpt>
      <trkpt lat="44.51714" lon="0.79477">
        <ele>135.2</ele>
        <time>2015-05-10T10:20:33Z</time>
      </trkpt>
      <trkpt lat="44.51707" lon="0.79509">
        <ele>133.28</ele>
        <time>2015-05-10T10:20:46Z</time>
      </trkpt>
      <trkpt lat="44.51699" lon="0.79532">
        <ele>133.76</ele>
        <time>2015-05-10T10:20:57Z</time>
      </trkpt>
      <trkpt lat="44.51694" lon="0.79549">
        <ele>138.09</ele>
        <time>2015-05-10T10:21:04Z</time>
      </trkpt>
      <trkpt lat="44.51684" lon="0.79583">
        <ele>143.85</ele>
        <time>2015-05-10T10:21:17Z</time>
      </trkpt>
      <trkpt lat="44.51671" lon="0.79617">
        <ele>143.85</ele>
        <time>2015-05-10T10:21:31Z</time>
      </trkpt>
      <trkpt lat="44.51654" lon="0.79649">
        <ele>142.89</ele>
        <time>2015-05-10T10:21:46Z</time>
      </trkpt>
      <trkpt lat="44.51635" lon="0.79679">
        <ele>144.34</ele>
        <time>2015-05-10T10:21:57Z</time>
      </trkpt>
      <trkpt lat="44.51606" lon="0.79718">
        <ele>146.26</ele>
        <time>2015-05-10T10:22:12Z</time>
      </trkpt>
      <trkpt lat="44.5158" lon="0.79735">
        <ele>149.14</ele>
        <time>2015-05-10T10:22:25Z</time>
      </trkpt>
      <trkpt lat="44.51545" lon="0.79768">
        <ele>150.1</ele>
        <time>2015-05-10T10:22:40Z</time>
      </trkpt>
      <trkpt lat="44.51517" lon="0.79803">
        <ele>150.58</ele>
        <time>2015-05-10T10:22:53Z</time>
      </trkpt>
      <trkpt lat="44.51516" lon="0.79807">
        <ele>150.58</ele>
        <time>2015-05-10T10:22:54Z</time>
      </trkpt>
      <trkpt lat="44.51515" lon="0.79811">
        <ele>150.1</ele>
        <time>2015-05-10T10:22:55Z</time>
      </trkpt>
      <trkpt lat="44.51514" lon="0.79815">
        <ele>150.1</ele>
        <time>2015-05-10T10:22:56Z</time>
      </trkpt>
      <trkpt lat="44.51512" lon="0.79819">
        <ele>149.62</ele>
        <time>2015-05-10T10:22:57Z</time>
      </trkpt>
      <trkpt lat="44.51509" lon="0.79822">
        <ele>149.62</ele>
        <time>2015-05-10T10:22:58Z</time>
      </trkpt>
      <trkpt lat="44.51506" lon="0.79824">
        <ele>149.62</ele>
        <time>2015-05-10T10:22:59Z</time>
      </trkpt>
      <trkpt lat="44.51476" lon="0.79848">
        <ele>150.58</ele>
        <time>2015-05-10T10:23:08Z</time>
      </trkpt>
      <trkpt lat="44.51457" lon="0.79861">
        <ele>150.1</ele>
        <time>2015-05-10T10:23:13Z</time>
      </trkpt>
      <trkpt lat="44.51453" lon="0.79862">
        <ele>150.1</ele>
        <time>2015-05-10T10:23:14Z</time>
      </trkpt>
      <trkpt lat="44.51448" lon="0.79863">
        <ele>150.1</ele>
        <time>2015-05-10T10:23:15Z</time>
      </trkpt>
      <trkpt lat="44.51444" lon="0.79863">
        <ele>150.1</ele>
        <time>2015-05-10T10:23:16Z</time>
      </trkpt>
      <trkpt lat="44.51439" lon="0.79863">
        <ele>150.58</ele>
        <time>2015-05-10T10:23:17Z</time>
      </trkpt>
      <trkpt lat="44.51426" lon="0.79865">
        <ele>150.58</ele>
        <time>2015-05-10T10:23:20Z</time>
      </trkpt>
      <trkpt lat="44.51356" lon="0.79888">
        <ele>149.14</ele>
        <time>2015-05-10T10:23:33Z</time>
      </trkpt>
      <trkpt lat="44.51318" lon="0.79894">
        <ele>149.14</ele>
        <time>2015-05-10T10:23:40Z</time>
      </trkpt>
      <trkpt lat="44.51314" lon="0.79896">
        <ele>149.14</ele>
        <time>2015-05-10T10:23:41Z</time>
      </trkpt>
      <trkpt lat="44.51312" lon="0.799">
        <ele>148.66</ele>
        <time>2015-05-10T10:23:42Z</time>
      </trkpt>
      <trkpt lat="44.51312" lon="0.79906">
        <ele>148.66</ele>
        <time>2015-05-10T10:23:43Z</time>
      </trkpt>
      <trkpt lat="44.51314" lon="0.79911">
        <ele>148.66</ele>
        <time>2015-05-10T10:23:44Z</time>
      </trkpt>
      <trkpt lat="44.51317" lon="0.79915">
        <ele>148.18</ele>
        <time>2015-05-10T10:23:45Z</time>
      </trkpt>
      <trkpt lat="44.51324" lon="0.79924">
        <ele>148.66</ele>
        <time>2015-05-10T10:23:47Z</time>
      </trkpt>
      <trkpt lat="44.51329" lon="0.79928">
        <ele>148.18</ele>
        <time>2015-05-10T10:23:48Z</time>
      </trkpt>
      <trkpt lat="44.51388" lon="0.7998">
        <ele>148.18</ele>
        <time>2015-05-10T10:23:59Z</time>
      </trkpt>
      <trkpt lat="44.51393" lon="0.79988">
        <ele>148.18</ele>
        <time>2015-05-10T10:24:00Z</time>
      </trkpt>
      <trkpt lat="44.51409" lon="0.80031">
        <ele>146.74</ele>
        <time>2015-05-10T10:24:05Z</time>
      </trkpt>
      <trkpt lat="44.5145" lon="0.80149">
        <ele>142.41</ele>
        <time>2015-05-10T10:24:20Z</time>
      </trkpt>
      <trkpt lat="44.5149" lon="0.80277">
        <ele>141.93</ele>
        <time>2015-05-10T10:24:37Z</time>
      </trkpt>
      <trkpt lat="44.5154" lon="0.80384">
        <ele>142.89</ele>
        <time>2015-05-10T10:24:54Z</time>
      </trkpt>
      <trkpt lat="44.51544" lon="0.8039">
        <ele>142.89</ele>
        <time>2015-05-10T10:24:55Z</time>
      </trkpt>
      <trkpt lat="44.51585" lon="0.80452">
        <ele>146.26</ele>
        <time>2015-05-10T10:25:06Z</time>
      </trkpt>
      <trkpt lat="44.51589" lon="0.80456">
        <ele>146.26</ele>
        <time>2015-05-10T10:25:07Z</time>
      </trkpt>
      <trkpt lat="44.5164" lon="0.80514">
        <ele>149.14</ele>
        <time>2015-05-10T10:25:21Z</time>
      </trkpt>
      <trkpt lat="44.5165" lon="0.80526">
        <ele>149.14</ele>
        <time>2015-05-10T10:25:25Z</time>
      </trkpt>
      <trkpt lat="44.51653" lon="0.80527">
        <ele>149.14</ele>
        <time>2015-05-10T10:25:26Z</time>
      </trkpt>
      <trkpt lat="44.51656" lon="0.80528">
        <ele>149.14</ele>
        <time>2015-05-10T10:25:27Z</time>
      </trkpt>
      <trkpt lat="44.5166" lon="0.80531">
        <ele>148.66</ele>
        <time>2015-05-10T10:25:28Z</time>
      </trkpt>
      <trkpt lat="44.51663" lon="0.80535">
        <ele>148.66</ele>
        <time>2015-05-10T10:25:29Z</time>
      </trkpt>
      <trkpt lat="44.51665" lon="0.80539">
        <ele>148.66</ele>
        <time>2015-05-10T10:25:30Z</time>
      </trkpt>
      <trkpt lat="44.51697" lon="0.8058">
        <ele>149.14</ele>
        <time>2015-05-10T10:25:44Z</time>
      </trkpt>
      <trkpt lat="44.51715" lon="0.80625">
        <ele>149.14</ele>
        <time>2015-05-10T10:25:59Z</time>
      </trkpt>
      <trkpt lat="44.51717" lon="0.8063">
        <ele>149.14</ele>
        <time>2015-05-10T10:26:01Z</time>
      </trkpt>
      <trkpt lat="44.51721" lon="0.8064">
        <ele>148.66</ele>
        <time>2015-05-10T10:26:05Z</time>
      </trkpt>
      <trkpt lat="44.51736" lon="0.80683">
        <ele>148.18</ele>
        <time>2015-05-10T10:26:19Z</time>
      </trkpt>
      <trkpt lat="44.51742" lon="0.807">
        <ele>148.18</ele>
        <time>2015-05-10T10:26:24Z</time>
      </trkpt>
      <trkpt lat="44.51758" lon="0.80743">
        <ele>146.26</ele>
        <time>2015-05-10T10:26:37Z</time>
      </trkpt>
      <trkpt lat="44.51779" lon="0.80798">
        <ele>144.34</ele>
        <time>2015-05-10T10:26:50Z</time>
      </trkpt>
      <trkpt lat="44.51796" lon="0.80859">
        <ele>145.3</ele>
        <time>2015-05-10T10:27:04Z</time>
      </trkpt>
      <trkpt lat="44.51802" lon="0.80899">
        <ele>145.3</ele>
        <time>2015-05-10T10:27:12Z</time>
      </trkpt>
      <trkpt lat="44.51813" lon="0.80963">
        <ele>148.18</ele>
        <time>2015-05-10T10:27:25Z</time>
      </trkpt>
      <trkpt lat="44.51827" lon="0.81017">
        <ele>148.66</ele>
        <time>2015-05-10T10:27:37Z</time>
      </trkpt>
      <trkpt lat="44.51836" lon="0.81047">
        <ele>148.18</ele>
        <time>2015-05-10T10:27:42Z</time>
      </trkpt>
      <trkpt lat="44.5186" lon="0.81099">
        <ele>148.18</ele>
        <time>2015-05-10T10:27:54Z</time>
      </trkpt>
      <trkpt lat="44.51888" lon="0.81152">
        <ele>150.58</ele>
        <time>2015-05-10T10:28:11Z</time>
      </trkpt>
      <trkpt lat="44.51908" lon="0.81187">
        <ele>153.47</ele>
        <time>2015-05-10T10:28:27Z</time>
      </trkpt>
      <trkpt lat="44.51928" lon="0.81226">
        <ele>156.83</ele>
        <time>2015-05-10T10:28:46Z</time>
      </trkpt>
      <trkpt lat="44.51949" lon="0.8126">
        <ele>159.24</ele>
        <time>2015-05-10T10:29:05Z</time>
      </trkpt>
      <trkpt lat="44.5197" lon="0.81292">
        <ele>161.64</ele>
        <time>2015-05-10T10:29:21Z</time>
      </trkpt>
      <trkpt lat="44.51987" lon="0.81319">
        <ele>165</ele>
        <time>2015-05-10T10:29:34Z</time>
      </trkpt>
      <trkpt lat="44.52002" lon="0.81337">
        <ele>166.45</ele>
        <time>2015-05-10T10:29:43Z</time>
      </trkpt>
      <trkpt lat="44.5202" lon="0.81377">
        <ele>168.37</ele>
        <time>2015-05-10T10:29:58Z</time>
      </trkpt>
      <trkpt lat="44.52037" lon="0.81419">
        <ele>171.73</ele>
        <time>2015-05-10T10:30:15Z</time>
      </trkpt>
      <trkpt lat="44.52049" lon="0.81472">
        <ele>170.29</ele>
        <time>2015-05-10T10:30:29Z</time>
      </trkpt>
      <trkpt lat="44.5205" lon="0.81478">
        <ele>170.29</ele>
        <time>2015-05-10T10:30:30Z</time>
      </trkpt>
      <trkpt lat="44.52043" lon="0.81529">
        <ele>166.45</ele>
        <time>2015-05-10T10:30:38Z</time>
      </trkpt>
      <trkpt lat="44.52048" lon="0.8157">
        <ele>163.08</ele>
        <time>2015-05-10T10:30:43Z</time>
      </trkpt>
      <trkpt lat="44.5206" lon="0.81625">
        <ele>160.68</ele>
        <time>2015-05-10T10:30:49Z</time>
      </trkpt>
      <trkpt lat="44.52069" lon="0.81658">
        <ele>158.75</ele>
        <time>2015-05-10T10:30:55Z</time>
      </trkpt>
      <trkpt lat="44.5208" lon="0.81705">
        <ele>158.27</ele>
        <time>2015-05-10T10:31:05Z</time>
      </trkpt>
      <trkpt lat="44.52088" lon="0.81734">
        <ele>156.35</ele>
        <time>2015-05-10T10:31:16Z</time>
      </trkpt>
      <trkpt lat="44.52099" lon="0.8178">
        <ele>157.79</ele>
        <time>2015-05-10T10:31:25Z</time>
      </trkpt>
      <trkpt lat="44.52102" lon="0.81798">
        <ele>157.31</ele>
        <time>2015-05-10T10:31:28Z</time>
      </trkpt>
      <trkpt lat="44.52103" lon="0.81822">
        <ele>156.83</ele>
        <time>2015-05-10T10:31:32Z</time>
      </trkpt>
      <trkpt lat="44.52112" lon="0.81862">
        <ele>157.79</ele>
        <time>2015-05-10T10:31:39Z</time>
      </trkpt>
      <trkpt lat="44.52115" lon="0.81877">
        <ele>157.79</ele>
        <time>2015-05-10T10:31:41Z</time>
      </trkpt>
      <trkpt lat="44.5211" lon="0.81975">
        <ele>153.95</ele>
        <time>2015-05-10T10:31:52Z</time>
      </trkpt>
      <trkpt lat="44.52107" lon="0.81999">
        <ele>152.03</ele>
        <time>2015-05-10T10:31:55Z</time>
      </trkpt>
      <trkpt lat="44.5211" lon="0.8203">
        <ele>150.58</ele>
        <time>2015-05-10T10:31:59Z</time>
      </trkpt>
      <trkpt lat="44.52115" lon="0.82045">
        <ele>150.1</ele>
        <time>2015-05-10T10:32:01Z</time>
      </trkpt>
      <trkpt lat="44.52137" lon="0.82134">
        <ele>148.18</ele>
        <time>2015-05-10T10:32:12Z</time>
      </trkpt>
      <trkpt lat="44.52168" lon="0.82184">
        <ele>146.26</ele>
        <time>2015-05-10T10:32:21Z</time>
      </trkpt>
      <trkpt lat="44.52177" lon="0.8219">
        <ele>145.78</ele>
        <time>2015-05-10T10:32:23Z</time>
      </trkpt>
      <trkpt lat="44.52191" lon="0.8222">
        <ele>146.26</ele>
        <time>2015-05-10T10:32:31Z</time>
      </trkpt>
      <trkpt lat="44.52207" lon="0.82256">
        <ele>146.26</ele>
        <time>2015-05-10T10:32:41Z</time>
      </trkpt>
      <trkpt lat="44.52234" lon="0.8231">
        <ele>147.7</ele>
        <time>2015-05-10T10:32:53Z</time>
      </trkpt>
      <trkpt lat="44.52261" lon="0.82353">
        <ele>149.62</ele>
        <time>2015-05-10T10:33:04Z</time>
      </trkpt>
      <trkpt lat="44.52274" lon="0.8237">
        <ele>149.62</ele>
        <time>2015-05-10T10:33:09Z</time>
      </trkpt>
      <trkpt lat="44.52293" lon="0.82408">
        <ele>148.18</ele>
        <time>2015-05-10T10:33:19Z</time>
      </trkpt>
      <trkpt lat="44.52321" lon="0.82444">
        <ele>147.7</ele>
        <time>2015-05-10T10:33:29Z</time>
      </trkpt>
      <trkpt lat="44.52335" lon="0.82464">
        <ele>148.18</ele>
        <time>2015-05-10T10:33:34Z</time>
      </trkpt>
      <trkpt lat="44.52337" lon="0.82484">
        <ele>147.7</ele>
        <time>2015-05-10T10:33:38Z</time>
      </trkpt>
      <trkpt lat="44.52323" lon="0.82555">
        <ele>143.37</ele>
        <time>2015-05-10T10:33:53Z</time>
      </trkpt>
      <trkpt lat="44.52313" lon="0.82612">
        <ele>141.93</ele>
        <time>2015-05-10T10:34:06Z</time>
      </trkpt>
      <trkpt lat="44.52314" lon="0.82615">
        <ele>141.45</ele>
        <time>2015-05-10T10:34:08Z</time>
      </trkpt>
      <trkpt lat="44.52314" lon="0.82618">
        <ele>141.45</ele>
        <time>2015-05-10T10:34:09Z</time>
      </trkpt>
      <trkpt lat="44.52314" lon="0.82622">
        <ele>141.45</ele>
        <time>2015-05-10T10:34:10Z</time>
      </trkpt>
      <trkpt lat="44.52312" lon="0.82642">
        <ele>140.97</ele>
        <time>2015-05-10T10:34:14Z</time>
      </trkpt>
      <trkpt lat="44.52312" lon="0.82648">
        <ele>140.97</ele>
        <time>2015-05-10T10:34:15Z</time>
      </trkpt>
      <trkpt lat="44.52311" lon="0.82653">
        <ele>140.97</ele>
        <time>2015-05-10T10:34:16Z</time>
      </trkpt>
      <trkpt lat="44.52311" lon="0.82659">
        <ele>140.97</ele>
        <time>2015-05-10T10:34:17Z</time>
      </trkpt>
      <trkpt lat="44.52311" lon="0.82665">
        <ele>140.97</ele>
        <time>2015-05-10T10:34:18Z</time>
      </trkpt>
      <trkpt lat="44.52311" lon="0.82671">
        <ele>140.97</ele>
        <time>2015-05-10T10:34:19Z</time>
      </trkpt>
      <trkpt lat="44.5231" lon="0.82677">
        <ele>140.97</ele>
        <time>2015-05-10T10:34:20Z</time>
      </trkpt>
      <trkpt lat="44.5231" lon="0.82683">
        <ele>140.49</ele>
        <time>2015-05-10T10:34:21Z</time>
      </trkpt>
      <trkpt lat="44.52305" lon="0.82778">
        <ele>141.45</ele>
        <time>2015-05-10T10:34:37Z</time>
      </trkpt>
      <trkpt lat="44.52305" lon="0.82806">
        <ele>141.45</ele>
        <time>2015-05-10T10:34:42Z</time>
      </trkpt>
      <trkpt lat="44.52304" lon="0.82811">
        <ele>141.93</ele>
        <time>2015-05-10T10:34:43Z</time>
      </trkpt>
      <trkpt lat="44.52303" lon="0.82878">
        <ele>143.85</ele>
        <time>2015-05-10T10:34:58Z</time>
      </trkpt>
      <trkpt lat="44.52293" lon="0.82949">
        <ele>145.78</ele>
        <time>2015-05-10T10:35:15Z</time>
      </trkpt>
      <trkpt lat="44.52281" lon="0.83015">
        <ele>146.74</ele>
        <time>2015-05-10T10:35:30Z</time>
      </trkpt>
      <trkpt lat="44.52261" lon="0.83078">
        <ele>147.22</ele>
        <time>2015-05-10T10:35:44Z</time>
      </trkpt>
      <trkpt lat="44.52231" lon="0.83147">
        <ele>147.22</ele>
        <time>2015-05-10T10:35:59Z</time>
      </trkpt>
      <trkpt lat="44.52196" lon="0.83228">
        <ele>144.82</ele>
        <time>2015-05-10T10:36:11Z</time>
      </trkpt>
      <trkpt lat="44.52142" lon="0.83293">
        <ele>143.85</ele>
        <time>2015-05-10T10:36:24Z</time>
      </trkpt>
      <trkpt lat="44.52117" lon="0.83316">
        <ele>144.82</ele>
        <time>2015-05-10T10:36:35Z</time>
      </trkpt>
      <trkpt lat="44.52108" lon="0.83332">
        <ele>145.3</ele>
        <time>2015-05-10T10:36:47Z</time>
      </trkpt>
      <trkpt lat="44.52101" lon="0.83353">
        <ele>151.06</ele>
        <time>2015-05-10T10:37:06Z</time>
      </trkpt>
      <trkpt lat="44.52101" lon="0.83361">
        <ele>152.99</ele>
        <time>2015-05-10T10:37:18Z</time>
      </trkpt>
      <trkpt lat="44.52102" lon="0.83369">
        <ele>153.95</ele>
        <time>2015-05-10T10:37:22Z</time>
      </trkpt>
      <trkpt lat="44.52102" lon="0.83374">
        <ele>155.39</ele>
        <time>2015-05-10T10:37:25Z</time>
      </trkpt>
      <trkpt lat="44.521" lon="0.83394">
        <ele>159.24</ele>
        <time>2015-05-10T10:37:33Z</time>
      </trkpt>
      <trkpt lat="44.52092" lon="0.83437">
        <ele>164.52</ele>
        <time>2015-05-10T10:37:48Z</time>
      </trkpt>
      <trkpt lat="44.52085" lon="0.8347">
        <ele>167.41</ele>
        <time>2015-05-10T10:38:00Z</time>
      </trkpt>
      <trkpt lat="44.52078" lon="0.835">
        <ele>171.73</ele>
        <time>2015-05-10T10:38:12Z</time>
      </trkpt>
      <trkpt lat="44.52068" lon="0.83533">
        <ele>179.9</ele>
        <time>2015-05-10T10:38:24Z</time>
      </trkpt>
      <trkpt lat="44.52064" lon="0.83548">
        <ele>180.87</ele>
        <time>2015-05-10T10:38:29Z</time>
      </trkpt>
      <trkpt lat="44.52055" lon="0.83577">
        <ele>180.38</ele>
        <time>2015-05-10T10:38:40Z</time>
      </trkpt>
      <trkpt lat="44.52053" lon="0.83583">
        <ele>179.9</ele>
        <time>2015-05-10T10:38:46Z</time>
      </trkpt>
      <trkpt lat="44.52041" lon="0.83616">
        <ele>177.02</ele>
        <time>2015-05-10T10:38:59Z</time>
      </trkpt>
      <trkpt lat="44.52031" lon="0.83643">
        <ele>177.02</ele>
        <time>2015-05-10T10:39:06Z</time>
      </trkpt>
      <trkpt lat="44.52013" lon="0.83708">
        <ele>177.02</ele>
        <time>2015-05-10T10:39:17Z</time>
      </trkpt>
      <trkpt lat="44.52011" lon="0.83717">
        <ele>177.02</ele>
        <time>2015-05-10T10:39:19Z</time>
      </trkpt>
      <trkpt lat="44.52023" lon="0.8375">
        <ele>177.02</ele>
        <time>2015-05-10T10:39:30Z</time>
      </trkpt>
      <trkpt lat="44.52029" lon="0.83757">
        <ele>177.02</ele>
        <time>2015-05-10T10:39:33Z</time>
      </trkpt>
      <trkpt lat="44.52049" lon="0.83772">
        <ele>177.98</ele>
        <time>2015-05-10T10:39:45Z</time>
      </trkpt>
      <trkpt lat="44.52055" lon="0.83776">
        <ele>178.94</ele>
        <time>2015-05-10T10:39:49Z</time>
      </trkpt>
      <trkpt lat="44.52068" lon="0.83787">
        <ele>182.79</ele>
        <time>2015-05-10T10:39:59Z</time>
      </trkpt>
      <trkpt lat="44.52081" lon="0.83796">
        <ele>183.75</ele>
        <time>2015-05-10T10:40:08Z</time>
      </trkpt>
      <trkpt lat="44.521" lon="0.83809">
        <ele>183.27</ele>
        <time>2015-05-10T10:40:20Z</time>
      </trkpt>
      <trkpt lat="44.52123" lon="0.83827">
        <ele>182.79</ele>
        <time>2015-05-10T10:40:35Z</time>
      </trkpt>
      <trkpt lat="44.52128" lon="0.83832">
        <ele>183.27</ele>
        <time>2015-05-10T10:40:39Z</time>
      </trkpt>
      <trkpt lat="44.52142" lon="0.83866">
        <ele>182.79</ele>
        <time>2015-05-10T10:40:52Z</time>
      </trkpt>
      <trkpt lat="44.52168" lon="0.83904">
        <ele>182.79</ele>
        <time>2015-05-10T10:41:05Z</time>
      </trkpt>
      <trkpt lat="44.52194" lon="0.8394">
        <ele>182.79</ele>
        <time>2015-05-10T10:41:18Z</time>
      </trkpt>
      <trkpt lat="44.52228" lon="0.83973">
        <ele>184.71</ele>
        <time>2015-05-10T10:41:31Z</time>
      </trkpt>
      <trkpt lat="44.52267" lon="0.84007">
        <ele>186.63</ele>
        <time>2015-05-10T10:41:43Z</time>
      </trkpt>
      <trkpt lat="44.52276" lon="0.84013">
        <ele>185.19</ele>
        <time>2015-05-10T10:41:48Z</time>
      </trkpt>
      <trkpt lat="44.52287" lon="0.84022">
        <ele>184.71</ele>
        <time>2015-05-10T10:41:59Z</time>
      </trkpt>
      <trkpt lat="44.52304" lon="0.84044">
        <ele>189.04</ele>
        <time>2015-05-10T10:42:11Z</time>
      </trkpt>
      <trkpt lat="44.52295" lon="0.84058">
        <ele>189.52</ele>
        <time>2015-05-10T10:42:18Z</time>
      </trkpt>
      <trkpt lat="44.52238" lon="0.84107">
        <ele>185.67</ele>
        <time>2015-05-10T10:42:29Z</time>
      </trkpt>
      <trkpt lat="44.52185" lon="0.84158">
        <ele>181.83</ele>
        <time>2015-05-10T10:42:39Z</time>
      </trkpt>
      <trkpt lat="44.52163" lon="0.8417">
        <ele>180.87</ele>
        <time>2015-05-10T10:42:44Z</time>
      </trkpt>
      <trkpt lat="44.52129" lon="0.84191">
        <ele>179.9</ele>
        <time>2015-05-10T10:42:54Z</time>
      </trkpt>
      <trkpt lat="44.52087" lon="0.84187">
        <ele>177.02</ele>
        <time>2015-05-10T10:43:05Z</time>
      </trkpt>
      <trkpt lat="44.52075" lon="0.84185">
        <ele>176.06</ele>
        <time>2015-05-10T10:43:08Z</time>
      </trkpt>
      <trkpt lat="44.52047" lon="0.84205">
        <ele>173.66</ele>
        <time>2015-05-10T10:43:15Z</time>
      </trkpt>
      <trkpt lat="44.52011" lon="0.84232">
        <ele>170.77</ele>
        <time>2015-05-10T10:43:24Z</time>
      </trkpt>
      <trkpt lat="44.52008" lon="0.84236">
        <ele>170.77</ele>
        <time>2015-05-10T10:43:25Z</time>
      </trkpt>
      <trkpt lat="44.51989" lon="0.84247">
        <ele>169.81</ele>
        <time>2015-05-10T10:43:30Z</time>
      </trkpt>
      <trkpt lat="44.51954" lon="0.84265">
        <ele>166.45</ele>
        <time>2015-05-10T10:43:40Z</time>
      </trkpt>
      <trkpt lat="44.51949" lon="0.84283">
        <ele>164.04</ele>
        <time>2015-05-10T10:43:52Z</time>
      </trkpt>
      <trkpt lat="44.51949" lon="0.84291">
        <ele>163.08</ele>
        <time>2015-05-10T10:44:02Z</time>
      </trkpt>
      <trkpt lat="44.51952" lon="0.843">
        <ele>163.56</ele>
        <time>2015-05-10T10:44:10Z</time>
      </trkpt>
      <trkpt lat="44.51957" lon="0.84304">
        <ele>164.04</ele>
        <time>2015-05-10T10:44:14Z</time>
      </trkpt>
      <trkpt lat="44.51958" lon="0.84321">
        <ele>163.56</ele>
        <time>2015-05-10T10:44:25Z</time>
      </trkpt>
      <trkpt lat="44.51953" lon="0.84331">
        <ele>163.56</ele>
        <time>2015-05-10T10:44:34Z</time>
      </trkpt>
      <trkpt lat="44.51943" lon="0.84363">
        <ele>161.64</ele>
        <time>2015-05-10T10:44:46Z</time>
      </trkpt>
      <trkpt lat="44.51928" lon="0.84402">
        <ele>155.39</ele>
        <time>2015-05-10T10:45:01Z</time>
      </trkpt>
      <trkpt lat="44.51914" lon="0.84439">
        <ele>155.39</ele>
        <time>2015-05-10T10:45:16Z</time>
      </trkpt>
      <trkpt lat="44.51899" lon="0.84476">
        <ele>156.83</ele>
        <time>2015-05-10T10:45:32Z</time>
      </trkpt>
      <trkpt lat="44.51883" lon="0.84524">
        <ele>158.75</ele>
        <time>2015-05-10T10:45:51Z</time>
      </trkpt>
      <trkpt lat="44.51865" lon="0.84558">
        <ele>159.72</ele>
        <time>2015-05-10T10:46:04Z</time>
      </trkpt>
      <trkpt lat="44.51831" lon="0.84606">
        <ele>161.16</ele>
        <time>2015-05-10T10:46:20Z</time>
      </trkpt>
      <trkpt lat="44.51791" lon="0.84666">
        <ele>157.79</ele>
        <time>2015-05-10T10:46:33Z</time>
      </trkpt>
      <trkpt lat="44.51747" lon="0.84735">
        <ele>155.39</ele>
        <time>2015-05-10T10:46:49Z</time>
      </trkpt>
      <trkpt lat="44.51709" lon="0.84792">
        <ele>156.83</ele>
        <time>2015-05-10T10:47:05Z</time>
      </trkpt>
      <trkpt lat="44.51674" lon="0.84842">
        <ele>158.27</ele>
        <time>2015-05-10T10:47:23Z</time>
      </trkpt>
      <trkpt lat="44.51651" lon="0.84875">
        <ele>160.68</ele>
        <time>2015-05-10T10:47:37Z</time>
      </trkpt>
      <trkpt lat="44.51616" lon="0.84927">
        <ele>160.68</ele>
        <time>2015-05-10T10:47:53Z</time>
      </trkpt>
      <trkpt lat="44.51604" lon="0.84946">
        <ele>160.2</ele>
        <time>2015-05-10T10:47:58Z</time>
      </trkpt>
      <trkpt lat="44.51601" lon="0.84947">
        <ele>159.72</ele>
        <time>2015-05-10T10:47:59Z</time>
      </trkpt>
      <trkpt lat="44.51599" lon="0.84945">
        <ele>160.2</ele>
        <time>2015-05-10T10:48:00Z</time>
      </trkpt>
      <trkpt lat="44.51598" lon="0.84942">
        <ele>160.2</ele>
        <time>2015-05-10T10:48:01Z</time>
      </trkpt>
      <trkpt lat="44.51598" lon="0.84937">
        <ele>160.2</ele>
        <time>2015-05-10T10:48:02Z</time>
      </trkpt>
      <trkpt lat="44.51596" lon="0.84933">
        <ele>160.2</ele>
        <time>2015-05-10T10:48:03Z</time>
      </trkpt>
      <trkpt lat="44.51594" lon="0.84929">
        <ele>160.2</ele>
        <time>2015-05-10T10:48:04Z</time>
      </trkpt>
      <trkpt lat="44.51589" lon="0.84908">
        <ele>160.2</ele>
        <time>2015-05-10T10:48:08Z</time>
      </trkpt>
      <trkpt lat="44.51562" lon="0.84825">
        <ele>159.72</ele>
        <time>2015-05-10T10:48:24Z</time>
      </trkpt>
      <trkpt lat="44.5156" lon="0.8482">
        <ele>159.72</ele>
        <time>2015-05-10T10:48:25Z</time>
      </trkpt>
      <trkpt lat="44.51558" lon="0.84814">
        <ele>160.2</ele>
        <time>2015-05-10T10:48:26Z</time>
      </trkpt>
      <trkpt lat="44.5155" lon="0.84786">
        <ele>160.2</ele>
        <time>2015-05-10T10:48:31Z</time>
      </trkpt>
      <trkpt lat="44.51548" lon="0.84781">
        <ele>160.2</ele>
        <time>2015-05-10T10:48:32Z</time>
      </trkpt>
      <trkpt lat="44.51545" lon="0.8478">
        <ele>159.72</ele>
        <time>2015-05-10T10:48:33Z</time>
      </trkpt>
      <trkpt lat="44.51541" lon="0.84784">
        <ele>160.2</ele>
        <time>2015-05-10T10:48:35Z</time>
      </trkpt>
      <trkpt lat="44.51541" lon="0.84787">
        <ele>160.2</ele>
        <time>2015-05-10T10:48:36Z</time>
      </trkpt>
      <trkpt lat="44.51555" lon="0.84834">
        <ele>162.12</ele>
        <time>2015-05-10T10:48:47Z</time>
      </trkpt>
      <trkpt lat="44.51556" lon="0.8484">
        <ele>162.12</ele>
        <time>2015-05-10T10:48:48Z</time>
      </trkpt>
      <trkpt lat="44.51573" lon="0.84885">
        <ele>161.16</ele>
        <time>2015-05-10T10:48:56Z</time>
      </trkpt>
      <trkpt lat="44.51575" lon="0.84899">
        <ele>160.68</ele>
        <time>2015-05-10T10:48:58Z</time>
      </trkpt>
      <trkpt lat="44.51578" lon="0.84912">
        <ele>160.2</ele>
        <time>2015-05-10T10:49:00Z</time>
      </trkpt>
      <trkpt lat="44.51581" lon="0.84919">
        <ele>160.2</ele>
        <time>2015-05-10T10:49:01Z</time>
      </trkpt>
      <trkpt lat="44.51586" lon="0.84937">
        <ele>160.2</ele>
        <time>2015-05-10T10:49:04Z</time>
      </trkpt>
      <trkpt lat="44.51585" lon="0.84942">
        <ele>159.72</ele>
        <time>2015-05-10T10:49:05Z</time>
      </trkpt>
      <trkpt lat="44.51578" lon="0.8495">
        <ele>159.24</ele>
        <time>2015-05-10T10:49:07Z</time>
      </trkpt>
      <trkpt lat="44.51567" lon="0.84955">
        <ele>158.27</ele>
        <time>2015-05-10T10:49:09Z</time>
      </trkpt>
      <trkpt lat="44.51545" lon="0.84971">
        <ele>156.83</ele>
        <time>2015-05-10T10:49:13Z</time>
      </trkpt>
      <trkpt lat="44.51455" lon="0.85017">
        <ele>152.03</ele>
        <time>2015-05-10T10:49:27Z</time>
      </trkpt>
      <trkpt lat="44.5139" lon="0.85054">
        <ele>149.14</ele>
        <time>2015-05-10T10:49:38Z</time>
      </trkpt>
      <trkpt lat="44.51374" lon="0.85063">
        <ele>148.66</ele>
        <time>2015-05-10T10:49:41Z</time>
      </trkpt>
      <trkpt lat="44.51352" lon="0.85076">
        <ele>147.7</ele>
        <time>2015-05-10T10:49:45Z</time>
      </trkpt>
      <trkpt lat="44.51315" lon="0.85137">
        <ele>142.89</ele>
        <time>2015-05-10T10:49:53Z</time>
      </trkpt>
      <trkpt lat="44.51281" lon="0.85148">
        <ele>140.49</ele>
        <time>2015-05-10T10:49:59Z</time>
      </trkpt>
      <trkpt lat="44.51269" lon="0.85135">
        <ele>140.49</ele>
        <time>2015-05-10T10:50:02Z</time>
      </trkpt>
      <trkpt lat="44.51251" lon="0.85138">
        <ele>140.49</ele>
        <time>2015-05-10T10:50:07Z</time>
      </trkpt>
      <trkpt lat="44.51234" lon="0.85182">
        <ele>140.01</ele>
        <time>2015-05-10T10:50:14Z</time>
      </trkpt>
      <trkpt lat="44.51227" lon="0.85201">
        <ele>138.57</ele>
        <time>2015-05-10T10:50:17Z</time>
      </trkpt>
      <trkpt lat="44.51191" lon="0.85268">
        <ele>135.68</ele>
        <time>2015-05-10T10:50:27Z</time>
      </trkpt>
      <trkpt lat="44.51163" lon="0.85275">
        <ele>135.68</ele>
        <time>2015-05-10T10:50:35Z</time>
      </trkpt>
      <trkpt lat="44.5116" lon="0.85269">
        <ele>136.16</ele>
        <time>2015-05-10T10:50:37Z</time>
      </trkpt>
      <trkpt lat="44.51132" lon="0.85222">
        <ele>139.53</ele>
        <time>2015-05-10T10:50:55Z</time>
      </trkpt>
      <trkpt lat="44.51104" lon="0.85184">
        <ele>143.37</ele>
        <time>2015-05-10T10:51:10Z</time>
      </trkpt>
      <trkpt lat="44.51093" lon="0.85181">
        <ele>143.37</ele>
        <time>2015-05-10T10:51:15Z</time>
      </trkpt>
      <trkpt lat="44.51082" lon="0.85141">
        <ele>145.3</ele>
        <time>2015-05-10T10:51:28Z</time>
      </trkpt>
      <trkpt lat="44.51074" lon="0.85093">
        <ele>146.26</ele>
        <time>2015-05-10T10:51:44Z</time>
      </trkpt>
      <trkpt lat="44.51068" lon="0.85055">
        <ele>146.74</ele>
        <time>2015-05-10T10:51:56Z</time>
      </trkpt>
      <trkpt lat="44.51063" lon="0.85042">
        <ele>146.74</ele>
        <time>2015-05-10T10:52:00Z</time>
      </trkpt>
      <trkpt lat="44.51064" lon="0.85039">
        <ele>146.74</ele>
        <time>2015-05-10T10:52:01Z</time>
      </trkpt>
      <trkpt lat="44.51065" lon="0.85036">
        <ele>146.74</ele>
        <time>2015-05-10T10:52:02Z</time>
      </trkpt>
      <trkpt lat="44.51066" lon="0.85034">
        <ele>146.74</ele>
        <time>2015-05-10T10:52:03Z</time>
      </trkpt>
      <trkpt lat="44.51066" lon="0.85032">
        <ele>146.74</ele>
        <time>2015-05-10T10:52:04Z</time>
      </trkpt>
      <trkpt lat="44.51068" lon="0.8503">
        <ele>147.22</ele>
        <time>2015-05-10T10:52:05Z</time>
      </trkpt>
      <trkpt lat="44.5107" lon="0.85029">
        <ele>147.22</ele>
        <time>2015-05-10T10:52:06Z</time>
      </trkpt>
      <trkpt lat="44.51102" lon="0.84997">
        <ele>148.18</ele>
        <time>2015-05-10T10:52:18Z</time>
      </trkpt>
      <trkpt lat="44.51132" lon="0.84965">
        <ele>150.1</ele>
        <time>2015-05-10T10:52:29Z</time>
      </trkpt>
      <trkpt lat="44.51133" lon="0.84962">
        <ele>150.58</ele>
        <time>2015-05-10T10:52:30Z</time>
      </trkpt>
      <trkpt lat="44.51122" lon="0.84932">
        <ele>150.58</ele>
        <time>2015-05-10T10:52:38Z</time>
      </trkpt>
      <trkpt lat="44.51096" lon="0.84884">
        <ele>147.7</ele>
        <time>2015-05-10T10:52:47Z</time>
      </trkpt>
      <trkpt lat="44.51098" lon="0.84868">
        <ele>146.74</ele>
        <time>2015-05-10T10:52:51Z</time>
      </trkpt>
      <trkpt lat="44.51109" lon="0.84852">
        <ele>146.26</ele>
        <time>2015-05-10T10:52:56Z</time>
      </trkpt>
      <trkpt lat="44.51103" lon="0.84828">
        <ele>146.26</ele>
        <time>2015-05-10T10:53:01Z</time>
      </trkpt>
      <trkpt lat="44.51089" lon="0.84803">
        <ele>145.3</ele>
        <time>2015-05-10T10:53:06Z</time>
      </trkpt>
      <trkpt lat="44.51076" lon="0.84776">
        <ele>143.37</ele>
        <time>2015-05-10T10:53:11Z</time>
      </trkpt>
      <trkpt lat="44.51069" lon="0.84757">
        <ele>141.93</ele>
        <time>2015-05-10T10:53:14Z</time>
      </trkpt>
      <trkpt lat="44.51066" lon="0.84728">
        <ele>140.97</ele>
        <time>2015-05-10T10:53:18Z</time>
      </trkpt>
      <trkpt lat="44.51066" lon="0.84713">
        <ele>140.49</ele>
        <time>2015-05-10T10:53:20Z</time>
      </trkpt>
      <trkpt lat="44.51066" lon="0.84598">
        <ele>137.13</ele>
        <time>2015-05-10T10:53:34Z</time>
      </trkpt>
      <trkpt lat="44.51065" lon="0.84568">
        <ele>135.68</ele>
        <time>2015-05-10T10:53:38Z</time>
      </trkpt>
      <trkpt lat="44.51049" lon="0.84507">
        <ele>133.28</ele>
        <time>2015-05-10T10:53:46Z</time>
      </trkpt>
      <trkpt lat="44.51025" lon="0.84465">
        <ele>129.92</ele>
        <time>2015-05-10T10:53:52Z</time>
      </trkpt>
      <trkpt lat="44.51017" lon="0.84456">
        <ele>129.43</ele>
        <time>2015-05-10T10:53:54Z</time>
      </trkpt>
      <trkpt lat="44.51013" lon="0.84454">
        <ele>129.43</ele>
        <time>2015-05-10T10:53:55Z</time>
      </trkpt>
      <trkpt lat="44.51009" lon="0.84453">
        <ele>129.43</ele>
        <time>2015-05-10T10:53:56Z</time>
      </trkpt>
      <trkpt lat="44.51004" lon="0.84452">
        <ele>129.43</ele>
        <time>2015-05-10T10:53:57Z</time>
      </trkpt>
      <trkpt lat="44.50994" lon="0.8445">
        <ele>128.95</ele>
        <time>2015-05-10T10:53:59Z</time>
      </trkpt>
      <trkpt lat="44.50978" lon="0.84443">
        <ele>128.47</ele>
        <time>2015-05-10T10:54:02Z</time>
      </trkpt>
      <trkpt lat="44.50927" lon="0.84392">
        <ele>126.55</ele>
        <time>2015-05-10T10:54:14Z</time>
      </trkpt>
      <trkpt lat="44.50893" lon="0.84348">
        <ele>126.07</ele>
        <time>2015-05-10T10:54:24Z</time>
      </trkpt>
      <trkpt lat="44.50879" lon="0.84332">
        <ele>126.07</ele>
        <time>2015-05-10T10:54:28Z</time>
      </trkpt>
      <trkpt lat="44.50875" lon="0.84312">
        <ele>126.55</ele>
        <time>2015-05-10T10:54:33Z</time>
      </trkpt>
      <trkpt lat="44.5089" lon="0.84252">
        <ele>128.47</ele>
        <time>2015-05-10T10:54:51Z</time>
      </trkpt>
      <trkpt lat="44.5091" lon="0.84224">
        <ele>131.36</ele>
        <time>2015-05-10T10:55:05Z</time>
      </trkpt>
      <trkpt lat="44.50912" lon="0.84219">
        <ele>131.84</ele>
        <time>2015-05-10T10:55:07Z</time>
      </trkpt>
      <trkpt lat="44.50897" lon="0.84178">
        <ele>135.68</ele>
        <time>2015-05-10T10:55:22Z</time>
      </trkpt>
      <trkpt lat="44.50892" lon="0.84157">
        <ele>136.16</ele>
        <time>2015-05-10T10:55:30Z</time>
      </trkpt>
      <trkpt lat="44.50883" lon="0.84134">
        <ele>135.68</ele>
        <time>2015-05-10T10:55:40Z</time>
      </trkpt>
      <trkpt lat="44.5087" lon="0.8411">
        <ele>138.57</ele>
        <time>2015-05-10T10:55:51Z</time>
      </trkpt>
      <trkpt lat="44.50865" lon="0.84101">
        <ele>140.01</ele>
        <time>2015-05-10T10:55:55Z</time>
      </trkpt>
      <trkpt lat="44.50865" lon="0.84087">
        <ele>140.49</ele>
        <time>2015-05-10T10:56:00Z</time>
      </trkpt>
      <trkpt lat="44.50895" lon="0.84039">
        <ele>140.49</ele>
        <time>2015-05-10T10:56:14Z</time>
      </trkpt>
      <trkpt lat="44.509" lon="0.8403">
        <ele>140.49</ele>
        <time>2015-05-10T10:56:16Z</time>
      </trkpt>
      <trkpt lat="44.50914" lon="0.84006">
        <ele>139.53</ele>
        <time>2015-05-10T10:56:21Z</time>
      </trkpt>
      <trkpt lat="44.50921" lon="0.83997">
        <ele>138.57</ele>
        <time>2015-05-10T10:56:23Z</time>
      </trkpt>
      <trkpt lat="44.50932" lon="0.83985">
        <ele>138.09</ele>
        <time>2015-05-10T10:56:26Z</time>
      </trkpt>
      <trkpt lat="44.50946" lon="0.83973">
        <ele>138.09</ele>
        <time>2015-05-10T10:56:30Z</time>
      </trkpt>
      <trkpt lat="44.50977" lon="0.83949">
        <ele>138.09</ele>
        <time>2015-05-10T10:56:39Z</time>
      </trkpt>
      <trkpt lat="44.51017" lon="0.83923">
        <ele>137.61</ele>
        <time>2015-05-10T10:56:52Z</time>
      </trkpt>
      <trkpt lat="44.51038" lon="0.83913">
        <ele>137.13</ele>
        <time>2015-05-10T10:56:58Z</time>
      </trkpt>
      <trkpt lat="44.51042" lon="0.8391">
        <ele>137.13</ele>
        <time>2015-05-10T10:56:59Z</time>
      </trkpt>
      <trkpt lat="44.51057" lon="0.83896">
        <ele>137.13</ele>
        <time>2015-05-10T10:57:03Z</time>
      </trkpt>
      <trkpt lat="44.51136" lon="0.83829">
        <ele>137.61</ele>
        <time>2015-05-10T10:57:21Z</time>
      </trkpt>
      <trkpt lat="44.51196" lon="0.83776">
        <ele>135.68</ele>
        <time>2015-05-10T10:57:34Z</time>
      </trkpt>
      <trkpt lat="44.51205" lon="0.83766">
        <ele>135.68</ele>
        <time>2015-05-10T10:57:36Z</time>
      </trkpt>
      <trkpt lat="44.51227" lon="0.8374">
        <ele>135.68</ele>
        <time>2015-05-10T10:57:41Z</time>
      </trkpt>
      <trkpt lat="44.51232" lon="0.83736">
        <ele>135.68</ele>
        <time>2015-05-10T10:57:42Z</time>
      </trkpt>
      <trkpt lat="44.513" lon="0.837">
        <ele>129.43</ele>
        <time>2015-05-10T10:57:51Z</time>
      </trkpt>
      <trkpt lat="44.51316" lon="0.83692">
        <ele>127.99</ele>
        <time>2015-05-10T10:57:53Z</time>
      </trkpt>
      <trkpt lat="44.51322" lon="0.83685">
        <ele>127.03</ele>
        <time>2015-05-10T10:57:54Z</time>
      </trkpt>
      <trkpt lat="44.51328" lon="0.83677">
        <ele>126.07</ele>
        <time>2015-05-10T10:57:55Z</time>
      </trkpt>
      <trkpt lat="44.51333" lon="0.83667">
        <ele>125.59</ele>
        <time>2015-05-10T10:57:56Z</time>
      </trkpt>
      <trkpt lat="44.51337" lon="0.83657">
        <ele>125.11</ele>
        <time>2015-05-10T10:57:57Z</time>
      </trkpt>
      <trkpt lat="44.51342" lon="0.83648">
        <ele>124.63</ele>
        <time>2015-05-10T10:57:58Z</time>
      </trkpt>
      <trkpt lat="44.51347" lon="0.83641">
        <ele>124.63</ele>
        <time>2015-05-10T10:57:59Z</time>
      </trkpt>
      <trkpt lat="44.51353" lon="0.83635">
        <ele>124.15</ele>
        <time>2015-05-10T10:58:00Z</time>
      </trkpt>
      <trkpt lat="44.51357" lon="0.83631">
        <ele>124.15</ele>
        <time>2015-05-10T10:58:01Z</time>
      </trkpt>
      <trkpt lat="44.51362" lon="0.83628">
        <ele>124.15</ele>
        <time>2015-05-10T10:58:02Z</time>
      </trkpt>
      <trkpt lat="44.51367" lon="0.83627">
        <ele>124.15</ele>
        <time>2015-05-10T10:58:03Z</time>
      </trkpt>
      <trkpt lat="44.51371" lon="0.83627">
        <ele>124.15</ele>
        <time>2015-05-10T10:58:04Z</time>
      </trkpt>
      <trkpt lat="44.51376" lon="0.83626">
        <ele>124.15</ele>
        <time>2015-05-10T10:58:05Z</time>
      </trkpt>
      <trkpt lat="44.5138" lon="0.83625">
        <ele>124.15</ele>
        <time>2015-05-10T10:58:06Z</time>
      </trkpt>
      <trkpt lat="44.51393" lon="0.83623">
        <ele>124.63</ele>
        <time>2015-05-10T10:58:09Z</time>
      </trkpt>
      <trkpt lat="44.51442" lon="0.83624">
        <ele>125.59</ele>
        <time>2015-05-10T10:58:20Z</time>
      </trkpt>
      <trkpt lat="44.51446" lon="0.83625">
        <ele>125.59</ele>
        <time>2015-05-10T10:58:21Z</time>
      </trkpt>
      <trkpt lat="44.5145" lon="0.83628">
        <ele>126.07</ele>
        <time>2015-05-10T10:58:22Z</time>
      </trkpt>
      <trkpt lat="44.51498" lon="0.83659">
        <ele>128.47</ele>
        <time>2015-05-10T10:58:35Z</time>
      </trkpt>
      <trkpt lat="44.51501" lon="0.83656">
        <ele>128.47</ele>
        <time>2015-05-10T10:58:36Z</time>
      </trkpt>
      <trkpt lat="44.51523" lon="0.83618">
        <ele>131.36</ele>
        <time>2015-05-10T10:58:50Z</time>
      </trkpt>
      <trkpt lat="44.51538" lon="0.8359">
        <ele>134.24</ele>
        <time>2015-05-10T10:59:04Z</time>
      </trkpt>
      <trkpt lat="44.51559" lon="0.83551">
        <ele>137.61</ele>
        <time>2015-05-10T10:59:22Z</time>
      </trkpt>
      <trkpt lat="44.51578" lon="0.83519">
        <ele>140.97</ele>
        <time>2015-05-10T10:59:36Z</time>
      </trkpt>
      <trkpt lat="44.51597" lon="0.83483">
        <ele>142.89</ele>
        <time>2015-05-10T10:59:51Z</time>
      </trkpt>
      <trkpt lat="44.51612" lon="0.83444">
        <ele>143.37</ele>
        <time>2015-05-10T11:00:04Z</time>
      </trkpt>
      <trkpt lat="44.51634" lon="0.8338">
        <ele>142.89</ele>
        <time>2015-05-10T11:00:19Z</time>
      </trkpt>
      <trkpt lat="44.51652" lon="0.83334">
        <ele>143.37</ele>
        <time>2015-05-10T11:00:29Z</time>
      </trkpt>
      <trkpt lat="44.51668" lon="0.83283">
        <ele>142.89</ele>
        <time>2015-05-10T11:00:39Z</time>
      </trkpt>
      <trkpt lat="44.51688" lon="0.83223">
        <ele>143.37</ele>
        <time>2015-05-10T11:00:51Z</time>
      </trkpt>
      <trkpt lat="44.51687" lon="0.83219">
        <ele>142.89</ele>
        <time>2015-05-10T11:00:52Z</time>
      </trkpt>
      <trkpt lat="44.51685" lon="0.83215">
        <ele>142.89</ele>
        <time>2015-05-10T11:00:53Z</time>
      </trkpt>
      <trkpt lat="44.51683" lon="0.83211">
        <ele>142.89</ele>
        <time>2015-05-10T11:00:54Z</time>
      </trkpt>
      <trkpt lat="44.5168" lon="0.83208">
        <ele>142.89</ele>
        <time>2015-05-10T11:00:55Z</time>
      </trkpt>
      <trkpt lat="44.51677" lon="0.83204">
        <ele>142.89</ele>
        <time>2015-05-10T11:00:56Z</time>
      </trkpt>
      <trkpt lat="44.51664" lon="0.83188">
        <ele>142.41</ele>
        <time>2015-05-10T11:01:00Z</time>
      </trkpt>
      <trkpt lat="44.51598" lon="0.83109">
        <ele>138.57</ele>
        <time>2015-05-10T11:01:16Z</time>
      </trkpt>
      <trkpt lat="44.51534" lon="0.83033">
        <ele>137.13</ele>
        <time>2015-05-10T11:01:31Z</time>
      </trkpt>
      <trkpt lat="44.51518" lon="0.83013">
        <ele>137.13</ele>
        <time>2015-05-10T11:01:36Z</time>
      </trkpt>
      <trkpt lat="44.51511" lon="0.83005">
        <ele>136.64</ele>
        <time>2015-05-10T11:01:38Z</time>
      </trkpt>
      <trkpt lat="44.51481" lon="0.82986">
        <ele>135.2</ele>
        <time>2015-05-10T11:01:44Z</time>
      </trkpt>
      <trkpt lat="44.51416" lon="0.82947">
        <ele>132.32</ele>
        <time>2015-05-10T11:01:56Z</time>
      </trkpt>
      <trkpt lat="44.51401" lon="0.82938">
        <ele>132.32</ele>
        <time>2015-05-10T11:01:59Z</time>
      </trkpt>
      <trkpt lat="44.51325" lon="0.82899">
        <ele>128.95</ele>
        <time>2015-05-10T11:02:10Z</time>
      </trkpt>
      <trkpt lat="44.51249" lon="0.82888">
        <ele>117.9</ele>
        <time>2015-05-10T11:02:22Z</time>
      </trkpt>
      <trkpt lat="44.51223" lon="0.82873">
        <ele>116.94</ele>
        <time>2015-05-10T11:02:32Z</time>
      </trkpt>
      <trkpt lat="44.51196" lon="0.82858">
        <ele>118.86</ele>
        <time>2015-05-10T11:02:43Z</time>
      </trkpt>
      <trkpt lat="44.51174" lon="0.82864">
        <ele>117.9</ele>
        <time>2015-05-10T11:02:49Z</time>
      </trkpt>
      <trkpt lat="44.51144" lon="0.82909">
        <ele>118.38</ele>
        <time>2015-05-10T11:03:03Z</time>
      </trkpt>
      <trkpt lat="44.51107" lon="0.82963">
        <ele>120.78</ele>
        <time>2015-05-10T11:03:19Z</time>
      </trkpt>
      <trkpt lat="44.51079" lon="0.83015">
        <ele>120.78</ele>
        <time>2015-05-10T11:03:33Z</time>
      </trkpt>
      <trkpt lat="44.51045" lon="0.83065">
        <ele>123.19</ele>
        <time>2015-05-10T11:03:49Z</time>
      </trkpt>
      <trkpt lat="44.51008" lon="0.83102">
        <ele>125.59</ele>
        <time>2015-05-10T11:04:02Z</time>
      </trkpt>
      <trkpt lat="44.50961" lon="0.83152">
        <ele>123.67</ele>
        <time>2015-05-10T11:04:15Z</time>
      </trkpt>
      <trkpt lat="44.50954" lon="0.83158">
        <ele>124.15</ele>
        <time>2015-05-10T11:04:17Z</time>
      </trkpt>
      <trkpt lat="44.50946" lon="0.83148">
        <ele>124.63</ele>
        <time>2015-05-10T11:04:21Z</time>
      </trkpt>
      <trkpt lat="44.50918" lon="0.83105">
        <ele>125.59</ele>
        <time>2015-05-10T11:04:35Z</time>
      </trkpt>
      <trkpt lat="44.50883" lon="0.83051">
        <ele>128.95</ele>
        <time>2015-05-10T11:04:53Z</time>
      </trkpt>
      <trkpt lat="44.50854" lon="0.82988">
        <ele>128.95</ele>
        <time>2015-05-10T11:05:09Z</time>
      </trkpt>
      <trkpt lat="44.50849" lon="0.82926">
        <ele>127.99</ele>
        <time>2015-05-10T11:05:21Z</time>
      </trkpt>
      <trkpt lat="44.50847" lon="0.82922">
        <ele>127.99</ele>
        <time>2015-05-10T11:05:22Z</time>
      </trkpt>
      <trkpt lat="44.5084" lon="0.82915">
        <ele>127.51</ele>
        <time>2015-05-10T11:05:24Z</time>
      </trkpt>
      <trkpt lat="44.50811" lon="0.82889">
        <ele>125.59</ele>
        <time>2015-05-10T11:05:31Z</time>
      </trkpt>
      <trkpt lat="44.50745" lon="0.82824">
        <ele>121.74</ele>
        <time>2015-05-10T11:05:45Z</time>
      </trkpt>
      <trkpt lat="44.50701" lon="0.82768">
        <ele>121.26</ele>
        <time>2015-05-10T11:05:57Z</time>
      </trkpt>
      <trkpt lat="44.50663" lon="0.82717">
        <ele>123.67</ele>
        <time>2015-05-10T11:06:14Z</time>
      </trkpt>
      <trkpt lat="44.50654" lon="0.82692">
        <ele>125.11</ele>
        <time>2015-05-10T11:06:23Z</time>
      </trkpt>
      <trkpt lat="44.50655" lon="0.82689">
        <ele>125.11</ele>
        <time>2015-05-10T11:06:24Z</time>
      </trkpt>
      <trkpt lat="44.50656" lon="0.82685">
        <ele>125.11</ele>
        <time>2015-05-10T11:06:25Z</time>
      </trkpt>
      <trkpt lat="44.50657" lon="0.82681">
        <ele>125.11</ele>
        <time>2015-05-10T11:06:26Z</time>
      </trkpt>
      <trkpt lat="44.50657" lon="0.82678">
        <ele>125.11</ele>
        <time>2015-05-10T11:06:27Z</time>
      </trkpt>
      <trkpt lat="44.50657" lon="0.82677">
        <ele>125.11</ele>
        <time>2015-05-10T11:06:28Z</time>
      </trkpt>
      <trkpt lat="44.50655" lon="0.82677">
        <ele>125.11</ele>
        <time>2015-05-10T11:06:29Z</time>
      </trkpt>
      <trkpt lat="44.50653" lon="0.82678">
        <ele>125.11</ele>
        <time>2015-05-10T11:06:30Z</time>
      </trkpt>
      <trkpt lat="44.50652" lon="0.82679">
        <ele>125.11</ele>
        <time>2015-05-10T11:06:31Z</time>
      </trkpt>
      <trkpt lat="44.5065" lon="0.82679">
        <ele>125.59</ele>
        <time>2015-05-10T11:06:32Z</time>
      </trkpt>
      <trkpt lat="44.50648" lon="0.8268">
        <ele>126.55</ele>
        <time>2015-05-10T11:06:43Z</time>
      </trkpt>
      <trkpt lat="44.50649" lon="0.82679">
        <ele>127.03</ele>
        <time>2015-05-10T11:06:56Z</time>
      </trkpt>
      <trkpt lat="44.50651" lon="0.82679">
        <ele>127.03</ele>
        <time>2015-05-10T11:06:57Z</time>
      </trkpt>
      <trkpt lat="44.50653" lon="0.82677">
        <ele>127.03</ele>
        <time>2015-05-10T11:06:58Z</time>
      </trkpt>
      <trkpt lat="44.50655" lon="0.82675">
        <ele>127.03</ele>
        <time>2015-05-10T11:06:59Z</time>
      </trkpt>
      <trkpt lat="44.50656" lon="0.82671">
        <ele>127.51</ele>
        <time>2015-05-10T11:07:00Z</time>
      </trkpt>
      <trkpt lat="44.50657" lon="0.82667">
        <ele>127.51</ele>
        <time>2015-05-10T11:07:01Z</time>
      </trkpt>
      <trkpt lat="44.50673" lon="0.82611">
        <ele>127.99</ele>
        <time>2015-05-10T11:07:13Z</time>
      </trkpt>
      <trkpt lat="44.50673" lon="0.82601">
        <ele>127.51</ele>
        <time>2015-05-10T11:07:15Z</time>
      </trkpt>
      <trkpt lat="44.50672" lon="0.82597">
        <ele>127.51</ele>
        <time>2015-05-10T11:07:16Z</time>
      </trkpt>
      <trkpt lat="44.50668" lon="0.82595">
        <ele>127.51</ele>
        <time>2015-05-10T11:07:17Z</time>
      </trkpt>
      <trkpt lat="44.50626" lon="0.82587">
        <ele>125.59</ele>
        <time>2015-05-10T11:07:29Z</time>
      </trkpt>
      <trkpt lat="44.5061" lon="0.82587">
        <ele>125.59</ele>
        <time>2015-05-10T11:07:38Z</time>
      </trkpt>
      <trkpt lat="44.5061" lon="0.82587">
        <ele>125.59</ele>
        <time>2015-05-10T11:07:55Z</time>
      </trkpt>
      <trkpt lat="44.50611" lon="0.82587">
        <ele>126.55</ele>
        <time>2015-05-10T11:08:16Z</time>
      </trkpt>
      <trkpt lat="44.50611" lon="0.82587">
        <ele>127.03</ele>
        <time>2015-05-10T11:08:34Z</time>
      </trkpt>
      <trkpt lat="44.50611" lon="0.82586">
        <ele>127.99</ele>
        <time>2015-05-10T11:08:56Z</time>
      </trkpt>
      <trkpt lat="44.50611" lon="0.82587">
        <ele>129.43</ele>
        <time>2015-05-10T11:09:19Z</time>
      </trkpt>
      <trkpt lat="44.50611" lon="0.82586">
        <ele>129.43</ele>
        <time>2015-05-10T11:09:37Z</time>
      </trkpt>
    </trkseg>
  </trk>
</gpx>